Wetterdaten: Montag, 11.05.2020
Datum Zeit Temp. 2m Temp +5 cm Feuchte A. Luftdruck Regen Wind Richtung Richtung Sonnenschein UV Solar Taupunkt Windchill Windben
11.05.2020 00:00 9,1 C 8,9 C 92 % 1007,2 hPa 0,0 l/m 24,1 km/h (4 Bft) N 360 0 min 0,0 UV-I 0 W/m 7,9 C 0,9 C 40,2 km/h (6 Bft)
11.05.2020 00:01 9,1 C 8,9 C 92 % 1007,2 hPa 0,0 l/m 17,7 km/h (3 Bft) N-NW 337 0 min 0,0 UV-I 0 W/m 7,9 C 2,9 C 25,7 km/h (4 Bft)
11.05.2020 00:02 9,0 C 8,9 C 92 % 1007,3 hPa 0,0 l/m 20,9 km/h (4 Bft) N 360 0 min 0,0 UV-I 0 W/m 7,8 C 1,7 C 25,7 km/h (4 Bft)
11.05.2020 00:03 8,9 C 8,9 C 93 % 1007,4 hPa 0,0 l/m 19,3 km/h (3 Bft) N 360 0 min 0,0 UV-I 0 W/m 7,8 C 2,1 C 29,0 km/h (5 Bft)
11.05.2020 00:04 8,9 C 8,9 C 93 % 1007,3 hPa 0,0 l/m 17,7 km/h (3 Bft) N-NW 337 0 min 0,0 UV-I 0 W/m 7,8 C 2,7 C 24,1 km/h (4 Bft)
11.05.2020 00:05 8,9 C 8,9 C 93 % 1007,4 hPa 0,0 l/m 20,9 km/h (4 Bft) N 360 0 min 0,0 UV-I 0 W/m 7,8 C 1,6 C 33,8 km/h (5 Bft)
11.05.2020 00:06 8,9 C 8,9 C 93 % 1007,3 hPa 0,0 l/m 24,1 km/h (4 Bft) N 360 0 min 0,0 UV-I 0 W/m 7,8 C 0,6 C 30,6 km/h (5 Bft)
11.05.2020 00:07 8,8 C 8,9 C 93 % 1007,4 hPa 0,0 l/m 24,1 km/h (4 Bft) N 360 0 min 0,0 UV-I 0 W/m 7,7 C 0,5 C 30,6 km/h (5 Bft)
11.05.2020 00:08 8,7 C 8,9 C 93 % 1007,5 hPa 0,0 l/m 25,7 km/h (4 Bft) N 360 0 min 0,0 UV-I 0 W/m 7,6 C -0,1 C 33,8 km/h (5 Bft)
11.05.2020 00:09 8,7 C 8,9 C 93 % 1007,3 hPa 0,0 l/m 24,1 km/h (4 Bft) N 360 0 min 0,0 UV-I 0 W/m 7,6 C 0,3 C 33,8 km/h (5 Bft)
11.05.2020 00:10 8,7 C 8,3 C 93 % 1007,4 hPa 0,0 l/m 20,9 km/h (4 Bft) N 360 0 min 0,0 UV-I 0 W/m 7,6 C 1,3 C 29,0 km/h (5 Bft)
11.05.2020 00:11 8,7 C 8,3 C 93 % 1007,3 hPa 0,0 l/m 22,5 km/h (4 Bft) N 360 0 min 0,0 UV-I 0 W/m 7,6 C 0,8 C 32,2 km/h (5 Bft)
11.05.2020 00:12 8,6 C 8,3 C 93 % 1007,4 hPa 0,0 l/m 24,1 km/h (4 Bft) N 360 0 min 0,0 UV-I 0 W/m 7,5 C 0,2 C 30,6 km/h (5 Bft)
11.05.2020 00:13 8,6 C 8,3 C 93 % 1007,3 hPa 0,0 l/m 29,0 km/h (5 Bft) N 360 0 min 0,0 UV-I 0 W/m 7,5 C -1,1 C 35,4 km/h (5 Bft)
11.05.2020 00:14 8,6 C 8,3 C 93 % 1007,2 hPa 0,0 l/m 29,0 km/h (5 Bft) N 360 0 min 0,0 UV-I 0 W/m 7,5 C -1,1 C 37,0 km/h (5 Bft)
11.05.2020 00:15 8,4 C 8,3 C 93 % 1007,3 hPa 0,0 l/m 22,5 km/h (4 Bft) N 360 0 min 0,0 UV-I 0 W/m 7,3 C 0,4 C 35,4 km/h (5 Bft)
11.05.2020 00:16 8,4 C 8,3 C 93 % 1007,2 hPa 0,0 l/m 20,9 km/h (4 Bft) N 360 0 min 0,0 UV-I 0 W/m 7,3 C 0,9 C 30,6 km/h (5 Bft)
11.05.2020 00:17 8,4 C 8,3 C 93 % 1007,1 hPa 0,0 l/m 19,3 km/h (3 Bft) N 360 0 min 0,0 UV-I 0 W/m 7,3 C 1,5 C 29,0 km/h (5 Bft)
11.05.2020 00:18 8,4 C 8,3 C 93 % 1007,2 hPa 0,0 l/m 19,3 km/h (3 Bft) N 360 0 min 0,0 UV-I 0 W/m 7,3 C 1,5 C 27,4 km/h (4 Bft)
11.05.2020 00:19 8,3 C 8,3 C 93 % 1007,2 hPa 0,0 l/m 16,1 km/h (3 Bft) N 360 0 min 0,0 UV-I 0 W/m 7,2 C 2,6 C 24,1 km/h (4 Bft)
11.05.2020 00:20 8,3 C 8,3 C 93 % 1007,2 hPa 0,0 l/m 20,9 km/h (4 Bft) N 360 0 min 0,0 UV-I 0 W/m 7,2 C 0,8 C 24,1 km/h (4 Bft)
11.05.2020 00:21 8,3 C 8,3 C 93 % 1007,2 hPa 0,0 l/m 19,3 km/h (3 Bft) N 360 0 min 0,0 UV-I 0 W/m 7,2 C 1,3 C 30,6 km/h (5 Bft)
11.05.2020 00:22 8,3 C 8,3 C 93 % 1007,3 hPa 0,0 l/m 20,9 km/h (4 Bft) N 360 0 min 0,0 UV-I 0 W/m 7,2 C 0,8 C 30,6 km/h (5 Bft)
11.05.2020 00:23 8,3 C 8,3 C 93 % 1007,3 hPa 0,0 l/m 29,0 km/h (5 Bft) N 360 0 min 0,0 UV-I 0 W/m 7,2 C -1,5 C 37,0 km/h (5 Bft)
11.05.2020 00:24 8,2 C 8,3 C 93 % 1007,3 hPa 0,0 l/m 29,0 km/h (5 Bft) N 360 0 min 0,0 UV-I 0 W/m 7,1 C -1,6 C 35,4 km/h (5 Bft)
11.05.2020 00:25 8,1 C 7,8 C 93 % 1007,3 hPa 0,0 l/m 25,7 km/h (4 Bft) N 360 0 min 0,0 UV-I 0 W/m 7,0 C -0,9 C 32,2 km/h (5 Bft)
11.05.2020 00:26 8,1 C 7,8 C 93 % 1007,3 hPa 0,0 l/m 22,5 km/h (4 Bft) N 360 0 min 0,0 UV-I 0 W/m 7,0 C 0,0 C 30,6 km/h (5 Bft)
11.05.2020 00:27 8,0 C 7,8 C 93 % 1007,3 hPa 0,0 l/m 24,1 km/h (4 Bft) N 360 0 min 0,0 UV-I 0 W/m 6,9 C -0,6 C 33,8 km/h (5 Bft)
11.05.2020 00:28 8,0 C 7,8 C 94 % 1007,2 hPa 0,0 l/m 29,0 km/h (5 Bft) N-NW 337 0 min 0,0 UV-I 0 W/m 7,1 C -1,9 C 32,2 km/h (5 Bft)
11.05.2020 00:29 7,9 C 7,8 C 94 % 1007,3 hPa 0,0 l/m 22,5 km/h (4 Bft) N 360 0 min 0,0 UV-I 0 W/m 7,0 C -0,3 C 29,0 km/h (5 Bft)
11.05.2020 00:30 7,9 C 7,8 C 93 % 1007,4 hPa 0,0 l/m 22,5 km/h (4 Bft) N 360 0 min 0,0 UV-I 0 W/m 6,8 C -0,3 C 29,0 km/h (5 Bft)
11.05.2020 00:31 7,9 C 7,8 C 93 % 1007,5 hPa 0,0 l/m 27,4 km/h (4 Bft) N 360 0 min 0,0 UV-I 0 W/m 6,8 C -1,7 C 32,2 km/h (5 Bft)
11.05.2020 00:32 7,9 C 7,8 C 93 % 1007,4 hPa 0,0 l/m 20,9 km/h (4 Bft) N 360 0 min 0,0 UV-I 0 W/m 6,8 C 0,3 C 27,4 km/h (4 Bft)
11.05.2020 00:33 7,8 C 7,8 C 94 % 1007,3 hPa 0,0 l/m 19,3 km/h (3 Bft) N 360 0 min 0,0 UV-I 0 W/m 6,9 C 0,7 C 27,4 km/h (4 Bft)
11.05.2020 00:34 7,8 C 7,8 C 94 % 1007,3 hPa 0,0 l/m 16,1 km/h (3 Bft) N-NO 22 0 min 0,0 UV-I 0 W/m 6,9 C 2,0 C 22,5 km/h (4 Bft)
11.05.2020 00:35 7,8 C 7,8 C 94 % 1007,4 hPa 0,0 l/m 20,9 km/h (4 Bft) N 360 0 min 0,0 UV-I 0 W/m 6,9 C 0,1 C 27,4 km/h (4 Bft)
11.05.2020 00:36 7,8 C 7,8 C 94 % 1007,5 hPa 0,0 l/m 20,9 km/h (4 Bft) N 360 0 min 0,0 UV-I 0 W/m 6,9 C 0,1 C 30,6 km/h (5 Bft)
11.05.2020 00:37 7,8 C 7,8 C 94 % 1007,5 hPa 0,0 l/m 27,4 km/h (4 Bft) N 360 0 min 0,0 UV-I 0 W/m 6,9 C -1,8 C 33,8 km/h (5 Bft)
11.05.2020 00:38 7,7 C 7,8 C 94 % 1007,5 hPa 0,0 l/m 17,7 km/h (3 Bft) N 360 0 min 0,0 UV-I 0 W/m 6,8 C 1,2 C 22,5 km/h (4 Bft)
11.05.2020 00:39 7,7 C 7,8 C 94 % 1007,6 hPa 0,0 l/m 20,9 km/h (4 Bft) N-NW 337 0 min 0,0 UV-I 0 W/m 6,8 C 0,0 C 35,4 km/h (5 Bft)
11.05.2020 00:40 7,7 C 7,8 C 94 % 1007,6 hPa 0,0 l/m 19,3 km/h (3 Bft) N 360 0 min 0,0 UV-I 0 W/m 6,8 C 0,6 C 27,4 km/h (4 Bft)
11.05.2020 00:41 7,7 C 7,8 C 94 % 1007,7 hPa 0,0 l/m 24,1 km/h (4 Bft) N 360 0 min 0,0 UV-I 0 W/m 6,8 C -1,0 C 33,8 km/h (5 Bft)
11.05.2020 00:42 7,6 C 7,8 C 94 % 1007,6 hPa 0,0 l/m 24,1 km/h (4 Bft) N 360 0 min 0,0 UV-I 0 W/m 6,7 C -1,2 C 37,0 km/h (5 Bft)
11.05.2020 00:43 7,6 C 7,8 C 94 % 1007,7 hPa 0,0 l/m 19,3 km/h (3 Bft) N 360 0 min 0,0 UV-I 0 W/m 6,7 C 0,4 C 30,6 km/h (5 Bft)
11.05.2020 00:44 7,6 C 7,8 C 94 % 1007,7 hPa 0,0 l/m 17,7 km/h (3 Bft) N 360 0 min 0,0 UV-I 0 W/m 6,7 C 1,1 C 20,9 km/h (4 Bft)
11.05.2020 00:45 7,6 C 7,8 C 94 % 1007,7 hPa 0,0 l/m 12,9 km/h (3 Bft) N-NO 22 0 min 0,0 UV-I 0 W/m 6,7 C 3,3 C 22,5 km/h (4 Bft)
11.05.2020 00:46 7,5 C 7,2 C 94 % 1007,6 hPa 0,0 l/m 12,9 km/h (3 Bft) N-NO 22 0 min 0,0 UV-I 0 W/m 6,6 C 3,1 C 24,1 km/h (4 Bft)
11.05.2020 00:47 7,5 C 7,2 C 94 % 1007,7 hPa 0,0 l/m 17,7 km/h (3 Bft) N 360 0 min 0,0 UV-I 0 W/m 6,6 C 0,9 C 25,7 km/h (4 Bft)
11.05.2020 00:48 7,4 C 7,8 C 94 % 1007,9 hPa 0,0 l/m 17,7 km/h (3 Bft) N 360 0 min 0,0 UV-I 0 W/m 6,5 C 0,8 C 27,4 km/h (4 Bft)
11.05.2020 00:49 7,4 C 7,2 C 94 % 1007,8 hPa 0,0 l/m 17,7 km/h (3 Bft) N 360 0 min 0,0 UV-I 0 W/m 6,5 C 0,8 C 32,2 km/h (5 Bft)
11.05.2020 00:50 7,4 C 7,2 C 94 % 1007,7 hPa 0,0 l/m 12,9 km/h (3 Bft) N-NO 22 0 min 0,0 UV-I 0 W/m 6,5 C 3,0 C 20,9 km/h (4 Bft)
11.05.2020 00:51 7,4 C 7,2 C 94 % 1007,8 hPa 0,0 l/m 20,9 km/h (4 Bft) N-NO 22 0 min 0,0 UV-I 0 W/m 6,5 C -0,4 C 29,0 km/h (5 Bft)
11.05.2020 00:52 7,4 C 7,2 C 94 % 1007,7 hPa 0,0 l/m 19,3 km/h (3 Bft) N 360 0 min 0,0 UV-I 0 W/m 6,5 C 0,2 C 25,7 km/h (4 Bft)
11.05.2020 00:53 7,3 C 7,2 C 94 % 1007,8 hPa 0,0 l/m 19,3 km/h (3 Bft) N 360 0 min 0,0 UV-I 0 W/m 6,4 C 0,1 C 33,8 km/h (5 Bft)
11.05.2020 00:54 7,3 C 7,2 C 94 % 1007,8 hPa 0,0 l/m 9,7 km/h (2 Bft) N 360 0 min 0,0 UV-I 0 W/m 6,4 C 4,8 C 22,5 km/h (4 Bft)
11.05.2020 00:55 7,3 C 7,2 C 94 % 1007,7 hPa 0,0 l/m 19,3 km/h (3 Bft) N 360 0 min 0,0 UV-I 0 W/m 6,4 C 0,1 C 25,7 km/h (4 Bft)
11.05.2020 00:56 7,3 C 7,2 C 94 % 1007,7 hPa 0,0 l/m 12,9 km/h (3 Bft) N 360 0 min 0,0 UV-I 0 W/m 6,4 C 2,9 C 24,1 km/h (4 Bft)
11.05.2020 00:57 7,3 C 7,2 C 94 % 1007,8 hPa 0,0 l/m 27,4 km/h (4 Bft) N 360 0 min 0,0 UV-I 0 W/m 6,4 C -2,5 C 30,6 km/h (5 Bft)
11.05.2020 00:58 7,3 C 7,2 C 94 % 1007,7 hPa 0,0 l/m 20,9 km/h (4 Bft) N 360 0 min 0,0 UV-I 0 W/m 6,4 C -0,5 C 27,4 km/h (4 Bft)
11.05.2020 00:59 7,2 C 7,2 C 94 % 1007,7 hPa 0,0 l/m 14,5 km/h (3 Bft) N 360 0 min 0,0 UV-I 0 W/m 6,3 C 2,0 C 24,1 km/h (4 Bft)
11.05.2020 01:00 7,2 C 7,2 C 94 % 1007,6 hPa 0,0 l/m 16,1 km/h (3 Bft) N 360 0 min 0,0 UV-I 0 W/m 6,3 C 1,2 C 22,5 km/h (4 Bft)
11.05.2020 01:01 7,2 C 7,2 C 94 % 1007,7 hPa 0,0 l/m 12,9 km/h (3 Bft) N 360 0 min 0,0 UV-I 0 W/m 6,3 C 2,8 C 20,9 km/h (4 Bft)
11.05.2020 01:02 7,2 C 7,2 C 94 % 1007,6 hPa 0,0 l/m 14,5 km/h (3 Bft) N-NO 22 0 min 0,0 UV-I 0 W/m 6,3 C 2,0 C 25,7 km/h (4 Bft)
11.05.2020 01:03 7,2 C 7,2 C 94 % 1007,6 hPa 0,0 l/m 19,3 km/h (3 Bft) N 360 0 min 0,0 UV-I 0 W/m 6,3 C -0,1 C 24,1 km/h (4 Bft)
11.05.2020 01:04 7,2 C 7,2 C 94 % 1007,7 hPa 0,0 l/m 12,9 km/h (3 Bft) N 360 0 min 0,0 UV-I 0 W/m 6,3 C 2,8 C 20,9 km/h (4 Bft)
11.05.2020 01:05 7,2 C 7,2 C 94 % 1007,7 hPa 0,0 l/m 19,3 km/h (3 Bft) N 360 0 min 0,0 UV-I 0 W/m 6,3 C -0,1 C 24,1 km/h (4 Bft)
11.05.2020 01:06 7,2 C 7,2 C 94 % 1007,5 hPa 0,0 l/m 17,7 km/h (3 Bft) N-NO 22 0 min 0,0 UV-I 0 W/m 6,3 C 0,6 C 30,6 km/h (5 Bft)
11.05.2020 01:07 7,2 C 7,2 C 94 % 1007,6 hPa 0,0 l/m 14,5 km/h (3 Bft) N 360 0 min 0,0 UV-I 0 W/m 6,3 C 2,0 C 17,7 km/h (3 Bft)
11.05.2020 01:08 7,1 C 7,2 C 94 % 1007,6 hPa 0,0 l/m 16,1 km/h (3 Bft) N 360 0 min 0,0 UV-I 0 W/m 6,2 C 1,1 C 24,1 km/h (4 Bft)
11.05.2020 01:09 7,1 C 7,2 C 94 % 1007,6 hPa 0,0 l/m 20,9 km/h (4 Bft) N 360 0 min 0,0 UV-I 0 W/m 6,2 C -0,8 C 25,7 km/h (4 Bft)
11.05.2020 01:10 7,1 C 7,2 C 94 % 1007,7 hPa 0,0 l/m 17,7 km/h (3 Bft) N 360 0 min 0,0 UV-I 0 W/m 6,2 C 0,4 C 27,4 km/h (4 Bft)
11.05.2020 01:11 7,1 C 7,2 C 94 % 1007,6 hPa 0,0 l/m 22,5 km/h (4 Bft) N 360 0 min 0,0 UV-I 0 W/m 6,2 C -1,3 C 27,4 km/h (4 Bft)
11.05.2020 01:12 7,0 C 7,2 C 94 % 1007,5 hPa 0,0 l/m 19,3 km/h (3 Bft) N 360 0 min 0,0 UV-I 0 W/m 6,1 C -0,3 C 27,4 km/h (4 Bft)
11.05.2020 01:13 7,0 C 7,2 C 94 % 1007,7 hPa 0,0 l/m 20,9 km/h (4 Bft) N 360 0 min 0,0 UV-I 0 W/m 6,1 C -0,9 C 29,0 km/h (5 Bft)
11.05.2020 01:14 6,9 C 6,7 C 94 % 1007,6 hPa 0,0 l/m 22,5 km/h (4 Bft) N 360 0 min 0,0 UV-I 0 W/m 6,0 C -1,6 C 27,4 km/h (4 Bft)
11.05.2020 01:15 6,9 C 6,7 C 94 % 1007,7 hPa 0,0 l/m 17,7 km/h (3 Bft) N 360 0 min 0,0 UV-I 0 W/m 6,0 C 0,2 C 22,5 km/h (4 Bft)
11.05.2020 01:16 6,9 C 6,7 C 94 % 1007,7 hPa 0,0 l/m 20,9 km/h (4 Bft) N 360 0 min 0,0 UV-I 0 W/m 6,0 C -1,0 C 29,0 km/h (5 Bft)
11.05.2020 01:17 6,8 C 6,7 C 94 % 1007,6 hPa 0,0 l/m 16,1 km/h (3 Bft) N 360 0 min 0,0 UV-I 0 W/m 5,9 C 0,7 C 24,1 km/h (4 Bft)
11.05.2020 01:18 6,8 C 6,7 C 94 % 1007,7 hPa 0,0 l/m 17,7 km/h (3 Bft) N 360 0 min 0,0 UV-I 0 W/m 5,9 C 0,1 C 25,7 km/h (4 Bft)
11.05.2020 01:19 6,8 C 6,7 C 94 % 1007,6 hPa 0,0 l/m 19,3 km/h (3 Bft) N 360 0 min 0,0 UV-I 0 W/m 5,9 C -0,6 C 29,0 km/h (5 Bft)
11.05.2020 01:20 6,8 C 6,7 C 94 % 1007,6 hPa 0,0 l/m 24,1 km/h (4 Bft) N 360 0 min 0,0 UV-I 0 W/m 5,9 C -2,2 C 29,0 km/h (5 Bft)
11.05.2020 01:21 6,8 C 6,7 C 94 % 1007,6 hPa 0,0 l/m 22,5 km/h (4 Bft) N-NW 337 0 min 0,0 UV-I 0 W/m 5,9 C -1,7 C 29,0 km/h (5 Bft)
11.05.2020 01:22 6,8 C 6,7 C 94 % 1007,7 hPa 0,0 l/m 17,7 km/h (3 Bft) N 360 0 min 0,0 UV-I 0 W/m 5,9 C 0,1 C 22,5 km/h (4 Bft)
11.05.2020 01:23 6,7 C 6,7 C 94 % 1007,7 hPa 0,0 l/m 16,1 km/h (3 Bft) N 360 0 min 0,0 UV-I 0 W/m 5,8 C 0,6 C 24,1 km/h (4 Bft)
11.05.2020 01:24 6,7 C 6,7 C 94 % 1007,7 hPa 0,0 l/m 16,1 km/h (3 Bft) N 360 0 min 0,0 UV-I 0 W/m 5,8 C 0,6 C 32,2 km/h (5 Bft)
11.05.2020 01:25 6,7 C 6,7 C 94 % 1007,7 hPa 0,0 l/m 19,3 km/h (3 Bft) N 360 0 min 0,0 UV-I 0 W/m 5,8 C -0,7 C 30,6 km/h (5 Bft)
11.05.2020 01:26 6,7 C 6,7 C 94 % 1007,8 hPa 0,0 l/m 14,5 km/h (3 Bft) NO 45 0 min 0,0 UV-I 0 W/m 5,8 C 1,4 C 29,0 km/h (5 Bft)
11.05.2020 01:27 6,7 C 6,7 C 94 % 1007,6 hPa 0,0 l/m 29,0 km/h (5 Bft) N-NW 337 0 min 0,0 UV-I 0 W/m 5,8 C -3,7 C 40,2 km/h (6 Bft)
11.05.2020 01:28 6,6 C 6,7 C 94 % 1007,8 hPa 0,0 l/m 25,7 km/h (4 Bft) N 360 0 min 0,0 UV-I 0 W/m 5,7 C -3,0 C 30,6 km/h (5 Bft)
11.05.2020 01:29 6,6 C 6,7 C 94 % 1007,8 hPa 0,0 l/m 12,9 km/h (3 Bft) N-NO 22 0 min 0,0 UV-I 0 W/m 5,7 C 2,1 C 19,3 km/h (3 Bft)
11.05.2020 01:30 6,6 C 6,7 C 94 % 1007,7 hPa 0,0 l/m 27,4 km/h (4 Bft) N 360 0 min 0,0 UV-I 0 W/m 5,7 C -3,5 C 35,4 km/h (5 Bft)
11.05.2020 01:31 6,5 C 6,7 C 94 % 1007,7 hPa 0,0 l/m 22,5 km/h (4 Bft) N 360 0 min 0,0 UV-I 0 W/m 5,6 C -2,1 C 29,0 km/h (5 Bft)
11.05.2020 01:32 6,4 C 6,7 C 94 % 1007,6 hPa 0,0 l/m 22,5 km/h (4 Bft) N 360 0 min 0,0 UV-I 0 W/m 5,5 C -2,3 C 27,4 km/h (4 Bft)
11.05.2020 01:33 6,4 C 6,7 C 94 % 1007,7 hPa 0,0 l/m 16,1 km/h (3 Bft) N 360 0 min 0,0 UV-I 0 W/m 5,5 C 0,3 C 22,5 km/h (4 Bft)
11.05.2020 01:34 6,4 C 6,7 C 94 % 1007,7 hPa 0,0 l/m 11,3 km/h (2 Bft) N 360 0 min 0,0 UV-I 0 W/m 5,5 C 2,8 C 16,1 km/h (3 Bft)
11.05.2020 01:35 6,4 C 6,7 C 94 % 1007,7 hPa 0,0 l/m 14,5 km/h (3 Bft) N 360 0 min 0,0 UV-I 0 W/m 5,5 C 1,0 C 19,3 km/h (3 Bft)
11.05.2020 01:36 6,4 C 6,7 C 94 % 1007,7 hPa 0,0 l/m 17,7 km/h (3 Bft) N 360 0 min 0,0 UV-I 0 W/m 5,5 C -0,4 C 29,0 km/h (5 Bft)
11.05.2020 01:37 6,4 C 6,1 C 94 % 1007,7 hPa 0,0 l/m 19,3 km/h (3 Bft) N 360 0 min 0,0 UV-I 0 W/m 5,5 C -1,1 C 27,4 km/h (4 Bft)
11.05.2020 01:38 6,3 C 6,1 C 94 % 1007,7 hPa 0,0 l/m 19,3 km/h (3 Bft) N 360 0 min 0,0 UV-I 0 W/m 5,4 C -1,2 C 32,2 km/h (5 Bft)
11.05.2020 01:39 6,3 C 6,1 C 94 % 1007,7 hPa 0,0 l/m 20,9 km/h (4 Bft) N 360 0 min 0,0 UV-I 0 W/m 5,4 C -1,8 C 29,0 km/h (5 Bft)
11.05.2020 01:40 6,3 C 6,1 C 94 % 1007,7 hPa 0,0 l/m 17,7 km/h (3 Bft) N 360 0 min 0,0 UV-I 0 W/m 5,4 C -0,6 C 29,0 km/h (5 Bft)
11.05.2020 01:41 6,3 C 6,1 C 94 % 1007,7 hPa 0,0 l/m 19,3 km/h (3 Bft) N 360 0 min 0,0 UV-I 0 W/m 5,4 C -1,2 C 25,7 km/h (4 Bft)
11.05.2020 01:42 6,2 C 6,1 C 94 % 1007,7 hPa 0,0 l/m 20,9 km/h (4 Bft) N-NO 22 0 min 0,0 UV-I 0 W/m 5,3 C -2,0 C 27,4 km/h (4 Bft)
11.05.2020 01:43 6,2 C 6,1 C 95 % 1007,7 hPa 0,0 l/m 22,5 km/h (4 Bft) N 360 0 min 0,0 UV-I 0 W/m 5,5 C -2,5 C 37,0 km/h (5 Bft)
11.05.2020 01:44 6,2 C 6,1 C 95 % 1007,7 hPa 0,0 l/m 24,1 km/h (4 Bft) N 360 0 min 0,0 UV-I 0 W/m 5,5 C -3,0 C 35,4 km/h (5 Bft)
11.05.2020 01:45 6,2 C 6,1 C 95 % 1007,7 hPa 0,0 l/m 16,1 km/h (3 Bft) N-NO 22 0 min 0,0 UV-I 0 W/m 5,5 C 0,0 C 25,7 km/h (4 Bft)
11.05.2020 01:46 6,2 C 6,1 C 94 % 1007,6 hPa 0,0 l/m 19,3 km/h (3 Bft) N-NW 337 0 min 0,0 UV-I 0 W/m 5,3 C -1,4 C 27,4 km/h (4 Bft)
11.05.2020 01:47 6,1 C 6,1 C 94 % 1007,8 hPa 0,0 l/m 9,7 km/h (2 Bft) N-NO 22 0 min 0,0 UV-I 0 W/m 5,2 C 3,5 C 17,7 km/h (3 Bft)
11.05.2020 01:48 6,1 C 6,1 C 94 % 1007,7 hPa 0,0 l/m 9,7 km/h (2 Bft) N-NO 22 0 min 0,0 UV-I 0 W/m 5,2 C 3,5 C 20,9 km/h (4 Bft)
11.05.2020 01:49 6,1 C 6,1 C 95 % 1007,7 hPa 0,0 l/m 14,5 km/h (3 Bft) N 360 0 min 0,0 UV-I 0 W/m 5,4 C 0,7 C 22,5 km/h (4 Bft)
11.05.2020 01:50 6,1 C 6,1 C 95 % 1007,7 hPa 0,0 l/m 16,1 km/h (3 Bft) N-NO 22 0 min 0,0 UV-I 0 W/m 5,4 C -0,1 C 24,1 km/h (4 Bft)
11.05.2020 01:51 6,1 C 6,1 C 95 % 1007,7 hPa 0,0 l/m 24,1 km/h (4 Bft) N-NW 337 0 min 0,0 UV-I 0 W/m 5,4 C -3,2 C 30,6 km/h (5 Bft)
11.05.2020 01:52 6,1 C 6,1 C 94 % 1007,8 hPa 0,0 l/m 30,6 km/h (5 Bft) N 360 0 min 0,0 UV-I 0 W/m 5,2 C -5,0 C 38,6 km/h (5 Bft)
11.05.2020 01:53 6,0 C 6,1 C 94 % 1007,8 hPa 0,0 l/m 24,1 km/h (4 Bft) N-NO 22 0 min 0,0 UV-I 0 W/m 5,1 C -3,3 C 33,8 km/h (5 Bft)
11.05.2020 01:54 5,9 C 6,1 C 95 % 1007,7 hPa 0,0 l/m 19,3 km/h (3 Bft) N-NW 337 0 min 0,0 UV-I 0 W/m 5,2 C -1,7 C 27,4 km/h (4 Bft)
11.05.2020 01:55 5,9 C 6,1 C 95 % 1007,7 hPa 0,0 l/m 19,3 km/h (3 Bft) N 360 0 min 0,0 UV-I 0 W/m 5,2 C -1,7 C 25,7 km/h (4 Bft)
11.05.2020 01:56 5,9 C 6,1 C 95 % 1007,7 hPa 0,0 l/m 17,7 km/h (3 Bft) N 360 0 min 0,0 UV-I 0 W/m 5,2 C -1,1 C 24,1 km/h (4 Bft)
11.05.2020 01:57 5,8 C 6,1 C 95 % 1007,7 hPa 0,0 l/m 27,4 km/h (4 Bft) N 360 0 min 0,0 UV-I 0 W/m 5,1 C -4,6 C 32,2 km/h (5 Bft)
11.05.2020 01:58 5,8 C 6,1 C 95 % 1007,7 hPa 0,0 l/m 19,3 km/h (3 Bft) N-NO 22 0 min 0,0 UV-I 0 W/m 5,1 C -1,9 C 27,4 km/h (4 Bft)
11.05.2020 01:59 5,8 C 5,6 C 95 % 1007,8 hPa 0,0 l/m 20,9 km/h (4 Bft) N 360 0 min 0,0 UV-I 0 W/m 5,1 C -2,5 C 27,4 km/h (4 Bft)
11.05.2020 02:00 5,7 C 5,6 C 94 % 1007,7 hPa 0,0 l/m 24,1 km/h (4 Bft) N 360 0 min 0,0 UV-I 0 W/m 4,8 C -3,7 C 30,6 km/h (5 Bft)
11.05.2020 02:01 5,7 C 5,6 C 94 % 1007,8 hPa 0,0 l/m 27,4 km/h (4 Bft) N 360 0 min 0,0 UV-I 0 W/m 4,8 C -4,7 C 32,2 km/h (5 Bft)
11.05.2020 02:02 5,7 C 5,6 C 94 % 1007,7 hPa 0,0 l/m 24,1 km/h (4 Bft) N 360 0 min 0,0 UV-I 0 W/m 4,8 C -3,7 C 29,0 km/h (5 Bft)
11.05.2020 02:03 5,6 C 5,6 C 95 % 1007,8 hPa 0,0 l/m 14,5 km/h (3 Bft) N-NO 22 0 min 0,0 UV-I 0 W/m 4,9 C 0,1 C 20,9 km/h (4 Bft)
11.05.2020 02:04 5,6 C 5,6 C 95 % 1007,8 hPa 0,0 l/m 12,9 km/h (3 Bft) N 360 0 min 0,0 UV-I 0 W/m 4,9 C 0,9 C 20,9 km/h (4 Bft)
11.05.2020 02:05 5,6 C 5,6 C 95 % 1007,7 hPa 0,0 l/m 24,1 km/h (4 Bft) N-NO 22 0 min 0,0 UV-I 0 W/m 4,9 C -3,8 C 30,6 km/h (5 Bft)
11.05.2020 02:06 5,6 C 5,6 C 95 % 1007,7 hPa 0,0 l/m 19,3 km/h (3 Bft) N-NO 22 0 min 0,0 UV-I 0 W/m 4,9 C -2,1 C 27,4 km/h (4 Bft)
11.05.2020 02:07 5,6 C 5,6 C 95 % 1007,6 hPa 0,0 l/m 12,9 km/h (3 Bft) N-NO 22 0 min 0,0 UV-I 0 W/m 4,9 C 0,9 C 20,9 km/h (4 Bft)
11.05.2020 02:08 5,6 C 5,6 C 95 % 1007,6 hPa 0,0 l/m 12,9 km/h (3 Bft) N-NO 22 0 min 0,0 UV-I 0 W/m 4,9 C 0,9 C 20,9 km/h (4 Bft)
11.05.2020 02:09 5,6 C 5,6 C 95 % 1007,7 hPa 0,0 l/m 14,5 km/h (3 Bft) N-NO 22 0 min 0,0 UV-I 0 W/m 4,9 C 0,1 C 20,9 km/h (4 Bft)
11.05.2020 02:10 5,6 C 5,6 C 95 % 1007,6 hPa 0,0 l/m 14,5 km/h (3 Bft) N-NW 337 0 min 0,0 UV-I 0 W/m 4,9 C 0,1 C 25,7 km/h (4 Bft)
11.05.2020 02:11 5,6 C 5,6 C 95 % 1007,6 hPa 0,0 l/m 12,9 km/h (3 Bft) N 360 0 min 0,0 UV-I 0 W/m 4,9 C 0,9 C 27,4 km/h (4 Bft)
11.05.2020 02:12 5,6 C 5,6 C 95 % 1007,6 hPa 0,0 l/m 16,1 km/h (3 Bft) N 360 0 min 0,0 UV-I 0 W/m 4,9 C -0,7 C 24,1 km/h (4 Bft)
11.05.2020 02:13 5,6 C 5,6 C 95 % 1007,6 hPa 0,0 l/m 19,3 km/h (3 Bft) N 360 0 min 0,0 UV-I 0 W/m 4,9 C -2,1 C 25,7 km/h (4 Bft)
11.05.2020 02:14 5,5 C 5,6 C 95 % 1007,6 hPa 0,0 l/m 14,5 km/h (3 Bft) N-NO 22 0 min 0,0 UV-I 0 W/m 4,8 C -0,1 C 20,9 km/h (4 Bft)
11.05.2020 02:15 5,5 C 5,6 C 95 % 1007,6 hPa 0,0 l/m 20,9 km/h (4 Bft) N 360 0 min 0,0 UV-I 0 W/m 4,8 C -2,9 C 35,4 km/h (5 Bft)
11.05.2020 02:16 5,4 C 5,6 C 95 % 1007,6 hPa 0,0 l/m 27,4 km/h (4 Bft) N 360 0 min 0,0 UV-I 0 W/m 4,7 C -5,1 C 35,4 km/h (5 Bft)
11.05.2020 02:17 5,3 C 5,6 C 94 % 1007,5 hPa 0,0 l/m 30,6 km/h (5 Bft) N 360 0 min 0,0 UV-I 0 W/m 4,4 C -6,1 C 37,0 km/h (5 Bft)
11.05.2020 02:18 5,3 C 5,6 C 94 % 1007,6 hPa 0,0 l/m 29,0 km/h (5 Bft) N 360 0 min 0,0 UV-I 0 W/m 4,4 C -5,7 C 37,0 km/h (5 Bft)
11.05.2020 02:19 5,3 C 5,6 C 94 % 1007,6 hPa 0,0 l/m 25,7 km/h (4 Bft) N 360 0 min 0,0 UV-I 0 W/m 4,4 C -4,8 C 35,4 km/h (5 Bft)
11.05.2020 02:20 5,2 C 5,6 C 94 % 1007,6 hPa 0,0 l/m 25,7 km/h (4 Bft) N-NW 337 0 min 0,0 UV-I 0 W/m 4,3 C -4,9 C 40,2 km/h (6 Bft)
11.05.2020 02:21 5,2 C 5,0 C 95 % 1007,4 hPa 0,0 l/m 24,1 km/h (4 Bft) N 360 0 min 0,0 UV-I 0 W/m 4,5 C -4,4 C 35,4 km/h (5 Bft)
11.05.2020 02:22 5,1 C 5,0 C 95 % 1007,6 hPa 0,0 l/m 29,0 km/h (5 Bft) N 360 0 min 0,0 UV-I 0 W/m 4,4 C -6,0 C 38,6 km/h (5 Bft)
11.05.2020 02:23 5,1 C 5,0 C 95 % 1007,6 hPa 0,0 l/m 29,0 km/h (5 Bft) N 360 0 min 0,0 UV-I 0 W/m 4,4 C -6,0 C 33,8 km/h (5 Bft)
11.05.2020 02:24 5,0 C 5,0 C 94 % 1007,6 hPa 0,0 l/m 32,2 km/h (5 Bft) N 360 0 min 0,0 UV-I 0 W/m 4,1 C -6,9 C 40,2 km/h (6 Bft)
11.05.2020 02:25 4,9 C 5,0 C 94 % 1007,5 hPa 0,0 l/m 20,9 km/h (4 Bft) N 360 0 min 0,0 UV-I 0 W/m 4,0 C -3,7 C 32,2 km/h (5 Bft)
11.05.2020 02:26 4,9 C 5,0 C 94 % 1007,5 hPa 0,0 l/m 19,3 km/h (3 Bft) N 360 0 min 0,0 UV-I 0 W/m 4,0 C -3,0 C 25,7 km/h (4 Bft)
11.05.2020 02:27 4,9 C 5,0 C 95 % 1007,5 hPa 0,0 l/m 16,1 km/h (3 Bft) N 360 0 min 0,0 UV-I 0 W/m 4,2 C -1,6 C 25,7 km/h (4 Bft)
11.05.2020 02:28 4,9 C 5,0 C 95 % 1007,5 hPa 0,0 l/m 12,9 km/h (3 Bft) N 360 0 min 0,0 UV-I 0 W/m 4,2 C 0,1 C 24,1 km/h (4 Bft)
11.05.2020 02:29 4,8 C 5,0 C 95 % 1007,6 hPa 0,0 l/m 11,3 km/h (2 Bft) N 360 0 min 0,0 UV-I 0 W/m 4,1 C 1,0 C 24,1 km/h (4 Bft)
11.05.2020 02:30 4,9 C 5,0 C 95 % 1007,6 hPa 0,0 l/m 17,7 km/h (3 Bft) N 360 0 min 0,0 UV-I 0 W/m 4,2 C -2,3 C 30,6 km/h (5 Bft)
11.05.2020 02:31 4,8 C 5,0 C 95 % 1007,6 hPa 0,0 l/m 30,6 km/h (5 Bft) N 360 0 min 0,0 UV-I 0 W/m 4,1 C -6,8 C 37,0 km/h (5 Bft)
11.05.2020 02:32 4,8 C 5,0 C 94 % 1007,6 hPa 0,0 l/m 20,9 km/h (4 Bft) N-NO 22 0 min 0,0 UV-I 0 W/m 3,9 C -3,8 C 29,0 km/h (5 Bft)
11.05.2020 02:33 4,8 C 5,0 C 94 % 1007,6 hPa 0,0 l/m 12,9 km/h (3 Bft) N 360 0 min 0,0 UV-I 0 W/m 3,9 C -0,0 C 25,7 km/h (4 Bft)
11.05.2020 02:34 4,8 C 5,0 C 94 % 1007,5 hPa 0,0 l/m 22,5 km/h (4 Bft) N 360 0 min 0,0 UV-I 0 W/m 3,9 C -4,4 C 38,6 km/h (5 Bft)
11.05.2020 02:35 4,7 C 5,0 C 95 % 1007,5 hPa 0,0 l/m 29,0 km/h (5 Bft) N 360 0 min 0,0 UV-I 0 W/m 4,0 C -6,5 C 35,4 km/h (5 Bft)
11.05.2020 02:36 4,7 C 5,0 C 94 % 1007,5 hPa 0,0 l/m 30,6 km/h (5 Bft) N 360 0 min 0,0 UV-I 0 W/m 3,8 C -7,0 C 41,8 km/h (6 Bft)
11.05.2020 02:37 4,7 C 5,0 C 94 % 1007,5 hPa 0,0 l/m 32,2 km/h (5 Bft) N 360 0 min 0,0 UV-I 0 W/m 3,8 C -7,3 C 41,8 km/h (6 Bft)
11.05.2020 02:38 4,6 C 4,4 C 95 % 1007,5 hPa 0,0 l/m 20,9 km/h (4 Bft) N 360 0 min 0,0 UV-I 0 W/m 3,9 C -4,0 C 27,4 km/h (4 Bft)
11.05.2020 02:39 4,6 C 5,0 C 95 % 1007,5 hPa 0,0 l/m 29,0 km/h (5 Bft) N 360 0 min 0,0 UV-I 0 W/m 3,9 C -6,7 C 43,5 km/h (6 Bft)
11.05.2020 02:40 4,6 C 4,4 C 95 % 1007,4 hPa 0,0 l/m 30,6 km/h (5 Bft) N 360 0 min 0,0 UV-I 0 W/m 3,9 C -7,1 C 43,5 km/h (6 Bft)
11.05.2020 02:41 4,6 C 4,4 C 95 % 1007,5 hPa 0,0 l/m 25,7 km/h (4 Bft) N 360 0 min 0,0 UV-I 0 W/m 3,9 C -5,7 C 33,8 km/h (5 Bft)
11.05.2020 02:42 4,6 C 4,4 C 95 % 1007,5 hPa 0,0 l/m 20,9 km/h (4 Bft) N 360 0 min 0,0 UV-I 0 W/m 3,9 C -4,0 C 27,4 km/h (4 Bft)
11.05.2020 02:43 4,5 C 4,4 C 95 % 1007,4 hPa 0,0 l/m 24,1 km/h (4 Bft) N-NW 337 0 min 0,0 UV-I 0 W/m 3,8 C -5,3 C 35,4 km/h (5 Bft)
11.05.2020 02:44 4,5 C 4,4 C 95 % 1007,5 hPa 0,0 l/m 24,1 km/h (4 Bft) N 360 0 min 0,0 UV-I 0 W/m 3,8 C -5,3 C 32,2 km/h (5 Bft)
11.05.2020 02:45 4,5 C 4,4 C 95 % 1007,5 hPa 0,0 l/m 22,5 km/h (4 Bft) N 360 0 min 0,0 UV-I 0 W/m 3,8 C -4,8 C 27,4 km/h (4 Bft)
11.05.2020 02:46 4,5 C 4,4 C 95 % 1007,5 hPa 0,0 l/m 17,7 km/h (3 Bft) N-NO 22 0 min 0,0 UV-I 0 W/m 3,8 C -2,8 C 27,4 km/h (4 Bft)
11.05.2020 02:47 4,4 C 4,4 C 95 % 1007,5 hPa 0,0 l/m 22,5 km/h (4 Bft) N 360 0 min 0,0 UV-I 0 W/m 3,7 C -4,9 C 35,4 km/h (5 Bft)
11.05.2020 02:48 4,4 C 4,4 C 95 % 1007,5 hPa 0,0 l/m 19,3 km/h (3 Bft) N 360 0 min 0,0 UV-I 0 W/m 3,7 C -3,7 C 27,4 km/h (4 Bft)
11.05.2020 02:49 4,4 C 4,4 C 95 % 1007,3 hPa 0,0 l/m 19,3 km/h (3 Bft) N 360 0 min 0,0 UV-I 0 W/m 3,7 C -3,7 C 25,7 km/h (4 Bft)
11.05.2020 02:50 4,4 C 4,4 C 95 % 1007,5 hPa 0,0 l/m 24,1 km/h (4 Bft) N 360 0 min 0,0 UV-I 0 W/m 3,7 C -5,5 C 29,0 km/h (5 Bft)
11.05.2020 02:51 4,4 C 4,4 C 95 % 1007,5 hPa 0,0 l/m 14,5 km/h (3 Bft) N 360 0 min 0,0 UV-I 0 W/m 3,7 C -1,4 C 27,4 km/h (4 Bft)
11.05.2020 02:52 4,4 C 4,4 C 95 % 1007,4 hPa 0,0 l/m 20,9 km/h (4 Bft) N 360 0 min 0,0 UV-I 0 W/m 3,7 C -4,3 C 35,4 km/h (5 Bft)
11.05.2020 02:53 4,4 C 4,4 C 95 % 1007,4 hPa 0,0 l/m 16,1 km/h (3 Bft) N-NO 22 0 min 0,0 UV-I 0 W/m 3,7 C -2,2 C 25,7 km/h (4 Bft)
11.05.2020 02:54 4,4 C 4,4 C 95 % 1007,5 hPa 0,0 l/m 16,1 km/h (3 Bft) N 360 0 min 0,0 UV-I 0 W/m 3,7 C -2,2 C 24,1 km/h (4 Bft)
11.05.2020 02:55 4,4 C 4,4 C 95 % 1007,4 hPa 0,0 l/m 17,7 km/h (3 Bft) N-NO 22 0 min 0,0 UV-I 0 W/m 3,7 C -3,0 C 24,1 km/h (4 Bft)
11.05.2020 02:56 4,4 C 4,4 C 95 % 1007,4 hPa 0,0 l/m 22,5 km/h (4 Bft) N 360 0 min 0,0 UV-I 0 W/m 3,7 C -4,9 C 35,4 km/h (5 Bft)
11.05.2020 02:57 4,4 C 4,4 C 95 % 1007,4 hPa 0,0 l/m 17,7 km/h (3 Bft) N 360 0 min 0,0 UV-I 0 W/m 3,7 C -3,0 C 25,7 km/h (4 Bft)
11.05.2020 02:58 4,4 C 4,4 C 95 % 1007,4 hPa 0,0 l/m 19,3 km/h (3 Bft) N 360 0 min 0,0 UV-I 0 W/m 3,7 C -3,7 C 24,1 km/h (4 Bft)
11.05.2020 02:59 4,3 C 4,4 C 95 % 1007,3 hPa 0,0 l/m 16,1 km/h (3 Bft) N-NO 22 0 min 0,0 UV-I 0 W/m 3,6 C -2,3 C 25,7 km/h (4 Bft)
11.05.2020 03:00 4,3 C 4,4 C 95 % 1007,3 hPa 0,0 l/m 20,9 km/h (4 Bft) N-NO 22 0 min 0,0 UV-I 0 W/m 3,6 C -4,4 C 30,6 km/h (5 Bft)
11.05.2020 03:01 4,3 C 4,4 C 95 % 1007,3 hPa 0,0 l/m 27,4 km/h (4 Bft) N 360 0 min 0,0 UV-I 0 W/m 3,6 C -6,6 C 35,4 km/h (5 Bft)
11.05.2020 03:02 4,3 C 4,4 C 95 % 1007,2 hPa 0,0 l/m 24,1 km/h (4 Bft) N 360 0 min 0,0 UV-I 0 W/m 3,6 C -5,6 C 37,0 km/h (5 Bft)
11.05.2020 03:03 4,3 C 4,4 C 95 % 1007,2 hPa 0,0 l/m 22,5 km/h (4 Bft) N 360 0 min 0,0 UV-I 0 W/m 3,6 C -5,0 C 32,2 km/h (5 Bft)
11.05.2020 03:04 4,3 C 4,4 C 95 % 1007,3 hPa 0,0 l/m 27,4 km/h (4 Bft) N 360 0 min 0,0 UV-I 0 W/m 3,6 C -6,6 C 37,0 km/h (5 Bft)
11.05.2020 03:05 4,3 C 4,4 C 95 % 1007,3 hPa 0,0 l/m 19,3 km/h (3 Bft) N 360 0 min 0,0 UV-I 0 W/m 3,6 C -3,8 C 29,0 km/h (5 Bft)
11.05.2020 03:06 4,2 C 4,4 C 95 % 1007,2 hPa 0,0 l/m 16,1 km/h (3 Bft) N-NO 22 0 min 0,0 UV-I 0 W/m 3,5 C -2,5 C 30,6 km/h (5 Bft)
11.05.2020 03:07 4,2 C 4,4 C 95 % 1007,2 hPa 0,0 l/m 20,9 km/h (4 Bft) N-NO 22 0 min 0,0 UV-I 0 W/m 3,5 C -4,6 C 30,6 km/h (5 Bft)
11.05.2020 03:08 4,2 C 4,4 C 95 % 1007,2 hPa 0,0 l/m 19,3 km/h (3 Bft) N 360 0 min 0,0 UV-I 0 W/m 3,5 C -3,9 C 25,7 km/h (4 Bft)
11.05.2020 03:09 4,3 C 4,4 C 95 % 1007,2 hPa 0,0 l/m 22,5 km/h (4 Bft) N-NW 337 0 min 0,0 UV-I 0 W/m 3,6 C -5,0 C 33,8 km/h (5 Bft)
11.05.2020 03:10 4,3 C 4,4 C 95 % 1007,1 hPa 0,0 l/m 14,5 km/h (3 Bft) N 360 0 min 0,0 UV-I 0 W/m 3,6 C -1,5 C 25,7 km/h (4 Bft)
11.05.2020 03:11 4,2 C 4,4 C 95 % 1007,2 hPa 0,0 l/m 16,1 km/h (3 Bft) N-NW 337 0 min 0,0 UV-I 0 W/m 3,5 C -2,5 C 29,0 km/h (5 Bft)
11.05.2020 03:12 4,3 C 4,4 C 95 % 1007,1 hPa 0,0 l/m 19,3 km/h (3 Bft) N-NO 22 0 min 0,0 UV-I 0 W/m 3,6 C -3,8 C 29,0 km/h (5 Bft)
11.05.2020 03:13 4,2 C 4,4 C 95 % 1007,1 hPa 0,0 l/m 19,3 km/h (3 Bft) N 360 0 min 0,0 UV-I 0 W/m 3,5 C -3,9 C 29,0 km/h (5 Bft)
11.05.2020 03:14 4,2 C 4,4 C 95 % 1007,0 hPa 0,0 l/m 16,1 km/h (3 Bft) N-NO 22 0 min 0,0 UV-I 0 W/m 3,5 C -2,5 C 24,1 km/h (4 Bft)
11.05.2020 03:15 4,2 C 4,4 C 95 % 1007,1 hPa 0,0 l/m 19,3 km/h (3 Bft) N-NO 22 0 min 0,0 UV-I 0 W/m 3,5 C -3,9 C 24,1 km/h (4 Bft)
11.05.2020 03:16 4,3 C 4,4 C 95 % 1007,1 hPa 0,0 l/m 11,3 km/h (2 Bft) N 360 0 min 0,0 UV-I 0 W/m 3,6 C 0,4 C 20,9 km/h (4 Bft)
11.05.2020 03:17 4,3 C 4,4 C 95 % 1007,1 hPa 0,0 l/m 16,1 km/h (3 Bft) N 360 0 min 0,0 UV-I 0 W/m 3,6 C -2,3 C 24,1 km/h (4 Bft)
11.05.2020 03:18 4,3 C 4,4 C 95 % 1007,1 hPa 0,0 l/m 19,3 km/h (3 Bft) N-NO 22 0 min 0,0 UV-I 0 W/m 3,6 C -3,8 C 30,6 km/h (5 Bft)
11.05.2020 03:19 4,3 C 4,4 C 95 % 1007,2 hPa 0,0 l/m 22,5 km/h (4 Bft) N 360 0 min 0,0 UV-I 0 W/m 3,6 C -5,0 C 33,8 km/h (5 Bft)
11.05.2020 03:20 4,3 C 4,4 C 95 % 1007,1 hPa 0,0 l/m 25,7 km/h (4 Bft) N 360 0 min 0,0 UV-I 0 W/m 3,6 C -6,1 C 32,2 km/h (5 Bft)
11.05.2020 03:21 4,2 C 4,4 C 95 % 1007,2 hPa 0,0 l/m 16,1 km/h (3 Bft) N-NO 22 0 min 0,0 UV-I 0 W/m 3,5 C -2,5 C 32,2 km/h (5 Bft)
11.05.2020 03:22 4,2 C 4,4 C 95 % 1007,1 hPa 0,0 l/m 16,1 km/h (3 Bft) N-NO 22 0 min 0,0 UV-I 0 W/m 3,5 C -2,5 C 25,7 km/h (4 Bft)
11.05.2020 03:23 4,3 C 4,4 C 95 % 1007,1 hPa 0,0 l/m 16,1 km/h (3 Bft) N-NO 22 0 min 0,0 UV-I 0 W/m 3,6 C -2,3 C 24,1 km/h (4 Bft)
11.05.2020 03:24 4,2 C 4,4 C 95 % 1007,1 hPa 0,0 l/m 22,5 km/h (4 Bft) N-NO 22 0 min 0,0 UV-I 0 W/m 3,5 C -5,2 C 30,6 km/h (5 Bft)
11.05.2020 03:25 4,2 C 4,4 C 95 % 1007,0 hPa 0,0 l/m 20,9 km/h (4 Bft) N 360 0 min 0,0 UV-I 0 W/m 3,5 C -4,6 C 32,2 km/h (5 Bft)
11.05.2020 03:26 4,2 C 4,4 C 95 % 1007,2 hPa 0,0 l/m 24,1 km/h (4 Bft) N-NO 22 0 min 0,0 UV-I 0 W/m 3,5 C -5,7 C 33,8 km/h (5 Bft)
11.05.2020 03:27 4,2 C 4,4 C 95 % 1007,2 hPa 0,0 l/m 22,5 km/h (4 Bft) N-NO 22 0 min 0,0 UV-I 0 W/m 3,5 C -5,2 C 32,2 km/h (5 Bft)
11.05.2020 03:28 4,2 C 4,4 C 94 % 1007,2 hPa 0,0 l/m 24,1 km/h (4 Bft) N-NO 22 0 min 0,0 UV-I 0 W/m 3,3 C -5,7 C 33,8 km/h (5 Bft)
11.05.2020 03:29 4,2 C 4,4 C 94 % 1007,1 hPa 0,0 l/m 17,7 km/h (3 Bft) N 360 0 min 0,0 UV-I 0 W/m 3,3 C -3,2 C 25,7 km/h (4 Bft)
11.05.2020 03:30 4,2 C 4,4 C 94 % 1007,2 hPa 0,0 l/m 19,3 km/h (3 Bft) N-NO 22 0 min 0,0 UV-I 0 W/m 3,3 C -3,9 C 29,0 km/h (5 Bft)
11.05.2020 03:31 4,1 C 4,4 C 94 % 1007,1 hPa 0,0 l/m 25,7 km/h (4 Bft) N 360 0 min 0,0 UV-I 0 W/m 3,2 C -6,4 C 33,8 km/h (5 Bft)
11.05.2020 03:32 4,2 C 4,4 C 94 % 1007,1 hPa 0,0 l/m 22,5 km/h (4 Bft) N-NO 22 0 min 0,0 UV-I 0 W/m 3,3 C -5,2 C 32,2 km/h (5 Bft)
11.05.2020 03:33 4,1 C 4,4 C 94 % 1007,1 hPa 0,0 l/m 19,3 km/h (3 Bft) N-NO 22 0 min 0,0 UV-I 0 W/m 3,2 C -4,0 C 29,0 km/h (5 Bft)
11.05.2020 03:34 4,1 C 4,4 C 94 % 1007,1 hPa 0,0 l/m 19,3 km/h (3 Bft) N-NO 22 0 min 0,0 UV-I 0 W/m 3,2 C -4,0 C 29,0 km/h (5 Bft)
11.05.2020 03:35 4,2 C 3,9 C 94 % 1007,1 hPa 0,0 l/m 17,7 km/h (3 Bft) N-NO 22 0 min 0,0 UV-I 0 W/m 3,3 C -3,2 C 24,1 km/h (4 Bft)
11.05.2020 03:36 4,1 C 3,9 C 95 % 1007,1 hPa 0,0 l/m 17,7 km/h (3 Bft) N-NO 22 0 min 0,0 UV-I 0 W/m 3,4 C -3,3 C 30,6 km/h (5 Bft)
11.05.2020 03:37 4,2 C 3,9 C 94 % 1007,2 hPa 0,0 l/m 19,3 km/h (3 Bft) N-NO 22 0 min 0,0 UV-I 0 W/m 3,3 C -3,9 C 27,4 km/h (4 Bft)
11.05.2020 03:38 4,2 C 4,4 C 95 % 1007,1 hPa 0,0 l/m 20,9 km/h (4 Bft) N-NO 22 0 min 0,0 UV-I 0 W/m 3,5 C -4,6 C 25,7 km/h (4 Bft)
11.05.2020 03:39 4,2 C 3,9 C 95 % 1007,1 hPa 0,0 l/m 20,9 km/h (4 Bft) N-NO 22 0 min 0,0 UV-I 0 W/m 3,5 C -4,6 C 29,0 km/h (5 Bft)
11.05.2020 03:40 4,1 C 4,4 C 95 % 1007,1 hPa 0,0 l/m 16,1 km/h (3 Bft) N-NO 22 0 min 0,0 UV-I 0 W/m 3,4 C -2,6 C 22,5 km/h (4 Bft)
11.05.2020 03:41 4,1 C 4,4 C 95 % 1007,1 hPa 0,0 l/m 19,3 km/h (3 Bft) N-NO 22 0 min 0,0 UV-I 0 W/m 3,4 C -4,0 C 27,4 km/h (4 Bft)
11.05.2020 03:42 4,1 C 3,9 C 95 % 1007,2 hPa 0,0 l/m 24,1 km/h (4 Bft) N-NO 22 0 min 0,0 UV-I 0 W/m 3,4 C -5,9 C 33,8 km/h (5 Bft)
11.05.2020 03:43 4,1 C 4,4 C 95 % 1007,2 hPa 0,0 l/m 19,3 km/h (3 Bft) N 360 0 min 0,0 UV-I 0 W/m 3,4 C -4,0 C 27,4 km/h (4 Bft)
11.05.2020 03:44 4,1 C 3,9 C 94 % 1007,2 hPa 0,0 l/m 25,7 km/h (4 Bft) N-NO 22 0 min 0,0 UV-I 0 W/m 3,2 C -6,4 C 33,8 km/h (5 Bft)
11.05.2020 03:45 4,1 C 3,9 C 94 % 1007,3 hPa 0,0 l/m 24,1 km/h (4 Bft) N 360 0 min 0,0 UV-I 0 W/m 3,2 C -5,9 C 37,0 km/h (5 Bft)
11.05.2020 03:46 4,1 C 3,9 C 94 % 1007,3 hPa 0,0 l/m 20,9 km/h (4 Bft) N-NO 22 0 min 0,0 UV-I 0 W/m 3,2 C -4,7 C 30,6 km/h (5 Bft)
11.05.2020 03:47 4,0 C 3,9 C 94 % 1007,2 hPa 0,0 l/m 22,5 km/h (4 Bft) N 360 0 min 0,0 UV-I 0 W/m 3,1 C -5,4 C 30,6 km/h (5 Bft)
11.05.2020 03:48 4,0 C 3,9 C 94 % 1007,3 hPa 0,0 l/m 19,3 km/h (3 Bft) N 360 0 min 0,0 UV-I 0 W/m 3,1 C -4,2 C 29,0 km/h (5 Bft)
11.05.2020 03:49 3,9 C 3,9 C 94 % 1007,3 hPa 0,0 l/m 17,7 km/h (3 Bft) N-NO 22 0 min 0,0 UV-I 0 W/m 3,0 C -3,6 C 24,1 km/h (4 Bft)
11.05.2020 03:50 3,9 C 3,9 C 94 % 1007,3 hPa 0,0 l/m 22,5 km/h (4 Bft) N-NW 337 0 min 0,0 UV-I 0 W/m 3,0 C -5,6 C 35,4 km/h (5 Bft)
11.05.2020 03:51 3,8 C 3,9 C 95 % 1007,4 hPa 0,0 l/m 24,1 km/h (4 Bft) N 360 0 min 0,0 UV-I 0 W/m 3,1 C -6,3 C 30,6 km/h (5 Bft)
11.05.2020 03:52 3,8 C 3,9 C 94 % 1007,5 hPa 0,0 l/m 16,1 km/h (3 Bft) N 360 0 min 0,0 UV-I 0 W/m 2,9 C -2,9 C 27,4 km/h (4 Bft)
11.05.2020 03:53 3,8 C 3,9 C 94 % 1007,4 hPa 0,0 l/m 19,3 km/h (3 Bft) N 360 0 min 0,0 UV-I 0 W/m 2,9 C -4,4 C 27,4 km/h (4 Bft)
11.05.2020 03:54 3,8 C 3,9 C 94 % 1007,5 hPa 0,0 l/m 20,9 km/h (4 Bft) N 360 0 min 0,0 UV-I 0 W/m 2,9 C -5,1 C 33,8 km/h (5 Bft)
11.05.2020 03:55 3,7 C 3,9 C 94 % 1007,5 hPa 0,0 l/m 24,1 km/h (4 Bft) N 360 0 min 0,0 UV-I 0 W/m 2,8 C -6,4 C 33,8 km/h (5 Bft)
11.05.2020 03:56 3,7 C 3,9 C 94 % 1007,3 hPa 0,0 l/m 22,5 km/h (4 Bft) N 360 0 min 0,0 UV-I 0 W/m 2,8 C -5,8 C 32,2 km/h (5 Bft)
11.05.2020 03:57 3,6 C 3,9 C 94 % 1007,4 hPa 0,0 l/m 22,5 km/h (4 Bft) N-NO 22 0 min 0,0 UV-I 0 W/m 2,7 C -6,0 C 32,2 km/h (5 Bft)
11.05.2020 03:58 3,6 C 3,3 C 94 % 1007,4 hPa 0,0 l/m 24,1 km/h (4 Bft) N 360 0 min 0,0 UV-I 0 W/m 2,7 C -6,5 C 33,8 km/h (5 Bft)
11.05.2020 03:59 3,5 C 3,3 C 94 % 1007,3 hPa 0,0 l/m 19,3 km/h (3 Bft) N-NO 22 0 min 0,0 UV-I 0 W/m 2,6 C -4,8 C 32,2 km/h (5 Bft)
11.05.2020 04:00 3,4 C 3,3 C 94 % 1007,4 hPa 0,0 l/m 22,5 km/h (4 Bft) N-NO 22 0 min 0,0 UV-I 0 W/m 2,5 C -6,2 C 33,8 km/h (5 Bft)
11.05.2020 04:01 3,4 C 3,3 C 94 % 1007,3 hPa 0,0 l/m 17,7 km/h (3 Bft) N-NO 22 0 min 0,0 UV-I 0 W/m 2,5 C -4,2 C 24,1 km/h (4 Bft)
11.05.2020 04:02 3,4 C 3,3 C 94 % 1007,4 hPa 0,0 l/m 16,1 km/h (3 Bft) N-NO 22 0 min 0,0 UV-I 0 W/m 2,5 C -3,4 C 20,9 km/h (4 Bft)
11.05.2020 04:03 3,4 C 3,3 C 94 % 1007,4 hPa 0,0 l/m 17,7 km/h (3 Bft) N-NO 22 0 min 0,0 UV-I 0 W/m 2,5 C -4,2 C 22,5 km/h (4 Bft)
11.05.2020 04:04 3,3 C 3,3 C 94 % 1007,4 hPa 0,0 l/m 27,4 km/h (4 Bft) N 360 0 min 0,0 UV-I 0 W/m 2,4 C -8,0 C 45,1 km/h (6 Bft)
11.05.2020 04:05 3,3 C 3,3 C 94 % 1007,3 hPa 0,0 l/m 12,9 km/h (3 Bft) N-NO 22 0 min 0,0 UV-I 0 W/m 2,4 C -1,8 C 45,1 km/h (6 Bft)
11.05.2020 04:06 3,3 C 3,3 C 94 % 1007,4 hPa 0,0 l/m 22,5 km/h (4 Bft) N 360 0 min 0,0 UV-I 0 W/m 2,4 C -6,4 C 33,8 km/h (5 Bft)
11.05.2020 04:07 3,3 C 3,3 C 94 % 1007,3 hPa 0,0 l/m 24,1 km/h (4 Bft) N 360 0 min 0,0 UV-I 0 W/m 2,4 C -6,9 C 32,2 km/h (5 Bft)
11.05.2020 04:08 3,3 C 3,3 C 94 % 1007,3 hPa 0,0 l/m 20,9 km/h (4 Bft) N 360 0 min 0,0 UV-I 0 W/m 2,4 C -5,7 C 32,2 km/h (5 Bft)
11.05.2020 04:09 3,2 C 3,3 C 94 % 1007,3 hPa 0,0 l/m 19,3 km/h (3 Bft) N 360 0 min 0,0 UV-I 0 W/m 2,3 C -5,2 C 27,4 km/h (4 Bft)
11.05.2020 04:10 3,2 C 3,3 C 94 % 1007,4 hPa 0,0 l/m 20,9 km/h (4 Bft) N 360 0 min 0,0 UV-I 0 W/m 2,3 C -5,9 C 29,0 km/h (5 Bft)
11.05.2020 04:11 3,2 C 3,3 C 94 % 1007,5 hPa 0,0 l/m 20,9 km/h (4 Bft) N-NO 22 0 min 0,0 UV-I 0 W/m 2,3 C -5,9 C 27,4 km/h (4 Bft)
11.05.2020 04:12 3,2 C 3,3 C 94 % 1007,4 hPa 0,0 l/m 24,1 km/h (4 Bft) N-NO 22 0 min 0,0 UV-I 0 W/m 2,3 C -7,1 C 30,6 km/h (5 Bft)
11.05.2020 04:13 3,2 C 3,3 C 94 % 1007,3 hPa 0,0 l/m 25,7 km/h (4 Bft) N-NO 22 0 min 0,0 UV-I 0 W/m 2,3 C -7,6 C 37,0 km/h (5 Bft)
11.05.2020 04:14 3,1 C 3,3 C 94 % 1007,4 hPa 0,0 l/m 27,4 km/h (4 Bft) N 360 0 min 0,0 UV-I 0 W/m 2,2 C -8,3 C 41,8 km/h (6 Bft)
11.05.2020 04:15 3,1 C 3,3 C 94 % 1007,3 hPa 0,0 l/m 19,3 km/h (3 Bft) N 360 0 min 0,0 UV-I 0 W/m 2,2 C -5,3 C 25,7 km/h (4 Bft)
11.05.2020 04:16 3,1 C 3,3 C 94 % 1007,4 hPa 0,0 l/m 20,9 km/h (4 Bft) N 360 0 min 0,0 UV-I 0 W/m 2,2 C -6,0 C 29,0 km/h (5 Bft)
11.05.2020 04:17 3,1 C 3,3 C 94 % 1007,4 hPa 0,0 l/m 22,5 km/h (4 Bft) N-NO 22 0 min 0,0 UV-I 0 W/m 2,2 C -6,6 C 35,4 km/h (5 Bft)
11.05.2020 04:18 3,1 C 3,3 C 94 % 1007,4 hPa 0,0 l/m 25,7 km/h (4 Bft) N 360 0 min 0,0 UV-I 0 W/m 2,2 C -7,8 C 38,6 km/h (5 Bft)
11.05.2020 04:19 3,0 C 3,3 C 94 % 1007,3 hPa 0,0 l/m 20,9 km/h (4 Bft) N 360 0 min 0,0 UV-I 0 W/m 2,1 C -6,1 C 25,7 km/h (4 Bft)
11.05.2020 04:20 3,0 C 3,3 C 94 % 1007,4 hPa 0,0 l/m 12,9 km/h (3 Bft) N 360 0 min 0,0 UV-I 0 W/m 2,1 C -2,1 C 19,3 km/h (3 Bft)
11.05.2020 04:21 3,0 C 3,3 C 94 % 1007,4 hPa 0,0 l/m 19,3 km/h (3 Bft) N-NO 22 0 min 0,0 UV-I 0 W/m 2,1 C -5,5 C 30,6 km/h (5 Bft)
11.05.2020 04:22 2,9 C 3,3 C 94 % 1007,5 hPa 0,0 l/m 22,5 km/h (4 Bft) N-NO 22 0 min 0,0 UV-I 0 W/m 2,0 C -6,9 C 29,0 km/h (5 Bft)
11.05.2020 04:23 2,9 C 2,8 C 94 % 1007,4 hPa 0,0 l/m 19,3 km/h (3 Bft) N-NO 22 0 min 0,0 UV-I 0 W/m 2,0 C -5,6 C 25,7 km/h (4 Bft)
11.05.2020 04:24 2,9 C 2,8 C 94 % 1007,4 hPa 0,0 l/m 25,7 km/h (4 Bft) N 360 0 min 0,0 UV-I 0 W/m 2,0 C -8,0 C 33,8 km/h (5 Bft)
11.05.2020 04:25 2,9 C 2,8 C 94 % 1007,4 hPa 0,0 l/m 24,1 km/h (4 Bft) N 360 0 min 0,0 UV-I 0 W/m 2,0 C -7,5 C 30,6 km/h (5 Bft)
11.05.2020 04:26 2,9 C 2,8 C 94 % 1007,4 hPa 0,0 l/m 24,1 km/h (4 Bft) N-NO 22 0 min 0,0 UV-I 0 W/m 2,0 C -7,5 C 33,8 km/h (5 Bft)
11.05.2020 04:27 2,9 C 2,8 C 94 % 1007,3 hPa 0,0 l/m 24,1 km/h (4 Bft) N 360 0 min 0,0 UV-I 0 W/m 2,0 C -7,5 C 32,2 km/h (5 Bft)
11.05.2020 04:28 2,9 C 2,8 C 94 % 1007,2 hPa 0,0 l/m 22,5 km/h (4 Bft) N 360 0 min 0,0 UV-I 0 W/m 2,0 C -6,9 C 30,6 km/h (5 Bft)
11.05.2020 04:29 2,9 C 2,8 C 94 % 1007,4 hPa 0,0 l/m 19,3 km/h (3 Bft) N-NO 22 0 min 0,0 UV-I 0 W/m 2,0 C -5,6 C 32,2 km/h (5 Bft)
11.05.2020 04:30 2,9 C 2,8 C 94 % 1007,3 hPa 0,0 l/m 20,9 km/h (4 Bft) N-NW 337 0 min 0,0 UV-I 0 W/m 2,0 C -6,3 C 38,6 km/h (5 Bft)
11.05.2020 04:31 2,9 C 2,8 C 94 % 1007,4 hPa 0,0 l/m 32,2 km/h (5 Bft) N 360 0 min 0,0 UV-I 0 W/m 2,0 C -9,9 C 45,1 km/h (6 Bft)
11.05.2020 04:32 2,9 C 2,8 C 94 % 1007,3 hPa 0,0 l/m 30,6 km/h (5 Bft) N-NO 22 0 min 0,0 UV-I 0 W/m 2,0 C -9,5 C 37,0 km/h (5 Bft)
11.05.2020 04:33 2,9 C 2,8 C 94 % 1007,4 hPa 0,0 l/m 22,5 km/h (4 Bft) N 360 0 min 0,0 UV-I 0 W/m 2,0 C -6,9 C 25,7 km/h (4 Bft)
11.05.2020 04:34 2,9 C 2,8 C 94 % 1007,4 hPa 0,0 l/m 19,3 km/h (3 Bft) N-NO 22 0 min 0,0 UV-I 0 W/m 2,0 C -5,6 C 29,0 km/h (5 Bft)
11.05.2020 04:35 2,9 C 2,8 C 94 % 1007,5 hPa 0,0 l/m 22,5 km/h (4 Bft) N-NO 22 0 min 0,0 UV-I 0 W/m 2,0 C -6,9 C 30,6 km/h (5 Bft)
11.05.2020 04:36 2,8 C 2,8 C 94 % 1007,5 hPa 0,0 l/m 17,7 km/h (3 Bft) N-NO 22 0 min 0,0 UV-I 0 W/m 1,9 C -5,0 C 24,1 km/h (4 Bft)
11.05.2020 04:37 2,9 C 2,8 C 94 % 1007,5 hPa 0,0 l/m 20,9 km/h (4 Bft) N 360 0 min 0,0 UV-I 0 W/m 2,0 C -6,3 C 33,8 km/h (5 Bft)
11.05.2020 04:38 2,8 C 2,8 C 94 % 1007,5 hPa 0,0 l/m 25,7 km/h (4 Bft) N-NW 337 0 min 0,0 UV-I 0 W/m 1,9 C -8,2 C 35,4 km/h (5 Bft)
11.05.2020 04:39 2,9 C 2,8 C 94 % 1007,5 hPa 0,0 l/m 27,4 km/h (4 Bft) N-NO 22 0 min 0,0 UV-I 0 W/m 2,0 C -8,6 C 35,4 km/h (5 Bft)
11.05.2020 04:40 2,9 C 2,8 C 94 % 1007,5 hPa 0,0 l/m 24,1 km/h (4 Bft) N-NO 22 0 min 0,0 UV-I 0 W/m 2,0 C -7,5 C 43,5 km/h (6 Bft)
11.05.2020 04:41 2,8 C 2,8 C 94 % 1007,4 hPa 0,0 l/m 22,5 km/h (4 Bft) N-NO 22 0 min 0,0 UV-I 0 W/m 1,9 C -7,0 C 29,0 km/h (5 Bft)
11.05.2020 04:42 2,9 C 2,8 C 94 % 1007,5 hPa 0,0 l/m 19,3 km/h (3 Bft) N-NO 22 0 min 0,0 UV-I 0 W/m 2,0 C -5,6 C 32,2 km/h (5 Bft)
11.05.2020 04:43 2,9 C 2,8 C 94 % 1007,3 hPa 0,0 l/m 17,7 km/h (3 Bft) N 360 0 min 0,0 UV-I 0 W/m 2,0 C -4,8 C 25,7 km/h (4 Bft)
11.05.2020 04:44 2,8 C 2,8 C 94 % 1007,4 hPa 0,0 l/m 22,5 km/h (4 Bft) N 360 0 min 0,0 UV-I 0 W/m 1,9 C -7,0 C 37,0 km/h (5 Bft)
11.05.2020 04:45 2,9 C 2,8 C 94 % 1007,5 hPa 0,0 l/m 30,6 km/h (5 Bft) N-NO 22 0 min 0,0 UV-I 0 W/m 2,0 C -9,5 C 41,8 km/h (6 Bft)
11.05.2020 04:46 2,8 C 2,8 C 94 % 1007,3 hPa 0,0 l/m 24,1 km/h (4 Bft) N-NO 22 0 min 0,0 UV-I 0 W/m 1,9 C -7,6 C 38,6 km/h (5 Bft)
11.05.2020 04:47 2,8 C 2,8 C 94 % 1007,3 hPa 0,0 l/m 32,2 km/h (5 Bft) N 360 0 min 0,0 UV-I 0 W/m 1,9 C -10,1 C 41,8 km/h (6 Bft)
11.05.2020 04:48 2,8 C 2,8 C 94 % 1007,4 hPa 0,0 l/m 20,9 km/h (4 Bft) N-NO 22 0 min 0,0 UV-I 0 W/m 1,9 C -6,4 C 33,8 km/h (5 Bft)
11.05.2020 04:49 2,8 C 2,8 C 94 % 1007,3 hPa 0,0 l/m 22,5 km/h (4 Bft) N-NO 22 0 min 0,0 UV-I 0 W/m 1,9 C -7,0 C 29,0 km/h (5 Bft)
11.05.2020 04:50 2,8 C 2,8 C 94 % 1007,4 hPa 0,0 l/m 24,1 km/h (4 Bft) N-NO 22 0 min 0,0 UV-I 0 W/m 1,9 C -7,6 C 37,0 km/h (5 Bft)
11.05.2020 04:51 2,8 C 2,8 C 94 % 1007,5 hPa 0,0 l/m 22,5 km/h (4 Bft) N-NO 22 0 min 0,0 UV-I 0 W/m 1,9 C -7,0 C 30,6 km/h (5 Bft)
11.05.2020 04:52 2,8 C 2,8 C 94 % 1007,5 hPa 0,0 l/m 22,5 km/h (4 Bft) N-NO 22 0 min 0,0 UV-I 0 W/m 1,9 C -7,0 C 33,8 km/h (5 Bft)
11.05.2020 04:53 2,8 C 2,8 C 94 % 1007,4 hPa 0,0 l/m 22,5 km/h (4 Bft) N-NO 22 0 min 0,0 UV-I 0 W/m 1,9 C -7,0 C 29,0 km/h (5 Bft)
11.05.2020 04:54 2,8 C 2,8 C 94 % 1007,4 hPa 0,0 l/m 17,7 km/h (3 Bft) N-NO 22 0 min 0,0 UV-I 0 W/m 1,9 C -5,0 C 24,1 km/h (4 Bft)
11.05.2020 04:55 2,8 C 2,8 C 94 % 1007,5 hPa 0,0 l/m 19,3 km/h (3 Bft) N 360 0 min 0,0 UV-I 0 W/m 1,9 C -5,7 C 27,4 km/h (4 Bft)
11.05.2020 04:56 2,8 C 2,8 C 94 % 1007,4 hPa 0,0 l/m 22,5 km/h (4 Bft) N 360 0 min 0,0 UV-I 0 W/m 1,9 C -7,0 C 29,0 km/h (5 Bft)
11.05.2020 04:57 2,8 C 2,8 C 94 % 1007,4 hPa 0,0 l/m 20,9 km/h (4 Bft) N 360 0 min 0,0 UV-I 0 W/m 1,9 C -6,4 C 33,8 km/h (5 Bft)
11.05.2020 04:58 2,8 C 2,8 C 93 % 1007,4 hPa 0,0 l/m 16,1 km/h (3 Bft) N 360 0 min 0,0 UV-I 0 W/m 1,8 C -4,2 C 22,5 km/h (4 Bft)
11.05.2020 04:59 2,8 C 2,8 C 93 % 1007,4 hPa 0,0 l/m 22,5 km/h (4 Bft) N-NO 22 0 min 0,0 UV-I 0 W/m 1,8 C -7,0 C 32,2 km/h (5 Bft)
11.05.2020 05:00 2,8 C 2,8 C 93 % 1007,4 hPa 0,0 l/m 20,9 km/h (4 Bft) N 360 0 min 0,0 UV-I 0 W/m 1,8 C -6,4 C 32,2 km/h (5 Bft)
11.05.2020 05:01 2,8 C 2,8 C 94 % 1007,4 hPa 0,0 l/m 22,5 km/h (4 Bft) N-NO 22 0 min 0,0 UV-I 0 W/m 1,9 C -7,0 C 38,6 km/h (5 Bft)
11.05.2020 05:02 2,8 C 2,8 C 93 % 1007,5 hPa 0,0 l/m 20,9 km/h (4 Bft) N-NO 22 0 min 0,0 UV-I 0 W/m 1,8 C -6,4 C 38,6 km/h (5 Bft)
11.05.2020 05:03 2,8 C 2,8 C 93 % 1007,5 hPa 0,0 l/m 30,6 km/h (5 Bft) N 360 0 min 0,0 UV-I 0 W/m 1,8 C -9,6 C 45,1 km/h (6 Bft)
11.05.2020 05:04 2,8 C 2,8 C 93 % 1007,4 hPa 0,0 l/m 19,3 km/h (3 Bft) N 360 0 min 0,0 UV-I 0 W/m 1,8 C -5,7 C 27,4 km/h (4 Bft)
11.05.2020 05:05 2,8 C 2,8 C 93 % 1007,5 hPa 0,0 l/m 27,4 km/h (4 Bft) N-NO 22 0 min 0,0 UV-I 0 W/m 1,8 C -8,7 C 38,6 km/h (5 Bft)
11.05.2020 05:06 2,8 C 2,8 C 93 % 1007,5 hPa 0,0 l/m 27,4 km/h (4 Bft) N 360 0 min 0,0 UV-I 0 W/m 1,8 C -8,7 C 35,4 km/h (5 Bft)
11.05.2020 05:07 2,8 C 2,8 C 93 % 1007,6 hPa 0,0 l/m 24,1 km/h (4 Bft) N-NO 22 0 min 0,0 UV-I 0 W/m 1,8 C -7,6 C 30,6 km/h (5 Bft)
11.05.2020 05:08 2,8 C 2,8 C 93 % 1007,5 hPa 0,0 l/m 25,7 km/h (4 Bft) N-NO 22 0 min 0,0 UV-I 0 W/m 1,8 C -8,2 C 38,6 km/h (5 Bft)
11.05.2020 05:09 2,8 C 2,8 C 93 % 1007,5 hPa 0,0 l/m 22,5 km/h (4 Bft) N-NO 22 0 min 0,0 UV-I 0 W/m 1,8 C -7,0 C 29,0 km/h (5 Bft)
11.05.2020 05:10 2,8 C 2,8 C 93 % 1007,6 hPa 0,0 l/m 20,9 km/h (4 Bft) N-NO 22 0 min 0,0 UV-I 0 W/m 1,8 C -6,4 C 27,4 km/h (4 Bft)
11.05.2020 05:11 2,8 C 2,8 C 93 % 1007,6 hPa 0,0 l/m 22,5 km/h (4 Bft) N 360 0 min 0,0 UV-I 0 W/m 1,8 C -7,0 C 40,2 km/h (6 Bft)
11.05.2020 05:12 2,7 C 2,8 C 93 % 1007,5 hPa 0,0 l/m 27,4 km/h (4 Bft) N 360 0 min 0,0 UV-I 0 W/m 1,7 C -8,8 C 40,2 km/h (6 Bft)
11.05.2020 05:13 2,7 C 2,8 C 93 % 1007,6 hPa 0,0 l/m 19,3 km/h (3 Bft) N 360 0 min 0,0 UV-I 0 W/m 1,7 C -5,8 C 27,4 km/h (4 Bft)
11.05.2020 05:14 2,7 C 2,8 C 93 % 1007,5 hPa 0,0 l/m 25,7 km/h (4 Bft) N 360 0 min 0,0 UV-I 0 W/m 1,7 C -8,3 C 33,8 km/h (5 Bft)
11.05.2020 05:15 2,8 C 2,8 C 93 % 1007,5 hPa 0,0 l/m 22,5 km/h (4 Bft) N 360 0 min 0,0 UV-I 0 W/m 1,8 C -7,0 C 32,2 km/h (5 Bft)
11.05.2020 05:16 2,7 C 2,8 C 93 % 1007,6 hPa 0,0 l/m 19,3 km/h (3 Bft) N 360 0 min 0,0 UV-I 0 W/m 1,7 C -5,8 C 24,1 km/h (4 Bft)
11.05.2020 05:17 2,7 C 2,8 C 93 % 1007,5 hPa 0,0 l/m 20,9 km/h (4 Bft) N 360 0 min 0,0 UV-I 0 W/m 1,7 C -6,5 C 27,4 km/h (4 Bft)
11.05.2020 05:18 2,7 C 2,8 C 93 % 1007,5 hPa 0,0 l/m 19,3 km/h (3 Bft) N-NO 22 0 min 0,0 UV-I 0 W/m 1,7 C -5,8 C 29,0 km/h (5 Bft)
11.05.2020 05:19 2,7 C 2,8 C 93 % 1007,5 hPa 0,0 l/m 25,7 km/h (4 Bft) N 360 0 min 0,0 UV-I 0 W/m 1,7 C -8,3 C 43,5 km/h (6 Bft)
11.05.2020 05:20 2,7 C 2,8 C 93 % 1007,4 hPa 0,0 l/m 19,3 km/h (3 Bft) N 360 0 min 0,0 UV-I 0 W/m 1,7 C -5,8 C 30,6 km/h (5 Bft)
11.05.2020 05:21 2,7 C 2,8 C 93 % 1007,5 hPa 0,0 l/m 27,4 km/h (4 Bft) N 360 0 min 0,0 UV-I 0 W/m 1,7 C -8,8 C 38,6 km/h (5 Bft)
11.05.2020 05:22 2,7 C 2,8 C 93 % 1007,5 hPa 0,0 l/m 25,7 km/h (4 Bft) N-NO 22 0 min 0,0 UV-I 0 W/m 1,7 C -8,3 C 37,0 km/h (5 Bft)
11.05.2020 05:23 2,7 C 2,8 C 93 % 1007,4 hPa 0,2 l/m 25,7 km/h (4 Bft) N 360 0 min 0,0 UV-I 0 W/m 1,7 C -8,3 C 35,4 km/h (5 Bft)
11.05.2020 05:24 2,7 C 2,8 C 93 % 1007,4 hPa 0,0 l/m 37,0 km/h (5 Bft) N 360 0 min 0,0 UV-I 0 W/m 1,7 C -11,3 C 49,9 km/h (6 Bft)
11.05.2020 05:25 2,6 C 2,8 C 93 % 1007,5 hPa 0,0 l/m 32,2 km/h (5 Bft) N 360 0 min 0,0 UV-I 0 W/m 1,6 C -10,3 C 49,9 km/h (6 Bft)
11.05.2020 05:26 2,7 C 2,8 C 93 % 1007,4 hPa 0,0 l/m 22,5 km/h (4 Bft) N 360 0 min 0,0 UV-I 0 W/m 1,7 C -7,2 C 29,0 km/h (5 Bft)
11.05.2020 05:27 2,6 C 2,8 C 93 % 1007,5 hPa 0,0 l/m 22,5 km/h (4 Bft) N-NO 22 0 min 0,0 UV-I 0 W/m 1,6 C -7,3 C 30,6 km/h (5 Bft)
11.05.2020 05:28 2,6 C 2,8 C 93 % 1007,5 hPa 0,0 l/m 24,1 km/h (4 Bft) N-NO 22 0 min 0,0 UV-I 0 W/m 1,6 C -7,9 C 33,8 km/h (5 Bft)
11.05.2020 05:29 2,6 C 2,8 C 93 % 1007,3 hPa 0,0 l/m 29,0 km/h (5 Bft) N 360 0 min 0,0 UV-I 0 W/m 1,6 C -9,5 C 37,0 km/h (5 Bft)
11.05.2020 05:30 2,6 C 2,8 C 93 % 1007,5 hPa 0,0 l/m 17,7 km/h (3 Bft) N 360 0 min 0,0 UV-I 0 W/m 1,6 C -5,2 C 27,4 km/h (4 Bft)
11.05.2020 05:31 2,6 C 2,8 C 93 % 1007,5 hPa 0,0 l/m 20,9 km/h (4 Bft) N 360 0 min 0,0 UV-I 0 W/m 1,6 C -6,7 C 29,0 km/h (5 Bft)
11.05.2020 05:32 2,6 C 2,2 C 93 % 1007,4 hPa 0,0 l/m 22,5 km/h (4 Bft) N 360 0 min 0,0 UV-I 0 W/m 1,6 C -7,3 C 30,6 km/h (5 Bft)
11.05.2020 05:33 2,6 C 2,2 C 93 % 1007,5 hPa 0,0 l/m 17,7 km/h (3 Bft) N-NO 22 0 min 0,0 UV-I 0 W/m 1,6 C -5,2 C 33,8 km/h (5 Bft)
11.05.2020 05:34 2,6 C 2,2 C 93 % 1007,5 hPa 0,0 l/m 24,1 km/h (4 Bft) N-NO 22 0 min 0,0 UV-I 0 W/m 1,6 C -7,9 C 32,2 km/h (5 Bft)
11.05.2020 05:35 2,6 C 2,2 C 93 % 1007,4 hPa 0,0 l/m 24,1 km/h (4 Bft) N-NO 22 0 min 0,0 UV-I 0 W/m 1,6 C -7,9 C 32,2 km/h (5 Bft)
11.05.2020 05:36 2,6 C 2,8 C 93 % 1007,4 hPa 0,0 l/m 29,0 km/h (5 Bft) N-NO 22 0 min 0,0 UV-I 0 W/m 1,6 C -9,5 C 35,4 km/h (5 Bft)
11.05.2020 05:37 2,6 C 2,2 C 93 % 1007,4 hPa 0,0 l/m 24,1 km/h (4 Bft) N 360 0 min 0,0 UV-I 0 W/m 1,6 C -7,9 C 30,6 km/h (5 Bft)
11.05.2020 05:38 2,6 C 2,2 C 93 % 1007,5 hPa 0,0 l/m 25,7 km/h (4 Bft) N-NO 22 0 min 0,0 UV-I 0 W/m 1,6 C -8,4 C 32,2 km/h (5 Bft)
11.05.2020 05:39 2,5 C 2,2 C 93 % 1007,4 hPa 0,0 l/m 25,7 km/h (4 Bft) N-NO 22 0 min 0,0 UV-I 0 W/m 1,5 C -8,6 C 33,8 km/h (5 Bft)
11.05.2020 05:40 2,6 C 2,2 C 93 % 1007,6 hPa 0,0 l/m 24,1 km/h (4 Bft) N-NO 22 0 min 0,0 UV-I 0 W/m 1,6 C -7,9 C 33,8 km/h (5 Bft)
11.05.2020 05:41 2,5 C 2,2 C 93 % 1007,5 hPa 0,0 l/m 22,5 km/h (4 Bft) N-NO 22 0 min 0,0 UV-I 0 W/m 1,5 C -7,4 C 27,4 km/h (4 Bft)
11.05.2020 05:42 2,5 C 2,2 C 93 % 1007,5 hPa 0,0 l/m 19,3 km/h (3 Bft) N-NO 22 0 min 0,0 UV-I 0 W/m 1,5 C -6,1 C 25,7 km/h (4 Bft)
11.05.2020 05:43 2,5 C 2,2 C 93 % 1007,5 hPa 0,0 l/m 16,1 km/h (3 Bft) N 360 0 min 0,0 UV-I 0 W/m 1,5 C -4,5 C 24,1 km/h (4 Bft)
11.05.2020 05:44 2,5 C 2,2 C 93 % 1007,6 hPa 0,0 l/m 14,5 km/h (3 Bft) N 360 0 min 0,0 UV-I 0 W/m 1,5 C -3,7 C 27,4 km/h (4 Bft)
11.05.2020 05:45 2,5 C 2,2 C 93 % 1007,6 hPa 0,0 l/m 12,9 km/h (3 Bft) N 360 0 min 0,0 UV-I 0 W/m 1,5 C -2,7 C 17,7 km/h (3 Bft)
11.05.2020 05:46 2,5 C 2,2 C 93 % 1007,6 hPa 0,0 l/m 17,7 km/h (3 Bft) N-NO 22 0 min 0,0 UV-I 0 W/m 1,5 C -5,4 C 29,0 km/h (5 Bft)
11.05.2020 05:47 2,5 C 2,2 C 93 % 1007,6 hPa 0,0 l/m 24,1 km/h (4 Bft) N 360 0 min 0,0 UV-I 0 W/m 1,5 C -8,0 C 35,4 km/h (5 Bft)
11.05.2020 05:48 2,5 C 2,2 C 93 % 1007,5 hPa 0,0 l/m 24,1 km/h (4 Bft) N-NO 22 0 min 0,0 UV-I 0 W/m 1,5 C -8,0 C 35,4 km/h (5 Bft)
11.05.2020 05:49 2,5 C 2,2 C 93 % 1007,5 hPa 0,0 l/m 17,7 km/h (3 Bft) N-NO 22 0 min 0,0 UV-I 0 W/m 1,5 C -5,4 C 27,4 km/h (4 Bft)
11.05.2020 05:50 2,5 C 2,2 C 93 % 1007,6 hPa 0,0 l/m 20,9 km/h (4 Bft) N-NO 22 0 min 0,0 UV-I 0 W/m 1,5 C -6,8 C 30,6 km/h (5 Bft)
11.05.2020 05:51 2,5 C 2,2 C 93 % 1007,5 hPa 0,0 l/m 20,9 km/h (4 Bft) N-NO 22 0 min 0,0 UV-I 0 W/m 1,5 C -6,8 C 27,4 km/h (4 Bft)
11.05.2020 05:52 2,5 C 2,2 C 93 % 1007,6 hPa 0,0 l/m 22,5 km/h (4 Bft) N 360 0 min 0,0 UV-I 0 W/m 1,5 C -7,4 C 30,6 km/h (5 Bft)
11.05.2020 05:53 2,4 C 2,2 C 93 % 1007,5 hPa 0,0 l/m 22,5 km/h (4 Bft) N-NO 22 0 min 0,0 UV-I 0 W/m 1,4 C -7,6 C 35,4 km/h (5 Bft)
11.05.2020 05:54 2,4 C 2,2 C 93 % 1007,6 hPa 0,0 l/m 24,1 km/h (4 Bft) N 360 0 min 0,0 UV-I 0 W/m 1,4 C -8,1 C 30,6 km/h (5 Bft)
11.05.2020 05:55 2,4 C 2,2 C 93 % 1007,5 hPa 0,0 l/m 16,1 km/h (3 Bft) N 360 0 min 0,0 UV-I 0 W/m 1,4 C -4,7 C 24,1 km/h (4 Bft)
11.05.2020 05:56 2,4 C 2,2 C 93 % 1007,6 hPa 0,2 l/m 24,1 km/h (4 Bft) N 360 0 min 0,0 UV-I 0 W/m 1,4 C -8,1 C 32,2 km/h (5 Bft)
11.05.2020 05:57 2,4 C 2,2 C 93 % 1007,5 hPa 0,0 l/m 17,7 km/h (3 Bft) N-NO 22 0 min 0,0 UV-I 0 W/m 1,4 C -5,5 C 24,1 km/h (4 Bft)
11.05.2020 05:58 2,4 C 2,2 C 93 % 1007,4 hPa 0,0 l/m 22,5 km/h (4 Bft) N 360 0 min 0,0 UV-I 0 W/m 1,4 C -7,6 C 33,8 km/h (5 Bft)
11.05.2020 05:59 2,4 C 2,2 C 93 % 1007,5 hPa 0,0 l/m 20,9 km/h (4 Bft) N-NO 22 0 min 0,0 UV-I 0 W/m 1,4 C -6,9 C 27,4 km/h (4 Bft)
11.05.2020 06:00 2,4 C 2,2 C 93 % 1007,4 hPa 0,0 l/m 17,7 km/h (3 Bft) N 360 0 min 0,0 UV-I 0 W/m 1,4 C -5,5 C 29,0 km/h (5 Bft)
11.05.2020 06:01 2,4 C 2,2 C 93 % 1007,5 hPa 0,0 l/m 25,7 km/h (4 Bft) N 360 0 min 0,0 UV-I 0 W/m 1,4 C -8,7 C 37,0 km/h (5 Bft)
11.05.2020 06:02 2,4 C 2,2 C 93 % 1007,5 hPa 0,0 l/m 20,9 km/h (4 Bft) N-NO 22 0 min 0,0 UV-I 0 W/m 1,4 C -6,9 C 30,6 km/h (5 Bft)
11.05.2020 06:03 2,4 C 2,2 C 93 % 1007,5 hPa 0,0 l/m 22,5 km/h (4 Bft) N-NO 22 0 min 0,0 UV-I 0 W/m 1,4 C -7,6 C 29,0 km/h (5 Bft)
11.05.2020 06:04 2,4 C 2,2 C 93 % 1007,5 hPa 0,0 l/m 22,5 km/h (4 Bft) N 360 0 min 0,0 UV-I 0 W/m 1,4 C -7,6 C 30,6 km/h (5 Bft)
11.05.2020 06:05 2,4 C 2,2 C 93 % 1007,5 hPa 0,0 l/m 22,5 km/h (4 Bft) N-NO 22 0 min 0,0 UV-I 0 W/m 1,4 C -7,6 C 33,8 km/h (5 Bft)
11.05.2020 06:06 2,4 C 2,2 C 93 % 1007,5 hPa 0,0 l/m 19,3 km/h (3 Bft) N-NO 22 0 min 0,0 UV-I 0 W/m 1,4 C -6,2 C 29,0 km/h (5 Bft)
11.05.2020 06:07 2,4 C 2,2 C 93 % 1007,4 hPa 0,0 l/m 24,1 km/h (4 Bft) N 360 0 min 0,0 UV-I 0 W/m 1,4 C -8,1 C 30,6 km/h (5 Bft)
11.05.2020 06:08 2,4 C 2,2 C 93 % 1007,5 hPa 0,0 l/m 19,3 km/h (3 Bft) N-NO 22 0 min 0,0 UV-I 0 W/m 1,4 C -6,2 C 27,4 km/h (4 Bft)
11.05.2020 06:09 2,4 C 2,2 C 93 % 1007,5 hPa 0,0 l/m 27,4 km/h (4 Bft) N 360 0 min 0,0 UV-I 0 W/m 1,4 C -9,3 C 45,1 km/h (6 Bft)
11.05.2020 06:10 2,4 C 2,2 C 93 % 1007,5 hPa 0,0 l/m 24,1 km/h (4 Bft) N-NO 22 0 min 0,0 UV-I 0 W/m 1,4 C -8,1 C 35,4 km/h (5 Bft)
11.05.2020 06:11 2,4 C 2,2 C 93 % 1007,4 hPa 0,0 l/m 16,1 km/h (3 Bft) N 360 0 min 0,0 UV-I 0 W/m 1,4 C -4,7 C 20,9 km/h (4 Bft)
11.05.2020 06:12 2,4 C 2,2 C 93 % 1007,5 hPa 0,0 l/m 20,9 km/h (4 Bft) N-NO 22 0 min 0,0 UV-I 0 W/m 1,4 C -6,9 C 29,0 km/h (5 Bft)
11.05.2020 06:13 2,4 C 2,2 C 93 % 1007,4 hPa 0,0 l/m 27,4 km/h (4 Bft) N-NO 22 0 min 0,0 UV-I 0 W/m 1,4 C -9,3 C 37,0 km/h (5 Bft)
11.05.2020 06:14 2,4 C 2,2 C 93 % 1007,5 hPa 0,0 l/m 29,0 km/h (5 Bft) N 360 0 min 0,0 UV-I 0 W/m 1,4 C -9,7 C 40,2 km/h (6 Bft)
11.05.2020 06:15 2,4 C 2,2 C 93 % 1007,5 hPa 0,0 l/m 27,4 km/h (4 Bft) N-NO 22 0 min 0,0 UV-I 0 W/m 1,4 C -9,3 C 43,5 km/h (6 Bft)
11.05.2020 06:16 2,4 C 2,2 C 93 % 1007,4 hPa 0,0 l/m 22,5 km/h (4 Bft) N-NO 22 0 min 0,0 UV-I 0 W/m 1,4 C -7,6 C 35,4 km/h (5 Bft)
11.05.2020 06:17 2,3 C 2,2 C 93 % 1007,4 hPa 0,0 l/m 20,9 km/h (4 Bft) N 360 0 min 0,0 UV-I 0 W/m 1,3 C -7,0 C 30,6 km/h (5 Bft)
11.05.2020 06:18 2,3 C 2,2 C 93 % 1007,6 hPa 0,0 l/m 27,4 km/h (4 Bft) N-NO 22 0 min 0,0 UV-I 0 W/m 1,3 C -9,4 C 37,0 km/h (5 Bft)
11.05.2020 06:19 2,3 C 2,2 C 93 % 1007,5 hPa 0,0 l/m 33,8 km/h (5 Bft) N 360 0 min 0,0 UV-I 0 W/m 1,3 C -11,2 C 41,8 km/h (6 Bft)
11.05.2020 06:20 2,3 C 2,2 C 93 % 1007,4 hPa 0,2 l/m 22,5 km/h (4 Bft) N-NO 22 0 min 0,0 UV-I 0 W/m 1,3 C -7,7 C 33,8 km/h (5 Bft)
11.05.2020 06:21 2,3 C 2,2 C 93 % 1007,5 hPa 0,0 l/m 24,1 km/h (4 Bft) N-NO 22 0 min 0,0 UV-I 0 W/m 1,3 C -8,3 C 33,8 km/h (5 Bft)
11.05.2020 06:22 2,3 C 2,2 C 93 % 1007,5 hPa 0,0 l/m 30,6 km/h (5 Bft) N 360 0 min 0,0 UV-I 0 W/m 1,3 C -10,3 C 45,1 km/h (6 Bft)
11.05.2020 06:23 2,3 C 2,2 C 93 % 1007,6 hPa 0,0 l/m 20,9 km/h (4 Bft) N-NO 22 0 min 0,0 UV-I 0 W/m 1,3 C -7,0 C 33,8 km/h (5 Bft)
11.05.2020 06:24 2,3 C 2,2 C 93 % 1007,5 hPa 0,0 l/m 22,5 km/h (4 Bft) N-NO 22 0 min 0,0 UV-I 0 W/m 1,3 C -7,7 C 32,2 km/h (5 Bft)
11.05.2020 06:25 2,3 C 2,2 C 93 % 1007,5 hPa 0,0 l/m 20,9 km/h (4 Bft) N 360 0 min 0,0 UV-I 0 W/m 1,3 C -7,0 C 33,8 km/h (5 Bft)
11.05.2020 06:26 2,3 C 2,2 C 93 % 1007,5 hPa 0,0 l/m 27,4 km/h (4 Bft) N 360 0 min 0,0 UV-I 3 W/m 1,3 C -9,4 C 43,5 km/h (6 Bft)
11.05.2020 06:27 2,3 C 2,2 C 93 % 1007,5 hPa 0,0 l/m 29,0 km/h (5 Bft) N 360 0 min 0,0 UV-I 5 W/m 1,3 C -9,9 C 45,1 km/h (6 Bft)
11.05.2020 06:28 2,3 C 2,2 C 93 % 1007,5 hPa 0,0 l/m 25,7 km/h (4 Bft) N 360 0 min 0,0 UV-I 5 W/m 1,3 C -8,8 C 38,6 km/h (5 Bft)
11.05.2020 06:29 2,3 C 2,2 C 93 % 1007,5 hPa 0,0 l/m 25,7 km/h (4 Bft) N 360 0 min 0,0 UV-I 5 W/m 1,3 C -8,8 C 35,4 km/h (5 Bft)
11.05.2020 06:30 2,3 C 2,2 C 93 % 1007,5 hPa 0,0 l/m 27,4 km/h (4 Bft) N 360 0 min 0,0 UV-I 5 W/m 1,3 C -9,4 C 41,8 km/h (6 Bft)
11.05.2020 06:31 2,3 C 2,2 C 93 % 1007,4 hPa 0,0 l/m 27,4 km/h (4 Bft) N-NO 22 0 min 0,0 UV-I 5 W/m 1,3 C -9,4 C 40,2 km/h (6 Bft)
11.05.2020 06:32 2,3 C 2,2 C 93 % 1007,5 hPa 0,0 l/m 24,1 km/h (4 Bft) N-NO 22 0 min 0,0 UV-I 5 W/m 1,3 C -8,3 C 32,2 km/h (5 Bft)
11.05.2020 06:33 2,3 C 2,2 C 93 % 1007,5 hPa 0,0 l/m 24,1 km/h (4 Bft) N-NO 22 0 min 0,0 UV-I 5 W/m 1,3 C -8,3 C 35,4 km/h (5 Bft)
11.05.2020 06:34 2,3 C 2,2 C 93 % 1007,5 hPa 0,0 l/m 25,7 km/h (4 Bft) N 360 0 min 0,0 UV-I 5 W/m 1,3 C -8,8 C 37,0 km/h (5 Bft)
11.05.2020 06:35 2,3 C 2,2 C 93 % 1007,6 hPa 0,0 l/m 24,1 km/h (4 Bft) N 360 0 min 0,0 UV-I 5 W/m 1,3 C -8,3 C 38,6 km/h (5 Bft)
11.05.2020 06:36 2,3 C 2,2 C 93 % 1007,5 hPa 0,0 l/m 20,9 km/h (4 Bft) N 360 0 min 0,0 UV-I 5 W/m 1,3 C -7,0 C 29,0 km/h (5 Bft)
11.05.2020 06:37 2,3 C 2,2 C 93 % 1007,5 hPa 0,0 l/m 22,5 km/h (4 Bft) N-NO 22 0 min 0,0 UV-I 7 W/m 1,3 C -7,7 C 27,4 km/h (4 Bft)
11.05.2020 06:38 2,3 C 2,2 C 93 % 1007,5 hPa 0,0 l/m 20,9 km/h (4 Bft) N-NO 22 0 min 0,0 UV-I 7 W/m 1,3 C -7,0 C 27,4 km/h (4 Bft)
11.05.2020 06:39 2,3 C 2,2 C 93 % 1007,5 hPa 0,2 l/m 20,9 km/h (4 Bft) N-NO 22 0 min 0,0 UV-I 7 W/m 1,3 C -7,0 C 29,0 km/h (5 Bft)
11.05.2020 06:40 2,3 C 2,2 C 93 % 1007,6 hPa 0,0 l/m 27,4 km/h (4 Bft) N 360 0 min 0,0 UV-I 9 W/m 1,3 C -9,4 C 37,0 km/h (5 Bft)
11.05.2020 06:41 2,3 C 2,2 C 93 % 1007,6 hPa 0,0 l/m 25,7 km/h (4 Bft) N-NO 22 0 min 0,0 UV-I 9 W/m 1,3 C -8,8 C 35,4 km/h (5 Bft)
11.05.2020 06:42 2,3 C 2,2 C 93 % 1007,6 hPa 0,0 l/m 16,1 km/h (3 Bft) N 360 0 min 0,0 UV-I 7 W/m 1,3 C -4,8 C 20,9 km/h (4 Bft)
11.05.2020 06:43 2,3 C 2,2 C 93 % 1007,7 hPa 0,0 l/m 25,7 km/h (4 Bft) N 360 0 min 0,0 UV-I 7 W/m 1,3 C -8,8 C 38,6 km/h (5 Bft)
11.05.2020 06:44 2,3 C 2,2 C 93 % 1007,6 hPa 0,0 l/m 22,5 km/h (4 Bft) N-NO 22 0 min 0,0 UV-I 7 W/m 1,3 C -7,7 C 35,4 km/h (5 Bft)
11.05.2020 06:45 2,3 C 2,2 C 93 % 1007,6 hPa 0,0 l/m 19,3 km/h (3 Bft) N 360 0 min 0,0 UV-I 9 W/m 1,3 C -6,4 C 27,4 km/h (4 Bft)
11.05.2020 06:46 2,3 C 2,2 C 93 % 1007,6 hPa 0,0 l/m 27,4 km/h (4 Bft) N-NO 22 0 min 0,0 UV-I 9 W/m 1,3 C -9,4 C 41,8 km/h (6 Bft)
11.05.2020 06:47 2,3 C 2,2 C 93 % 1007,5 hPa 0,0 l/m 29,0 km/h (5 Bft) N 360 0 min 0,0 UV-I 9 W/m 1,3 C -9,9 C 43,5 km/h (6 Bft)
11.05.2020 06:48 2,3 C 2,2 C 93 % 1007,5 hPa 0,0 l/m 29,0 km/h (5 Bft) N-NO 22 0 min 0,0 UV-I 7 W/m 1,3 C -9,9 C 40,2 km/h (6 Bft)
11.05.2020 06:49 2,2 C 2,2 C 93 % 1007,7 hPa 0,0 l/m 29,0 km/h (5 Bft) N 360 0 min 0,0 UV-I 9 W/m 1,2 C -10,0 C 38,6 km/h (5 Bft)
11.05.2020 06:50 2,2 C 2,2 C 93 % 1007,7 hPa 0,0 l/m 25,7 km/h (4 Bft) N 360 0 min 0,0 UV-I 9 W/m 1,2 C -9,0 C 40,2 km/h (6 Bft)
11.05.2020 06:51 2,3 C 2,2 C 93 % 1007,5 hPa 0,0 l/m 22,5 km/h (4 Bft) N 360 0 min 0,0 UV-I 9 W/m 1,3 C -7,7 C 38,6 km/h (5 Bft)
11.05.2020 06:52 2,2 C 2,2 C 93 % 1007,5 hPa 0,0 l/m 16,1 km/h (3 Bft) N-NO 22 0 min 0,0 UV-I 7 W/m 1,2 C -4,9 C 22,5 km/h (4 Bft)
11.05.2020 06:53 2,2 C 2,2 C 93 % 1007,6 hPa 0,0 l/m 19,3 km/h (3 Bft) N 360 0 min 0,0 UV-I 7 W/m 1,2 C -6,5 C 30,6 km/h (5 Bft)
11.05.2020 06:54 2,2 C 2,2 C 93 % 1007,7 hPa 0,0 l/m 30,6 km/h (5 Bft) N 360 0 min 0,0 UV-I 7 W/m 1,2 C -10,5 C 41,8 km/h (6 Bft)
11.05.2020 06:55 2,2 C 2,2 C 93 % 1007,6 hPa 0,2 l/m 27,4 km/h (4 Bft) N 360 0 min 0,0 UV-I 7 W/m 1,2 C -9,5 C 43,5 km/h (6 Bft)
11.05.2020 06:56 2,2 C 2,2 C 93 % 1007,6 hPa 0,0 l/m 27,4 km/h (4 Bft) N 360 0 min 0,0 UV-I 9 W/m 1,2 C -9,5 C 38,6 km/h (5 Bft)
11.05.2020 06:57 2,2 C 2,2 C 93 % 1007,5 hPa 0,0 l/m 20,9 km/h (4 Bft) N 360 0 min 0,0 UV-I 9 W/m 1,2 C -7,2 C 30,6 km/h (5 Bft)
11.05.2020 06:58 2,2 C 2,2 C 93 % 1007,7 hPa 0,0 l/m 32,2 km/h (5 Bft) N 360 0 min 0,0 UV-I 9 W/m 1,2 C -10,9 C 46,7 km/h (6 Bft)
11.05.2020 06:59 2,2 C 2,2 C 93 % 1007,6 hPa 0,0 l/m 22,5 km/h (4 Bft) N 360 0 min 0,0 UV-I 9 W/m 1,2 C -7,8 C 37,0 km/h (5 Bft)
11.05.2020 07:00 2,2 C 2,2 C 93 % 1007,6 hPa 0,0 l/m 24,1 km/h (4 Bft) N-NO 22 0 min 0,0 UV-I 9 W/m 1,2 C -8,4 C 37,0 km/h (5 Bft)
11.05.2020 07:01 2,2 C 2,2 C 93 % 1007,7 hPa 0,0 l/m 17,7 km/h (3 Bft) N 360 0 min 0,0 UV-I 9 W/m 1,2 C -5,7 C 29,0 km/h (5 Bft)
11.05.2020 07:02 2,2 C 2,2 C 93 % 1007,6 hPa 0,0 l/m 17,7 km/h (3 Bft) N 360 0 min 0,0 UV-I 11 W/m 1,2 C -5,7 C 27,4 km/h (4 Bft)
11.05.2020 07:03 2,2 C 2,2 C 93 % 1007,6 hPa 0,0 l/m 20,9 km/h (4 Bft) N-NO 22 0 min 0,0 UV-I 11 W/m 1,2 C -7,2 C 32,2 km/h (5 Bft)
11.05.2020 07:04 2,2 C 2,2 C 93 % 1007,7 hPa 0,0 l/m 17,7 km/h (3 Bft) N-NO 22 0 min 0,0 UV-I 11 W/m 1,2 C -5,7 C 27,4 km/h (4 Bft)
11.05.2020 07:05 2,3 C 2,2 C 93 % 1007,6 hPa 0,0 l/m 20,9 km/h (4 Bft) N 360 0 min 0,0 UV-I 11 W/m 1,3 C -7,0 C 32,2 km/h (5 Bft)
11.05.2020 07:06 2,2 C 2,2 C 93 % 1007,7 hPa 0,0 l/m 27,4 km/h (4 Bft) N 360 0 min 0,0 UV-I 11 W/m 1,2 C -9,5 C 45,1 km/h (6 Bft)
11.05.2020 07:07 2,2 C 2,2 C 93 % 1007,7 hPa 0,0 l/m 20,9 km/h (4 Bft) N 360 0 min 0,0 UV-I 12 W/m 1,2 C -7,2 C 29,0 km/h (5 Bft)
11.05.2020 07:08 2,2 C 2,2 C 93 % 1007,8 hPa 0,0 l/m 24,1 km/h (4 Bft) N-NO 22 0 min 0,0 UV-I 12 W/m 1,2 C -8,4 C 37,0 km/h (5 Bft)
11.05.2020 07:09 2,2 C 2,2 C 93 % 1007,7 hPa 0,0 l/m 33,8 km/h (5 Bft) N 360 0 min 0,0 UV-I 11 W/m 1,2 C -11,3 C 48,3 km/h (6 Bft)
11.05.2020 07:10 2,2 C 2,2 C 93 % 1007,6 hPa 0,0 l/m 25,7 km/h (4 Bft) N 360 0 min 0,0 UV-I 11 W/m 1,2 C -9,0 C 38,6 km/h (5 Bft)
11.05.2020 07:11 2,2 C 2,2 C 93 % 1007,7 hPa 0,2 l/m 25,7 km/h (4 Bft) N 360 0 min 0,0 UV-I 12 W/m 1,2 C -9,0 C 32,2 km/h (5 Bft)
11.05.2020 07:12 2,2 C 2,2 C 93 % 1007,7 hPa 0,0 l/m 25,7 km/h (4 Bft) N 360 0 min 0,0 UV-I 12 W/m 1,2 C -9,0 C 30,6 km/h (5 Bft)
11.05.2020 07:13 2,2 C 2,2 C 93 % 1007,7 hPa 0,0 l/m 29,0 km/h (5 Bft) N 360 0 min 0,0 UV-I 12 W/m 1,2 C -10,0 C 46,7 km/h (6 Bft)
11.05.2020 07:14 2,2 C 2,2 C 93 % 1007,6 hPa 0,0 l/m 29,0 km/h (5 Bft) N 360 0 min 0,0 UV-I 12 W/m 1,2 C -10,0 C 38,6 km/h (5 Bft)
11.05.2020 07:15 2,2 C 2,2 C 93 % 1007,8 hPa 0,0 l/m 25,7 km/h (4 Bft) N 360 0 min 0,0 UV-I 16 W/m 1,2 C -9,0 C 33,8 km/h (5 Bft)
11.05.2020 07:16 2,2 C 2,2 C 93 % 1007,7 hPa 0,0 l/m 29,0 km/h (5 Bft) N 360 0 min 0,0 UV-I 16 W/m 1,2 C -10,0 C 37,0 km/h (5 Bft)
11.05.2020 07:17 2,2 C 2,2 C 93 % 1007,7 hPa 0,0 l/m 30,6 km/h (5 Bft) N-NO 22 0 min 0,0 UV-I 14 W/m 1,2 C -10,5 C 38,6 km/h (5 Bft)
11.05.2020 07:18 2,2 C 2,2 C 93 % 1007,6 hPa 0,0 l/m 24,1 km/h (4 Bft) N 360 0 min 0,0 UV-I 14 W/m 1,2 C -8,4 C 38,6 km/h (5 Bft)
11.05.2020 07:19 2,2 C 2,2 C 93 % 1007,7 hPa 0,0 l/m 25,7 km/h (4 Bft) N 360 0 min 0,0 UV-I 13 W/m 1,2 C -9,0 C 35,4 km/h (5 Bft)
11.05.2020 07:20 2,2 C 2,2 C 93 % 1007,7 hPa 0,0 l/m 22,5 km/h (4 Bft) N 360 0 min 0,0 UV-I 14 W/m 1,2 C -7,8 C 30,6 km/h (5 Bft)
11.05.2020 07:21 2,2 C 2,2 C 93 % 1007,6 hPa 0,0 l/m 22,5 km/h (4 Bft) N 360 0 min 0,0 UV-I 14 W/m 1,2 C -7,8 C 41,8 km/h (6 Bft)
11.05.2020 07:22 2,2 C 2,2 C 93 % 1007,8 hPa 0,0 l/m 25,7 km/h (4 Bft) N 360 0 min 0,0 UV-I 12 W/m 1,2 C -9,0 C 45,1 km/h (6 Bft)
11.05.2020 07:23 2,2 C 2,2 C 93 % 1007,7 hPa 0,0 l/m 32,2 km/h (5 Bft) N 360 0 min 0,0 UV-I 12 W/m 1,2 C -10,9 C 48,3 km/h (6 Bft)
11.05.2020 07:24 2,2 C 2,2 C 93 % 1007,7 hPa 0,0 l/m 22,5 km/h (4 Bft) N 360 0 min 0,0 UV-I 12 W/m 1,2 C -7,8 C 37,0 km/h (5 Bft)
11.05.2020 07:25 2,2 C 2,2 C 93 % 1007,6 hPa 0,0 l/m 22,5 km/h (4 Bft) N 360 0 min 0,0 UV-I 12 W/m 1,2 C -7,8 C 32,2 km/h (5 Bft)
11.05.2020 07:26 2,2 C 2,2 C 93 % 1007,8 hPa 0,2 l/m 33,8 km/h (5 Bft) N 360 0 min 0,0 UV-I 14 W/m 1,2 C -11,3 C 48,3 km/h (6 Bft)
11.05.2020 07:27 2,2 C 2,2 C 93 % 1007,7 hPa 0,0 l/m 24,1 km/h (4 Bft) N 360 0 min 0,0 UV-I 12 W/m 1,2 C -8,4 C 40,2 km/h (6 Bft)
11.05.2020 07:28 2,1 C 2,2 C 93 % 1007,8 hPa 0,0 l/m 27,4 km/h (4 Bft) N 360 0 min 0,0 UV-I 12 W/m 1,1 C -9,7 C 37,0 km/h (5 Bft)
11.05.2020 07:30 2,2 C 2,2 C 93 % 1007,9 hPa 0,0 l/m 19,8 km/h (3 Bft) N-NO 30 0 min 0,0 UV-I 14 W/m 1,2 C -6,7 C 25,7 km/h (4 Bft)
11.05.2020 07:32 2,2 C 2,2 C 93 % 1007,7 hPa 0,0 l/m 28,0 km/h (4 Bft) N-NO 20 0 min 0,0 UV-I 16 W/m 1,2 C -9,7 C 41,8 km/h (6 Bft)
11.05.2020 07:34 2,1 C 2,2 C 93 % 1007,8 hPa 0,0 l/m 24,2 km/h (4 Bft) N-NO 28 0 min 0,0 UV-I 18 W/m 1,1 C -8,6 C 38,6 km/h (5 Bft)
11.05.2020 07:36 2,1 C 2,2 C 93 % 1007,7 hPa 0,0 l/m 27,6 km/h (4 Bft) N-NO 12 0 min 0,0 UV-I 17 W/m 1,1 C -9,7 C 46,7 km/h (6 Bft)
11.05.2020 07:38 2,1 C 2,2 C 93 % 1007,9 hPa 0,0 l/m 25,5 km/h (4 Bft) N 10 0 min 0,0 UV-I 19 W/m 1,1 C -9,0 C 37,0 km/h (5 Bft)
11.05.2020 07:40 2,1 C 2,2 C 93 % 1007,8 hPa 0,0 l/m 23,3 km/h (4 Bft) N-NO 16 0 min 0,0 UV-I 22 W/m 1,1 C -8,3 C 41,8 km/h (6 Bft)
11.05.2020 07:42 2,1 C 2,2 C 93 % 1007,8 hPa 0,0 l/m 20,8 km/h (4 Bft) NO 40 0 min 0,0 UV-I 26 W/m 1,1 C -7,3 C 37,0 km/h (5 Bft)
11.05.2020 07:44 2,1 C 2,2 C 93 % 1007,8 hPa 0,0 l/m 23,7 km/h (4 Bft) NO 34 0 min 0,0 UV-I 27 W/m 1,1 C -8,4 C 33,8 km/h (5 Bft)
11.05.2020 07:46 2,1 C 2,2 C 93 % 1007,7 hPa 0,0 l/m 21,0 km/h (4 Bft) N-NO 33 0 min 0,0 UV-I 30 W/m 1,1 C -7,3 C 33,8 km/h (5 Bft)
11.05.2020 07:48 2,1 C 2,2 C 93 % 1007,7 hPa 0,0 l/m 20,5 km/h (4 Bft) N-NO 21 0 min 0,0 UV-I 29 W/m 1,1 C -7,1 C 33,8 km/h (5 Bft)
11.05.2020 07:50 2,0 C 2,2 C 93 % 1007,8 hPa 0,0 l/m 34,3 km/h (5 Bft) N-NO 22 0 min 0,0 UV-I 31 W/m 1,0 C -11,7 C 54,7 km/h (7 Bft)
11.05.2020 07:52 1,9 C 2,2 C 93 % 1007,7 hPa 0,0 l/m 31,0 km/h (5 Bft) N 5 0 min 0,0 UV-I 34 W/m 0,9 C -11,0 C 46,7 km/h (6 Bft)
11.05.2020 07:54 1,9 C 2,2 C 93 % 1007,8 hPa 0,0 l/m 22,0 km/h (4 Bft) N 5 0 min 0,0 UV-I 35 W/m 0,9 C -8,0 C 40,2 km/h (6 Bft)
11.05.2020 07:56 1,9 C 2,2 C 93 % 1007,7 hPa 0,0 l/m 28,4 km/h (4 Bft) N-NO 28 0 min 0,0 UV-I 35 W/m 0,9 C -10,3 C 48,3 km/h (6 Bft)
11.05.2020 07:58 1,9 C 2,2 C 93 % 1007,8 hPa 0,0 l/m 22,1 km/h (4 Bft) N-NO 21 0 min 0,0 UV-I 37 W/m 0,9 C -8,1 C 32,2 km/h (5 Bft)
11.05.2020 08:00 1,9 C 2,2 C 93 % 1007,8 hPa 0,0 l/m 23,2 km/h (4 Bft) N-NO 13 0 min 0,0 UV-I 37 W/m 0,9 C -8,5 C 41,8 km/h (6 Bft)
11.05.2020 08:02 1,9 C 2,2 C 93 % 1008,0 hPa 0,0 l/m 18,4 km/h (3 Bft) N-NW 344 0 min 0,0 UV-I 40 W/m 0,9 C -6,4 C 29,0 km/h (5 Bft)
11.05.2020 08:04 1,9 C 2,2 C 93 % 1007,8 hPa 0,0 l/m 22,4 km/h (4 Bft) N-NO 26 0 min 0,0 UV-I 42 W/m 0,9 C -8,2 C 33,8 km/h (5 Bft)
11.05.2020 08:06 1,9 C 2,2 C 93 % 1007,8 hPa 0,0 l/m 23,8 km/h (4 Bft) N-NO 22 0 min 0,0 UV-I 47 W/m 0,9 C -8,7 C 35,4 km/h (5 Bft)
11.05.2020 08:08 1,9 C 2,2 C 93 % 1007,8 hPa 0,0 l/m 20,9 km/h (4 Bft) N-NO 22 0 min 0,0 UV-I 50 W/m 0,9 C -7,6 C 29,0 km/h (5 Bft)
11.05.2020 08:10 1,9 C 2,2 C 93 % 1008,0 hPa 0,2 l/m 21,0 km/h (4 Bft) N-NO 19 0 min 0,0 UV-I 56 W/m 0,9 C -7,6 C 33,8 km/h (5 Bft)
11.05.2020 08:12 1,9 C 2,2 C 93 % 1007,7 hPa 0,0 l/m 26,1 km/h (4 Bft) N-NO 17 0 min 0,0 UV-I 54 W/m 0,9 C -9,5 C 45,1 km/h (6 Bft)
11.05.2020 08:14 1,9 C 2,2 C 93 % 1007,9 hPa 0,0 l/m 25,5 km/h (4 Bft) N 9 0 min 0,0 UV-I 58 W/m 0,9 C -9,3 C 38,6 km/h (5 Bft)
11.05.2020 08:16 1,9 C 2,2 C 93 % 1007,7 hPa 0,0 l/m 21,2 km/h (4 Bft) N-NW 333 0 min 0,0 UV-I 58 W/m 0,9 C -7,7 C 40,2 km/h (6 Bft)
11.05.2020 08:18 1,9 C 2,2 C 93 % 1007,7 hPa 0,0 l/m 20,7 km/h (4 Bft) N-NW 338 0 min 0,0 UV-I 60 W/m 0,9 C -7,5 C 37,0 km/h (5 Bft)
11.05.2020 08:20 1,9 C 2,2 C 93 % 1007,8 hPa 0,0 l/m 21,2 km/h (4 Bft) N-NO 33 0 min 0,0 UV-I 60 W/m 0,9 C -7,7 C 30,6 km/h (5 Bft)
11.05.2020 08:22 1,9 C 2,2 C 93 % 1007,8 hPa 0,0 l/m 24,8 km/h (4 Bft) N-NO 17 0 min 0,0 UV-I 64 W/m 0,9 C -9,1 C 33,8 km/h (5 Bft)
11.05.2020 08:24 1,9 C 2,2 C 93 % 1007,8 hPa 0,0 l/m 28,5 km/h (4 Bft) N 360 0 min 0,0 UV-I 57 W/m 0,9 C -10,3 C 40,2 km/h (6 Bft)
11.05.2020 08:26 1,9 C 2,2 C 93 % 1007,8 hPa 0,0 l/m 22,9 km/h (4 Bft) N-NO 32 0 min 0,0 UV-I 54 W/m 0,9 C -8,4 C 37,0 km/h (5 Bft)
11.05.2020 08:28 1,9 C 2,2 C 93 % 1007,8 hPa 0,0 l/m 25,0 km/h (4 Bft) N 355 0 min 0,0 UV-I 52 W/m 0,9 C -9,1 C 35,4 km/h (5 Bft)
11.05.2020 08:30 1,9 C 2,2 C 93 % 1007,9 hPa 0,0 l/m 29,0 km/h (5 Bft) N 355 0 min 0,0 UV-I 53 W/m 0,9 C -10,4 C 46,7 km/h (6 Bft)
11.05.2020 08:32 1,9 C 2,2 C 92 % 1007,8 hPa 0,0 l/m 25,9 km/h (4 Bft) N 9 0 min 0,0 UV-I 53 W/m 0,7 C -9,5 C 43,5 km/h (6 Bft)
11.05.2020 08:34 1,8 C 2,2 C 92 % 1007,9 hPa 0,0 l/m 28,3 km/h (4 Bft) N 5 0 min 0,0 UV-I 57 W/m 0,6 C -10,4 C 41,8 km/h (6 Bft)
11.05.2020 08:36 1,9 C 2,2 C 92 % 1007,8 hPa 0,0 l/m 22,7 km/h (4 Bft) N-NO 13 0 min 0,0 UV-I 66 W/m 0,7 C -8,3 C 40,2 km/h (6 Bft)
11.05.2020 08:38 1,9 C 2,2 C 93 % 1007,8 hPa 0,0 l/m 18,2 km/h (3 Bft) N-NO 29 0 min 0,0 UV-I 68 W/m 0,9 C -6,4 C 25,7 km/h (4 Bft)
11.05.2020 08:40 1,9 C 2,2 C 93 % 1007,8 hPa 0,0 l/m 23,2 km/h (4 Bft) N-NO 22 0 min 0,0 UV-I 70 W/m 0,9 C -8,5 C 35,4 km/h (5 Bft)
11.05.2020 08:42 1,9 C 2,2 C 93 % 1007,7 hPa 0,0 l/m 22,3 km/h (4 Bft) N 360 0 min 0,2 UV-I 79 W/m 0,9 C -8,1 C 40,2 km/h (6 Bft)
11.05.2020 08:44 1,9 C 2,2 C 93 % 1007,8 hPa 0,0 l/m 27,1 km/h (4 Bft) N-NO 21 0 min 0,4 UV-I 80 W/m 0,9 C -9,9 C 43,5 km/h (6 Bft)
11.05.2020 08:46 1,9 C 2,2 C 92 % 1007,8 hPa 0,0 l/m 27,2 km/h (4 Bft) N-NO 23 0 min 0,0 UV-I 73 W/m 0,7 C -9,9 C 40,2 km/h (6 Bft)
11.05.2020 08:48 1,9 C 2,2 C 92 % 1007,8 hPa 0,0 l/m 18,8 km/h (3 Bft) N-NO 31 0 min 0,2 UV-I 72 W/m 0,7 C -6,6 C 25,7 km/h (4 Bft)
11.05.2020 08:50 1,9 C 2,2 C 93 % 1007,9 hPa 0,0 l/m 18,0 km/h (3 Bft) NO 38 0 min 0,5 UV-I 71 W/m 0,9 C -6,3 C 30,6 km/h (5 Bft)
11.05.2020 08:52 1,9 C 2,2 C 92 % 1007,9 hPa 0,0 l/m 25,4 km/h (4 Bft) N-NW 346 0 min 0,1 UV-I 66 W/m 0,7 C -9,3 C 45,1 km/h (6 Bft)
11.05.2020 08:54 1,9 C 2,2 C 92 % 1007,8 hPa 0,0 l/m 24,3 km/h (4 Bft) N 355 0 min 0,0 UV-I 70 W/m 0,7 C -8,9 C 40,2 km/h (6 Bft)
11.05.2020 08:56 1,9 C 2,2 C 92 % 1007,7 hPa 0,0 l/m 26,7 km/h (4 Bft) N 5 0 min 0,4 UV-I 90 W/m 0,7 C -9,7 C 38,6 km/h (5 Bft)
11.05.2020 08:58 1,9 C 2,2 C 92 % 1007,8 hPa 0,0 l/m 24,5 km/h (4 Bft) N 11 0 min 0,6 UV-I 104 W/m 0,7 C -9,0 C 35,4 km/h (5 Bft)
11.05.2020 09:00 1,9 C 2,2 C 92 % 1007,8 hPa 0,0 l/m 25,9 km/h (4 Bft) N-NW 338 0 min 0,5 UV-I 95 W/m 0,7 C -9,5 C 43,5 km/h (6 Bft)
11.05.2020 09:02 1,9 C 2,2 C 92 % 1007,8 hPa 0,0 l/m 22,9 km/h (4 Bft) N 355 0 min 0,5 UV-I 86 W/m 0,7 C -8,4 C 38,6 km/h (5 Bft)
11.05.2020 09:04 1,9 C 2,2 C 92 % 1007,9 hPa 0,0 l/m 23,3 km/h (4 Bft) N 351 0 min 0,5 UV-I 96 W/m 0,7 C -8,5 C 35,4 km/h (5 Bft)
11.05.2020 09:06 1,9 C 2,2 C 92 % 1007,8 hPa 0,0 l/m 24,0 km/h (4 Bft) NO 36 0 min 0,6 UV-I 103 W/m 0,7 C -8,8 C 33,8 km/h (5 Bft)
11.05.2020 09:08 1,9 C 2,2 C 92 % 1007,8 hPa 0,0 l/m 29,9 km/h (5 Bft) N-NW 346 0 min 0,6 UV-I 104 W/m 0,7 C -10,7 C 43,5 km/h (6 Bft)
11.05.2020 09:10 2,0 C 2,2 C 92 % 1007,9 hPa 0,0 l/m 23,9 km/h (4 Bft) N-NW 348 0 min 0,6 UV-I 112 W/m 0,8 C -8,6 C 51,5 km/h (7 Bft)
11.05.2020 09:12 2,0 C 2,2 C 92 % 1007,9 hPa 0,0 l/m 24,5 km/h (4 Bft) N-NW 347 0 min 0,6 UV-I 97 W/m 0,8 C -8,8 C 48,3 km/h (6 Bft)
11.05.2020 09:14 2,1 C 2,2 C 92 % 1007,9 hPa 0,0 l/m 21,3 km/h (4 Bft) N-NO 15 0 min 0,6 UV-I 94 W/m 0,9 C -7,5 C 32,2 km/h (5 Bft)
11.05.2020 09:16 2,1 C 2,2 C 92 % 1007,9 hPa 0,0 l/m 19,5 km/h (3 Bft) N 5 0 min 0,6 UV-I 98 W/m 0,9 C -6,7 C 30,6 km/h (5 Bft)
11.05.2020 09:18 2,1 C 2,8 C 91 % 1007,9 hPa 0,0 l/m 24,6 km/h (4 Bft) N-NW 342 0 min 0,6 UV-I 93 W/m 0,8 C -8,7 C 33,8 km/h (5 Bft)
11.05.2020 09:20 2,1 C 2,8 C 91 % 1008,0 hPa 0,0 l/m 24,5 km/h (4 Bft) N-NW 348 0 min 0,5 UV-I 92 W/m 0,8 C -8,7 C 49,9 km/h (6 Bft)
11.05.2020 09:22 2,1 C 2,8 C 91 % 1008,0 hPa 0,0 l/m 26,3 km/h (4 Bft) N-NO 13 0 min 0,5 UV-I 89 W/m 0,8 C -9,3 C 41,8 km/h (6 Bft)
11.05.2020 09:24 2,1 C 2,8 C 91 % 1008,0 hPa 0,0 l/m 22,0 km/h (4 Bft) N-NW 339 0 min 0,7 UV-I 115 W/m 0,8 C -7,8 C 32,2 km/h (5 Bft)
11.05.2020 09:26 2,1 C 2,8 C 91 % 1007,9 hPa 0,0 l/m 24,6 km/h (4 Bft) N 10 0 min 0,6 UV-I 108 W/m 0,8 C -8,7 C 40,2 km/h (6 Bft)
11.05.2020 09:28 2,2 C 2,8 C 91 % 1008,0 hPa 0,0 l/m 21,2 km/h (4 Bft) NO 46 0 min 0,8 UV-I 129 W/m 0,9 C -7,3 C 32,2 km/h (5 Bft)
11.05.2020 09:30 2,2 C 2,8 C 91 % 1008,0 hPa 0,0 l/m 22,9 km/h (4 Bft) N 5 0 min 0,7 UV-I 118 W/m 0,9 C -8,0 C 40,2 km/h (6 Bft)
11.05.2020 09:32 2,2 C 2,8 C 91 % 1008,0 hPa 0,0 l/m 23,8 km/h (4 Bft) N 360 0 min 0,6 UV-I 102 W/m 0,9 C -8,3 C 37,0 km/h (5 Bft)
11.05.2020 09:34 2,2 C 2,8 C 91 % 1008,1 hPa 0,0 l/m 18,8 km/h (3 Bft) N 5 0 min 0,8 UV-I 121 W/m 0,9 C -6,3 C 30,6 km/h (5 Bft)
11.05.2020 09:36 2,2 C 2,8 C 91 % 1008,0 hPa 0,0 l/m 27,6 km/h (4 Bft) N-NO 32 0 min 0,6 UV-I 105 W/m 0,9 C -9,6 C 43,5 km/h (6 Bft)
11.05.2020 09:38 2,2 C 2,8 C 90 % 1008,0 hPa 0,0 l/m 25,0 km/h (4 Bft) N-NO 30 0 min 0,6 UV-I 102 W/m 0,7 C -8,7 C 46,7 km/h (6 Bft)
11.05.2020 09:40 2,2 C 2,8 C 90 % 1008,0 hPa 0,0 l/m 25,2 km/h (4 Bft) N-NO 29 0 min 0,7 UV-I 111 W/m 0,7 C -8,8 C 37,0 km/h (5 Bft)
11.05.2020 09:42 2,2 C 2,8 C 90 % 1008,1 hPa 0,0 l/m 32,3 km/h (5 Bft) N-NO 14 0 min 0,7 UV-I 107 W/m 0,7 C -10,9 C 51,5 km/h (7 Bft)
11.05.2020 09:44 2,2 C 2,8 C 90 % 1008,2 hPa 0,0 l/m 22,8 km/h (4 Bft) NW 326 0 min 0,6 UV-I 100 W/m 0,7 C -7,9 C 38,6 km/h (5 Bft)
11.05.2020 09:46 2,2 C 2,8 C 90 % 1008,1 hPa 0,0 l/m 23,7 km/h (4 Bft) N 5 0 min 0,6 UV-I 89 W/m 0,7 C -8,3 C 38,6 km/h (5 Bft)
11.05.2020 09:48 2,2 C 2,8 C 90 % 1008,2 hPa 0,0 l/m 16,6 km/h (3 Bft) N 11 0 min 0,6 UV-I 90 W/m 0,7 C -5,2 C 24,1 km/h (4 Bft)
11.05.2020 09:50 2,2 C 2,8 C 90 % 1008,1 hPa 0,0 l/m 25,6 km/h (4 Bft) N-NO 13 0 min 0,7 UV-I 95 W/m 0,7 C -8,9 C 45,1 km/h (6 Bft)
11.05.2020 09:52 2,2 C 2,8 C 90 % 1008,1 hPa 0,0 l/m 28,0 km/h (4 Bft) N-NO 13 0 min 0,6 UV-I 84 W/m 0,7 C -9,7 C 43,5 km/h (6 Bft)
11.05.2020 09:54 2,1 C 2,2 C 89 % 1008,0 hPa 0,0 l/m 26,4 km/h (4 Bft) N-NW 348 0 min 0,5 UV-I 71 W/m 0,5 C -9,3 C 38,6 km/h (5 Bft)
11.05.2020 09:56 2,1 C 2,2 C 89 % 1008,1 hPa 0,0 l/m 28,8 km/h (4 Bft) N-NO 32 0 min 0,6 UV-I 81 W/m 0,5 C -10,1 C 41,8 km/h (6 Bft)
11.05.2020 09:58 2,1 C 2,2 C 89 % 1008,3 hPa 0,0 l/m 25,8 km/h (4 Bft) NO 42 0 min 0,6 UV-I 89 W/m 0,5 C -9,1 C 40,2 km/h (6 Bft)
11.05.2020 10:00 2,1 C 2,8 C 89 % 1008,2 hPa 0,0 l/m 20,5 km/h (4 Bft) N-NO 32 0 min 0,6 UV-I 88 W/m 0,5 C -7,1 C 30,6 km/h (5 Bft)
11.05.2020 10:02 2,1 C 2,8 C 89 % 1008,3 hPa 0,0 l/m 31,6 km/h (5 Bft) N 360 0 min 0,6 UV-I 90 W/m 0,5 C -10,9 C 41,8 km/h (6 Bft)
11.05.2020 10:04 2,1 C 2,8 C 89 % 1008,2 hPa 0,0 l/m 28,0 km/h (4 Bft) N 10 0 min 0,7 UV-I 103 W/m 0,5 C -9,9 C 40,2 km/h (6 Bft)
11.05.2020 10:06 2,1 C 2,8 C 89 % 1008,2 hPa 0,0 l/m 29,3 km/h (5 Bft) N-NO 22 0 min 0,8 UV-I 118 W/m 0,5 C -10,3 C 43,5 km/h (6 Bft)
11.05.2020 10:08 2,2 C 2,8 C 89 % 1008,2 hPa 0,0 l/m 25,3 km/h (4 Bft) N-NW 342 0 min 0,9 UV-I 132 W/m 0,6 C -8,8 C 40,2 km/h (6 Bft)
11.05.2020 10:10 2,2 C 2,8 C 89 % 1008,2 hPa 0,0 l/m 20,3 km/h (4 Bft) N-NO 30 0 min 1,0 UV-I 148 W/m 0,6 C -6,9 C 29,0 km/h (5 Bft)
11.05.2020 10:12 2,3 C 3,3 C 89 % 1008,2 hPa 0,0 l/m 22,9 km/h (4 Bft) N-NO 17 0 min 1,1 UV-I 161 W/m 0,7 C -7,8 C 35,4 km/h (5 Bft)
11.05.2020 10:14 2,3 C 3,3 C 88 % 1008,3 hPa 0,0 l/m 24,0 km/h (4 Bft) N 9 0 min 1,1 UV-I 159 W/m 0,5 C -8,2 C 35,4 km/h (5 Bft)
11.05.2020 10:16 2,4 C 3,3 C 89 % 1008,1 hPa 0,0 l/m 24,0 km/h (4 Bft) N-NO 13 0 min 1,1 UV-I 151 W/m 0,8 C -8,1 C 35,4 km/h (5 Bft)
11.05.2020 10:18 2,4 C 3,3 C 88 % 1008,2 hPa 0,0 l/m 24,6 km/h (4 Bft) N-NO 30 0 min 1,1 UV-I 152 W/m 0,6 C -8,3 C 35,4 km/h (5 Bft)
11.05.2020 10:20 2,4 C 3,3 C 88 % 1008,3 hPa 0,0 l/m 21,1 km/h (4 Bft) N-NO 32 0 min 1,2 UV-I 151 W/m 0,6 C -7,0 C 29,0 km/h (5 Bft)
11.05.2020 10:22 2,6 C 3,3 C 88 % 1008,3 hPa 0,0 l/m 20,3 km/h (4 Bft) N-NW 340 0 min 1,1 UV-I 153 W/m 0,8 C -6,4 C 38,6 km/h (5 Bft)
11.05.2020 10:24 2,6 C 3,3 C 88 % 1008,3 hPa 0,0 l/m 22,7 km/h (4 Bft) N-NO 24 0 min 1,1 UV-I 146 W/m 0,8 C -7,4 C 37,0 km/h (5 Bft)
11.05.2020 10:26 2,6 C 3,3 C 88 % 1008,4 hPa 0,0 l/m 20,6 km/h (4 Bft) NO 35 0 min 1,0 UV-I 130 W/m 0,8 C -6,5 C 29,0 km/h (5 Bft)
11.05.2020 10:28 2,6 C 3,3 C 88 % 1008,4 hPa 0,0 l/m 23,0 km/h (4 Bft) N-NO 32 0 min 1,1 UV-I 142 W/m 0,8 C -7,5 C 46,7 km/h (6 Bft)
11.05.2020 10:30 2,6 C 3,3 C 88 % 1008,5 hPa 0,0 l/m 23,4 km/h (4 Bft) N-NO 17 0 min 1,1 UV-I 140 W/m 0,8 C -7,6 C 41,8 km/h (6 Bft)
11.05.2020 10:32 2,6 C 3,3 C 88 % 1008,5 hPa 0,0 l/m 20,7 km/h (4 Bft) N-NO 17 0 min 1,0 UV-I 134 W/m 0,8 C -6,6 C 32,2 km/h (5 Bft)
11.05.2020 10:34 2,6 C 3,3 C 87 % 1008,6 hPa 0,0 l/m 24,0 km/h (4 Bft) N-NW 345 0 min 1,0 UV-I 133 W/m 0,7 C -7,8 C 33,8 km/h (5 Bft)
11.05.2020 10:36 2,6 C 3,3 C 88 % 1008,4 hPa 0,0 l/m 20,0 km/h (4 Bft) N-NO 18 0 min 0,9 UV-I 129 W/m 0,8 C -6,3 C 33,8 km/h (5 Bft)
11.05.2020 10:38 2,6 C 3,3 C 88 % 1008,5 hPa 0,0 l/m 18,7 km/h (3 Bft) N 5 0 min 1,1 UV-I 150 W/m 0,8 C -5,7 C 27,4 km/h (4 Bft)
11.05.2020 10:40 2,7 C 3,9 C 88 % 1008,4 hPa 0,0 l/m 21,3 km/h (4 Bft) N 9 0 min 1,1 UV-I 149 W/m 0,9 C -6,7 C 37,0 km/h (5 Bft)
11.05.2020 10:42 2,7 C 3,3 C 87 % 1008,5 hPa 0,0 l/m 28,4 km/h (4 Bft) N-NO 23 0 min 1,1 UV-I 139 W/m 0,8 C -9,1 C 41,8 km/h (6 Bft)
11.05.2020 10:44 2,7 C 3,3 C 87 % 1008,5 hPa 0,0 l/m 21,3 km/h (4 Bft) N-NO 26 0 min 1,0 UV-I 135 W/m 0,8 C -6,7 C 35,4 km/h (5 Bft)
11.05.2020 10:46 2,7 C 3,3 C 87 % 1008,5 hPa 0,0 l/m 25,4 km/h (4 Bft) N-NO 22 0 min 1,0 UV-I 135 W/m 0,8 C -8,2 C 41,8 km/h (6 Bft)
11.05.2020 10:48 2,7 C 3,3 C 87 % 1008,6 hPa 0,0 l/m 26,1 km/h (4 Bft) N-NW 347 0 min 0,9 UV-I 124 W/m 0,8 C -8,4 C 53,1 km/h (7 Bft)
11.05.2020 10:50 2,7 C 3,3 C 87 % 1008,6 hPa 0,0 l/m 26,2 km/h (4 Bft) N-NW 348 0 min 0,9 UV-I 116 W/m 0,8 C -8,5 C 40,2 km/h (6 Bft)
11.05.2020 10:52 2,7 C 3,3 C 87 % 1008,6 hPa 0,0 l/m 19,0 km/h (3 Bft) N 351 0 min 0,8 UV-I 108 W/m 0,8 C -5,7 C 27,4 km/h (4 Bft)
11.05.2020 10:54 2,7 C 3,3 C 87 % 1008,7 hPa 0,0 l/m 24,5 km/h (4 Bft) N-NO 15 0 min 0,9 UV-I 113 W/m 0,8 C -7,9 C 40,2 km/h (6 Bft)
11.05.2020 10:56 2,7 C 3,3 C 87 % 1008,6 hPa 0,0 l/m 30,8 km/h (5 Bft) N 5 0 min 0,9 UV-I 119 W/m 0,8 C -9,8 C 38,6 km/h (5 Bft)
11.05.2020 10:58 2,6 C 3,3 C 87 % 1008,7 hPa 0,0 l/m 21,2 km/h (4 Bft) N-NO 13 0 min 0,8 UV-I 122 W/m 0,7 C -6,8 C 30,6 km/h (5 Bft)
11.05.2020 11:00 2,7 C 3,3 C 87 % 1008,6 hPa 0,0 l/m 27,1 km/h (4 Bft) N-NW 348 0 min 0,9 UV-I 124 W/m 0,8 C -8,7 C 38,6 km/h (5 Bft)
11.05.2020 11:02 2,7 C 3,3 C 87 % 1008,7 hPa 0,0 l/m 21,8 km/h (4 Bft) N-NO 21 0 min 0,9 UV-I 135 W/m 0,8 C -6,9 C 38,6 km/h (5 Bft)
11.05.2020 11:04 2,7 C 3,3 C 87 % 1008,7 hPa 0,0 l/m 24,7 km/h (4 Bft) N-NO 32 0 min 1,1 UV-I 149 W/m 0,8 C -8,0 C 40,2 km/h (6 Bft)
11.05.2020 11:06 2,7 C 3,3 C 87 % 1008,6 hPa 0,0 l/m 29,0 km/h (5 Bft) NO 37 0 min 1,0 UV-I 138 W/m 0,8 C -9,3 C 41,8 km/h (6 Bft)
11.05.2020 11:08 2,7 C 3,3 C 87 % 1008,6 hPa 0,0 l/m 28,7 km/h (4 Bft) N-NO 22 0 min 1,0 UV-I 141 W/m 0,8 C -9,2 C 40,2 km/h (6 Bft)
11.05.2020 11:10 2,7 C 3,9 C 87 % 1008,6 hPa 0,0 l/m 19,4 km/h (3 Bft) N 5 0 min 1,1 UV-I 146 W/m 0,8 C -5,9 C 25,7 km/h (4 Bft)
11.05.2020 11:12 2,8 C 3,9 C 87 % 1008,7 hPa 0,0 l/m 24,7 km/h (4 Bft) N-NO 20 0 min 1,1 UV-I 176 W/m 0,9 C -7,8 C 37,0 km/h (5 Bft)
11.05.2020 11:14 2,8 C 3,9 C 87 % 1008,8 hPa 0,0 l/m 23,7 km/h (4 Bft) N-NO 22 0 min 1,4 UV-I 195 W/m 0,9 C -7,5 C 40,2 km/h (6 Bft)
11.05.2020 11:16 2,9 C 4,4 C 87 % 1008,7 hPa 0,0 l/m 31,6 km/h (5 Bft) N-NO 17 0 min 1,5 UV-I 209 W/m 1,0 C -9,8 C 48,3 km/h (6 Bft)
11.05.2020 11:18 2,9 C 4,4 C 87 % 1008,7 hPa 0,0 l/m 23,3 km/h (4 Bft) N 5 0 min 1,6 UV-I 212 W/m 1,0 C -7,2 C 37,0 km/h (5 Bft)
11.05.2020 11:20 3,1 C 4,4 C 87 % 1008,6 hPa 0,0 l/m 23,1 km/h (4 Bft) N-NO 30 0 min 1,8 UV-I 254 W/m 1,2 C -6,8 C 33,8 km/h (5 Bft)
11.05.2020 11:22 3,3 C 5,0 C 87 % 1008,8 hPa 0,0 l/m 25,8 km/h (4 Bft) NO 34 0 min 2,4 UV-I 344 W/m 1,3 C -7,5 C 35,4 km/h (5 Bft)
11.05.2020 11:24 3,6 C 6,1 C 87 % 1008,6 hPa 0,0 l/m 23,6 km/h (4 Bft) N 360 0 min 3,3 UV-I 427 W/m 1,6 C -6,4 C 35,4 km/h (5 Bft)
11.05.2020 11:26 4,2 C 8,3 C 88 % 1008,6 hPa 0,0 l/m 19,7 km/h (3 Bft) N 5 0 min 4,4 UV-I 522 W/m 2,4 C -4,1 C 29,0 km/h (5 Bft)
11.05.2020 11:28 4,7 C 8,9 C 87 % 1008,6 hPa 0,0 l/m 20,4 km/h (4 Bft) N 355 0 min 3,2 UV-I 509 W/m 2,7 C -3,7 C 35,4 km/h (5 Bft)
11.05.2020 11:30 4,7 C 7,8 C 82 % 1008,5 hPa 0,0 l/m 30,4 km/h (5 Bft) O-NO 58 0 min 3,2 UV-I 503 W/m 1,9 C -6,9 C 54,7 km/h (7 Bft)
11.05.2020 11:32 4,4 C 7,2 C 82 % 1008,6 hPa 0,0 l/m 30,5 km/h (5 Bft) N-NO 17 0 min 2,4 UV-I 385 W/m 1,6 C -7,3 C 41,8 km/h (6 Bft)
11.05.2020 11:34 4,4 C 6,7 C 83 % 1008,6 hPa 0,0 l/m 24,9 km/h (4 Bft) N-NW 327 0 min 2,5 UV-I 346 W/m 1,8 C -5,7 C 40,2 km/h (6 Bft)
11.05.2020 11:36 4,4 C 7,2 C 82 % 1008,8 hPa 0,0 l/m 25,0 km/h (4 Bft) N 5 0 min 3,1 UV-I 424 W/m 1,6 C -5,8 C 45,1 km/h (6 Bft)
11.05.2020 11:38 4,4 C 6,7 C 81 % 1008,7 hPa 0,0 l/m 32,4 km/h (5 Bft) N 355 0 min 3,0 UV-I 422 W/m 1,4 C -7,8 C 49,9 km/h (6 Bft)
11.05.2020 11:40 4,4 C 6,7 C 81 % 1008,6 hPa 0,0 l/m 34,2 km/h (5 Bft) NO 37 0 min 2,7 UV-I 383 W/m 1,4 C -8,2 C 56,3 km/h (7 Bft)
11.05.2020 11:42 4,3 C 6,7 C 81 % 1008,7 hPa 0,0 l/m 36,4 km/h (5 Bft) N-NO 16 0 min 2,4 UV-I 343 W/m 1,3 C -8,9 C 51,5 km/h (7 Bft)
11.05.2020 11:44 4,2 C 6,1 C 80 % 1008,7 hPa 0,0 l/m 30,9 km/h (5 Bft) NO 38 0 min 2,7 UV-I 373 W/m 1,1 C -7,7 C 53,1 km/h (7 Bft)
11.05.2020 11:46 4,3 C 6,1 C 80 % 1008,6 hPa 0,0 l/m 32,4 km/h (5 Bft) N-NO 19 0 min 3,0 UV-I 405 W/m 1,2 C -8,0 C 48,3 km/h (6 Bft)
11.05.2020 11:48 4,3 C 6,7 C 81 % 1008,8 hPa 0,0 l/m 27,4 km/h (4 Bft) NO 40 0 min 3,3 UV-I 419 W/m 1,3 C -6,6 C 49,9 km/h (6 Bft)
11.05.2020 11:50 4,4 C 6,7 C 81 % 1008,7 hPa 0,0 l/m 30,9 km/h (5 Bft) N 5 0 min 3,0 UV-I 413 W/m 1,4 C -7,5 C 45,1 km/h (6 Bft)
11.05.2020 11:52 4,5 C 6,7 C 80 % 1008,6 hPa 0,0 l/m 32,5 km/h (5 Bft) N-NO 26 0 min 2,9 UV-I 411 W/m 1,4 C -7,7 C 54,7 km/h (7 Bft)
11.05.2020 11:54 4,6 C 6,7 C 80 % 1008,6 hPa 0,0 l/m 28,6 km/h (4 Bft) N 360 0 min 3,1 UV-I 435 W/m 1,5 C -6,6 C 40,2 km/h (6 Bft)
11.05.2020 11:56 4,6 C 7,2 C 80 % 1008,6 hPa 0,0 l/m 30,3 km/h (5 Bft) N-NO 15 0 min 2,6 UV-I 359 W/m 1,5 C -7,0 C 51,5 km/h (7 Bft)
11.05.2020 11:58 4,6 C 6,7 C 80 % 1008,7 hPa 0,0 l/m 29,1 km/h (5 Bft) N-NW 348 0 min 2,8 UV-I 359 W/m 1,5 C -6,7 C 49,9 km/h (6 Bft)
11.05.2020 12:00 4,6 C 6,7 C 79 % 1008,6 hPa 0,0 l/m 29,2 km/h (5 Bft) N-NO 29 0 min 2,7 UV-I 370 W/m 1,3 C -6,7 C 46,7 km/h (6 Bft)
11.05.2020 12:02 4,6 C 6,7 C 79 % 1008,6 hPa 0,0 l/m 37,3 km/h (5 Bft) N-NO 33 0 min 2,4 UV-I 325 W/m 1,3 C -8,6 C 59,5 km/h (7 Bft)
11.05.2020 12:04 4,6 C 6,7 C 79 % 1008,6 hPa 0,0 l/m 34,3 km/h (5 Bft) N-NO 13 0 min 2,2 UV-I 301 W/m 1,3 C -8,0 C 53,1 km/h (7 Bft)
11.05.2020 12:06 4,5 C 6,1 C 79 % 1008,6 hPa 0,0 l/m 27,1 km/h (4 Bft) N-NW 344 0 min 1,7 UV-I 260 W/m 1,2 C -6,3 C 38,6 km/h (5 Bft)
11.05.2020 12:08 4,5 C 6,1 C 80 % 1008,7 hPa 0,0 l/m 27,5 km/h (4 Bft) NO 38 0 min 1,9 UV-I 257 W/m 1,4 C -6,4 C 43,5 km/h (6 Bft)
11.05.2020 12:10 4,5 C 6,1 C 79 % 1008,7 hPa 0,0 l/m 29,2 km/h (5 Bft) N-NO 23 0 min 1,7 UV-I 236 W/m 1,2 C -6,9 C 41,8 km/h (6 Bft)
11.05.2020 12:12 4,5 C 6,1 C 79 % 1008,7 hPa 0,0 l/m 23,9 km/h (4 Bft) N-NO 16 0 min 1,8 UV-I 240 W/m 1,2 C -5,3 C 38,6 km/h (5 Bft)
11.05.2020 12:14 4,6 C 6,1 C 80 % 1008,6 hPa 0,0 l/m 21,6 km/h (4 Bft) NO 46 0 min 1,5 UV-I 207 W/m 1,5 C -4,3 C 33,8 km/h (5 Bft)
11.05.2020 12:16 4,6 C 6,1 C 80 % 1008,8 hPa 0,0 l/m 18,9 km/h (3 Bft) N-NW 344 0 min 1,5 UV-I 198 W/m 1,5 C -3,2 C 29,0 km/h (5 Bft)
11.05.2020 12:18 4,7 C 6,1 C 81 % 1008,7 hPa 0,0 l/m 22,0 km/h (4 Bft) N 350 0 min 2,3 UV-I 303 W/m 1,7 C -4,3 C 29,0 km/h (5 Bft)
11.05.2020 12:20 4,7 C 6,7 C 80 % 1008,8 hPa 0,0 l/m 17,4 km/h (3 Bft) N-NW 339 0 min 1,9 UV-I 270 W/m 1,6 C -2,5 C 37,0 km/h (5 Bft)
11.05.2020 12:22 4,8 C 6,7 C 81 % 1008,7 hPa 0,0 l/m 20,8 km/h (4 Bft) N-NO 32 0 min 2,5 UV-I 356 W/m 1,8 C -3,7 C 33,8 km/h (5 Bft)
11.05.2020 12:24 5,1 C 7,2 C 80 % 1008,8 hPa 0,0 l/m 27,2 km/h (4 Bft) N-NO 17 0 min 3,1 UV-I 520 W/m 1,9 C -5,5 C 35,4 km/h (5 Bft)
11.05.2020 12:26 5,4 C 8,9 C 81 % 1008,6 hPa 0,0 l/m 22,4 km/h (4 Bft) NO 36 0 min 4,3 UV-I 534 W/m 2,4 C -3,5 C 32,2 km/h (5 Bft)
11.05.2020 12:28 5,7 C 8,9 C 78 % 1008,8 hPa 0,0 l/m 31,7 km/h (5 Bft) N-NO 18 2 min 3,7 UV-I 624 W/m 2,2 C -5,8 C 51,5 km/h (7 Bft)
11.05.2020 12:30 5,7 C 8,9 C 76 % 1008,6 hPa 0,0 l/m 34,1 km/h (5 Bft) N-NO 17 0 min 3,2 UV-I 546 W/m 1,8 C -6,3 C 46,7 km/h (6 Bft)
11.05.2020 12:32 5,6 C 8,3 C 77 % 1008,7 hPa 0,0 l/m 33,9 km/h (5 Bft) N-NO 22 0 min 2,6 UV-I 399 W/m 1,9 C -6,4 C 53,1 km/h (7 Bft)
11.05.2020 12:34 5,5 C 8,3 C 76 % 1008,9 hPa 0,0 l/m 31,6 km/h (5 Bft) N 10 0 min 2,9 UV-I 396 W/m 1,6 C -6,1 C 48,3 km/h (6 Bft)
11.05.2020 12:36 5,6 C 8,3 C 76 % 1009,0 hPa 0,0 l/m 31,9 km/h (5 Bft) N-NW 340 0 min 3,6 UV-I 457 W/m 1,7 C -6,0 C 45,1 km/h (6 Bft)
11.05.2020 12:38 5,7 C 8,3 C 77 % 1008,9 hPa 0,0 l/m 23,7 km/h (4 Bft) N-NO 14 0 min 2,9 UV-I 454 W/m 2,0 C -3,6 C 40,2 km/h (6 Bft)
11.05.2020 12:40 5,7 C 8,3 C 77 % 1008,9 hPa 0,0 l/m 24,0 km/h (4 Bft) N 360 0 min 2,3 UV-I 332 W/m 2,0 C -3,7 C 35,4 km/h (5 Bft)
11.05.2020 12:42 5,6 C 8,3 C 76 % 1008,8 hPa 0,0 l/m 28,4 km/h (4 Bft) N-NW 329 0 min 2,9 UV-I 351 W/m 1,7 C -5,1 C 40,2 km/h (6 Bft)
11.05.2020 12:44 5,5 C 7,8 C 74 % 1008,9 hPa 0,0 l/m 35,1 km/h (5 Bft) N-NO 26 0 min 3,3 UV-I 354 W/m 1,2 C -6,8 C 45,1 km/h (6 Bft)
11.05.2020 12:46 5,7 C 8,9 C 78 % 1008,9 hPa 0,0 l/m 24,3 km/h (4 Bft) N-NO 14 0 min 4,8 UV-I 348 W/m 2,2 C -3,8 C 38,6 km/h (5 Bft)
11.05.2020 12:48 6,1 C 9,4 C 76 % 1008,8 hPa 0,0 l/m 25,6 km/h (4 Bft) N-NO 26 0 min 4,6 UV-I 421 W/m 2,2 C -3,6 C 38,6 km/h (5 Bft)
11.05.2020 12:50 6,2 C 10,0 C 73 % 1008,9 hPa 0,0 l/m 38,8 km/h (5 Bft) N-NO 19 2 min 4,9 UV-I 774 W/m 1,7 C -6,5 C 59,5 km/h (7 Bft)
11.05.2020 12:52 6,1 C 9,4 C 74 % 1008,9 hPa 0,0 l/m 40,9 km/h (6 Bft) N 11 2 min 4,3 UV-I 617 W/m 1,8 C -7,0 C 57,9 km/h (7 Bft)
11.05.2020 12:54 6,1 C 9,4 C 73 % 1008,9 hPa 0,0 l/m 30,1 km/h (5 Bft) N-NW 331 0 min 4,1 UV-I 517 W/m 1,6 C -4,9 C 45,1 km/h (6 Bft)
11.05.2020 12:56 6,1 C 9,4 C 75 % 1009,0 hPa 0,0 l/m 28,0 km/h (4 Bft) N-NO 29 0 min 4,2 UV-I 549 W/m 2,0 C -4,3 C 51,5 km/h (7 Bft)
11.05.2020 12:58 6,3 C 10,6 C 75 % 1009,1 hPa 0,0 l/m 31,6 km/h (5 Bft) N-NO 18 0 min 4,7 UV-I 573 W/m 2,2 C -4,9 C 49,9 km/h (6 Bft)
11.05.2020 13:00 6,4 C 11,1 C 73 % 1009,0 hPa 0,0 l/m 25,3 km/h (4 Bft) N-NO 26 2 min 4,5 UV-I 677 W/m 1,9 C -3,1 C 43,5 km/h (6 Bft)
11.05.2020 13:02 6,5 C 10,6 C 74 % 1008,9 hPa 0,0 l/m 26,1 km/h (4 Bft) N-NO 24 0 min 3,9 UV-I 526 W/m 2,2 C -3,2 C 48,3 km/h (6 Bft)
11.05.2020 13:04 6,6 C 10,6 C 74 % 1008,9 hPa 0,0 l/m 23,9 km/h (4 Bft) N 11 2 min 4,4 UV-I 600 W/m 2,3 C -2,4 C 38,6 km/h (5 Bft)
11.05.2020 13:06 6,8 C 11,1 C 72 % 1009,0 hPa 0,0 l/m 26,7 km/h (4 Bft) N 10 2 min 4,9 UV-I 629 W/m 2,1 C -3,0 C 41,8 km/h (6 Bft)
11.05.2020 13:08 6,9 C 11,7 C 73 % 1009,0 hPa 0,0 l/m 27,0 km/h (4 Bft) NO 36 0 min 4,1 UV-I 541 W/m 2,4 C -2,9 C 37,0 km/h (5 Bft)
11.05.2020 13:10 7,1 C 11,7 C 73 % 1008,9 hPa 0,0 l/m 27,7 km/h (4 Bft) N-NO 19 0 min 4,2 UV-I 541 W/m 2,6 C -2,8 C 43,5 km/h (6 Bft)
11.05.2020 13:12 7,1 C 11,1 C 71 % 1008,9 hPa 0,0 l/m 27,6 km/h (4 Bft) N 5 0 min 3,1 UV-I 541 W/m 2,2 C -2,8 C 35,4 km/h (5 Bft)
11.05.2020 13:14 7,0 C 10,6 C 72 % 1008,9 hPa 0,0 l/m 16,9 km/h (3 Bft) N 350 0 min 2,5 UV-I 375 W/m 2,3 C 0,6 C 32,2 km/h (5 Bft)
11.05.2020 13:16 6,8 C 10,0 C 71 % 1009,0 hPa 0,0 l/m 25,0 km/h (4 Bft) N-NW 348 0 min 2,5 UV-I 330 W/m 1,9 C -2,5 C 40,2 km/h (6 Bft)
11.05.2020 13:18 6,6 C 9,4 C 69 % 1008,9 hPa 0,0 l/m 34,4 km/h (5 Bft) NW 319 0 min 3,0 UV-I 382 W/m 1,3 C -5,1 C 43,5 km/h (6 Bft)
11.05.2020 13:20 6,3 C 9,4 C 71 % 1009,1 hPa 0,0 l/m 30,7 km/h (5 Bft) N 355 0 min 3,4 UV-I 398 W/m 1,4 C -4,7 C 41,8 km/h (6 Bft)
11.05.2020 13:22 6,3 C 9,4 C 70 % 1009,1 hPa 0,0 l/m 29,6 km/h (5 Bft) NO 49 0 min 3,4 UV-I 408 W/m 1,2 C -4,4 C 45,1 km/h (6 Bft)
11.05.2020 13:24 6,5 C 10,0 C 72 % 1009,1 hPa 0,0 l/m 21,5 km/h (4 Bft) N-NW 340 0 min 3,8 UV-I 444 W/m 1,8 C -1,8 C 37,0 km/h (5 Bft)
11.05.2020 13:26 6,6 C 10,6 C 69 % 1009,1 hPa 0,0 l/m 30,7 km/h (5 Bft) O-NO 76 0 min 4,1 UV-I 446 W/m 1,3 C -4,3 C 43,5 km/h (6 Bft)
11.05.2020 13:28 6,9 C 11,1 C 71 % 1009,1 hPa 0,0 l/m 28,6 km/h (4 Bft) N-NO 23 0 min 4,4 UV-I 493 W/m 2,0 C -3,4 C 45,1 km/h (6 Bft)
11.05.2020 13:30 7,1 C 12,2 C 69 % 1009,1 hPa 0,0 l/m 26,8 km/h (4 Bft) N-NO 28 2 min 5,4 UV-I 1022 W/m 1,8 C -2,6 C 48,3 km/h (6 Bft)
11.05.2020 13:32 7,6 C 12,2 C 70 % 1009,2 hPa 0,0 l/m 18,7 km/h (3 Bft) N 360 2 min 3,5 UV-I 819 W/m 2,5 C 0,7 C 32,2 km/h (5 Bft)
11.05.2020 13:34 7,3 C 11,1 C 66 % 1009,2 hPa 0,0 l/m 32,8 km/h (5 Bft) N-NW 346 0 min 3,9 UV-I 346 W/m 1,4 C -3,8 C 49,9 km/h (6 Bft)
11.05.2020 13:36 7,2 C 11,1 C 68 % 1009,3 hPa 0,0 l/m 25,9 km/h (4 Bft) N-NW 333 0 min 4,7 UV-I 456 W/m 1,7 C -2,2 C 40,2 km/h (6 Bft)
11.05.2020 13:38 7,3 C 11,1 C 69 % 1009,3 hPa 0,0 l/m 32,2 km/h (5 Bft) N-NW 333 0 min 3,9 UV-I 468 W/m 2,0 C -3,6 C 51,5 km/h (7 Bft)
11.05.2020 13:40 7,1 C 11,1 C 67 % 1009,3 hPa 0,0 l/m 38,0 km/h (5 Bft) N-NO 26 0 min 4,9 UV-I 563 W/m 1,4 C -5,1 C 51,5 km/h (7 Bft)
11.05.2020 13:42 7,1 C 11,7 C 67 % 1009,2 hPa 0,0 l/m 34,8 km/h (5 Bft) N 355 2 min 3,8 UV-I 650 W/m 1,4 C -4,5 C 48,3 km/h (6 Bft)
11.05.2020 13:44 7,1 C 11,7 C 67 % 1009,3 hPa 0,0 l/m 33,5 km/h (5 Bft) NW 322 0 min 4,8 UV-I 551 W/m 1,4 C -4,2 C 49,9 km/h (6 Bft)
11.05.2020 13:46 7,6 C 13,9 C 71 % 1009,2 hPa 0,0 l/m 23,8 km/h (4 Bft) N 5 2 min 6,9 UV-I 609 W/m 2,7 C -1,1 C 33,8 km/h (5 Bft)
11.05.2020 13:48 8,2 C 15,0 C 72 % 1009,4 hPa 0,0 l/m 27,9 km/h (4 Bft) N-NW 346 2 min 5,4 UV-I 997 W/m 3,5 C -1,4 C 51,5 km/h (7 Bft)
11.05.2020 13:50 8,1 C 14,4 C 69 % 1009,4 hPa 0,0 l/m 31,1 km/h (5 Bft) N 355 2 min 5,3 UV-I 668 W/m 2,8 C -2,3 C 51,5 km/h (7 Bft)
11.05.2020 13:52 8,0 C 13,3 C 66 % 1009,4 hPa 0,0 l/m 31,5 km/h (5 Bft) N-NW 344 2 min 4,8 UV-I 592 W/m 2,0 C -2,5 C 51,5 km/h (7 Bft)
11.05.2020 13:54 7,7 C 12,8 C 63 % 1009,4 hPa 0,0 l/m 40,4 km/h (6 Bft) N 360 2 min 4,6 UV-I 592 W/m 1,1 C -4,6 C 57,9 km/h (7 Bft)
11.05.2020 13:56 7,8 C 13,9 C 66 % 1009,2 hPa 0,0 l/m 26,7 km/h (4 Bft) N 349 2 min 6,1 UV-I 1088 W/m 1,9 C -1,6 C 48,3 km/h (6 Bft)
11.05.2020 13:58 8,1 C 13,3 C 68 % 1009,4 hPa 0,0 l/m 28,3 km/h (4 Bft) N-NO 15 2 min 4,3 UV-I 829 W/m 2,6 C -1,6 C 43,5 km/h (6 Bft)
11.05.2020 14:00 8,0 C 13,9 C 64 % 1009,6 hPa 0,0 l/m 33,9 km/h (5 Bft) N-NW 345 0 min 5,4 UV-I 503 W/m 1,6 C -3,0 C 49,9 km/h (6 Bft)
11.05.2020 14:02 7,8 C 13,3 C 63 % 1009,5 hPa 0,0 l/m 33,9 km/h (5 Bft) N 360 0 min 4,6 UV-I 535 W/m 1,2 C -3,3 C 45,1 km/h (6 Bft)
11.05.2020 14:04 7,7 C 12,8 C 66 % 1009,4 hPa 0,0 l/m 35,4 km/h (5 Bft) N-NW 345 0 min 4,8 UV-I 492 W/m 1,8 C -3,7 C 51,5 km/h (7 Bft)
11.05.2020 14:06 7,7 C 13,9 C 64 % 1009,6 hPa 0,0 l/m 39,5 km/h (6 Bft) N-NO 17 0 min 5,0 UV-I 492 W/m 1,3 C -4,4 C 53,1 km/h (7 Bft)
11.05.2020 14:08 7,8 C 13,3 C 67 % 1009,4 hPa 0,0 l/m 31,1 km/h (5 Bft) N 5 0 min 4,3 UV-I 571 W/m 2,1 C -2,7 C 45,1 km/h (6 Bft)
11.05.2020 14:10 7,7 C 12,8 C 63 % 1009,5 hPa 0,0 l/m 33,3 km/h (5 Bft) N 360 0 min 4,4 UV-I 587 W/m 1,1 C -3,3 C 43,5 km/h (6 Bft)
11.05.2020 14:12 7,6 C 12,2 C 64 % 1009,4 hPa 0,0 l/m 32,9 km/h (5 Bft) N 5 0 min 4,8 UV-I 587 W/m 1,2 C -3,4 C 48,3 km/h (6 Bft)
11.05.2020 14:14 7,8 C 13,9 C 67 % 1009,5 hPa 0,0 l/m 33,9 km/h (5 Bft) N 355 2 min 6,9 UV-I 1068 W/m 2,1 C -3,3 C 51,5 km/h (7 Bft)
11.05.2020 14:16 8,0 C 13,3 C 65 % 1009,5 hPa 0,0 l/m 30,4 km/h (5 Bft) N-NO 23 2 min 4,0 UV-I 1084 W/m 1,8 C -2,2 C 49,9 km/h (6 Bft)
11.05.2020 14:18 8,0 C 12,2 C 66 % 1009,6 hPa 0,0 l/m 22,7 km/h (4 Bft) N-NO 13 0 min 2,8 UV-I 396 W/m 2,0 C -0,2 C 38,6 km/h (5 Bft)
11.05.2020 14:20 7,8 C 11,7 C 67 % 1009,6 hPa 0,0 l/m 20,1 km/h (4 Bft) N 5 0 min 2,9 UV-I 365 W/m 2,1 C 0,4 C 30,6 km/h (5 Bft)
11.05.2020 14:22 7,7 C 11,7 C 64 % 1009,8 hPa 0,0 l/m 25,4 km/h (4 Bft) NO 42 0 min 3,2 UV-I 411 W/m 1,3 C -1,4 C 38,6 km/h (5 Bft)
11.05.2020 14:24 7,6 C 11,7 C 65 % 1009,8 hPa 0,0 l/m 18,0 km/h (3 Bft) N-NW 341 0 min 2,5 UV-I 343 W/m 1,5 C 0,9 C 32,2 km/h (5 Bft)
11.05.2020 14:26 7,3 C 10,6 C 65 % 1009,8 hPa 0,0 l/m 30,3 km/h (5 Bft) N-NW 343 0 min 2,2 UV-I 277 W/m 1,2 C -3,2 C 38,6 km/h (5 Bft)
11.05.2020 14:28 7,1 C 10,0 C 66 % 1009,8 hPa 0,0 l/m 25,5 km/h (4 Bft) N-NO 15 0 min 2,2 UV-I 331 W/m 1,2 C -2,2 C 37,0 km/h (5 Bft)
11.05.2020 14:30 7,1 C 10,0 C 66 % 1009,8 hPa 0,0 l/m 27,3 km/h (4 Bft) N 5 0 min 2,7 UV-I 342 W/m 1,2 C -2,7 C 41,8 km/h (6 Bft)
11.05.2020 14:32 7,1 C 10,6 C 66 % 1010,0 hPa 0,0 l/m 26,8 km/h (4 Bft) N-NW 346 0 min 3,2 UV-I 453 W/m 1,2 C -2,6 C 38,6 km/h (5 Bft)
11.05.2020 14:34 7,1 C 10,6 C 64 % 1009,8 hPa 0,0 l/m 30,3 km/h (5 Bft) N 350 0 min 3,6 UV-I 480 W/m 0,8 C -3,5 C 45,1 km/h (6 Bft)
11.05.2020 14:36 7,2 C 10,0 C 63 % 1009,7 hPa 0,0 l/m 35,2 km/h (5 Bft) N 5 0 min 3,0 UV-I 386 W/m 0,6 C -4,4 C 48,3 km/h (6 Bft)
11.05.2020 14:38 7,1 C 9,4 C 64 % 1009,8 hPa 0,0 l/m 27,1 km/h (4 Bft) NO 41 0 min 2,4 UV-I 279 W/m 0,8 C -2,7 C 38,6 km/h (5 Bft)
11.05.2020 14:40 7,2 C 10,0 C 67 % 1009,9 hPa 0,0 l/m 26,5 km/h (4 Bft) N-NW 342 0 min 2,2 UV-I 276 W/m 1,5 C -2,4 C 35,4 km/h (5 Bft)
11.05.2020 14:42 7,1 C 9,4 C 66 % 1009,9 hPa 0,0 l/m 26,5 km/h (4 Bft) N-NO 12 0 min 1,9 UV-I 246 W/m 1,2 C -2,5 C 37,0 km/h (5 Bft)
11.05.2020 14:44 6,9 C 9,4 C 66 % 1010,0 hPa 0,0 l/m 29,6 km/h (5 Bft) N-NW 348 0 min 2,3 UV-I 291 W/m 1,0 C -3,6 C 41,8 km/h (6 Bft)
11.05.2020 14:46 6,9 C 9,4 C 65 % 1010,0 hPa 0,0 l/m 22,6 km/h (4 Bft) N-NO 14 0 min 2,1 UV-I 308 W/m 0,8 C -1,6 C 41,8 km/h (6 Bft)
11.05.2020 14:48 6,9 C 9,4 C 66 % 1010,0 hPa 0,0 l/m 24,6 km/h (4 Bft) N 5 0 min 2,2 UV-I 312 W/m 1,0 C -2,2 C 35,4 km/h (5 Bft)
11.05.2020 14:50 6,9 C 9,4 C 66 % 1010,0 hPa 0,0 l/m 26,7 km/h (4 Bft) N-NO 17 0 min 2,3 UV-I 348 W/m 1,0 C -2,9 C 37,0 km/h (5 Bft)
11.05.2020 14:52 7,0 C 10,0 C 68 % 1010,0 hPa 0,0 l/m 21,5 km/h (4 Bft) N 5 0 min 2,6 UV-I 359 W/m 1,5 C -1,1 C 30,6 km/h (5 Bft)
11.05.2020 14:54 7,1 C 10,0 C 65 % 1010,1 hPa 0,0 l/m 29,3 km/h (5 Bft) NO 36 0 min 2,7 UV-I 367 W/m 1,0 C -3,3 C 48,3 km/h (6 Bft)
11.05.2020 14:56 7,0 C 9,4 C 65 % 1010,1 hPa 0,0 l/m 33,7 km/h (5 Bft) N-NO 16 0 min 2,3 UV-I 308 W/m 0,9 C -4,4 C 51,5 km/h (7 Bft)
11.05.2020 14:58 6,8 C 9,4 C 65 % 1010,1 hPa 0,0 l/m 35,9 km/h (5 Bft) N-NO 19 0 min 2,3 UV-I 309 W/m 0,7 C -5,1 C 51,5 km/h (7 Bft)
11.05.2020 15:00 6,8 C 10,0 C 66 % 1010,2 hPa 0,0 l/m 23,9 km/h (4 Bft) N-NO 26 0 min 3,5 UV-I 306 W/m 0,9 C -2,2 C 35,4 km/h (5 Bft)
11.05.2020 15:02 7,2 C 11,7 C 66 % 1010,2 hPa 0,0 l/m 30,5 km/h (5 Bft) N 350 2 min 5,6 UV-I 876 W/m 1,3 C -3,4 C 49,9 km/h (6 Bft)
11.05.2020 15:04 7,6 C 12,8 C 64 % 1010,2 hPa 0,0 l/m 32,4 km/h (5 Bft) N-NW 347 2 min 5,5 UV-I 920 W/m 1,2 C -3,3 C 49,9 km/h (6 Bft)
11.05.2020 15:06 7,9 C 13,9 C 63 % 1010,2 hPa 0,0 l/m 33,5 km/h (5 Bft) N 351 2 min 4,8 UV-I 861 W/m 1,3 C -3,1 C 54,7 km/h (7 Bft)
11.05.2020 15:08 7,7 C 12,2 C 62 % 1010,3 hPa 0,0 l/m 28,9 km/h (5 Bft) N 360 2 min 3,4 UV-I 792 W/m 0,9 C -2,3 C 49,9 km/h (6 Bft)
11.05.2020 15:10 7,4 C 11,1 C 62 % 1010,2 hPa 0,0 l/m 32,3 km/h (5 Bft) N-NO 15 0 min 2,8 UV-I 371 W/m 0,6 C -3,5 C 46,7 km/h (6 Bft)
11.05.2020 15:12 7,3 C 10,6 C 64 % 1010,2 hPa 0,0 l/m 25,6 km/h (4 Bft) N 5 0 min 2,8 UV-I 416 W/m 1,0 C -2,0 C 37,0 km/h (5 Bft)
11.05.2020 15:14 7,3 C 10,0 C 64 % 1010,1 hPa 0,0 l/m 25,0 km/h (4 Bft) N 360 0 min 2,3 UV-I 333 W/m 1,0 C -1,8 C 46,7 km/h (6 Bft)
11.05.2020 15:16 7,2 C 9,4 C 63 % 1010,4 hPa 0,0 l/m 33,2 km/h (5 Bft) N-NW 346 0 min 2,2 UV-I 261 W/m 0,6 C -4,0 C 51,5 km/h (7 Bft)
11.05.2020 15:18 7,1 C 8,9 C 63 % 1010,2 hPa 0,0 l/m 31,5 km/h (5 Bft) N 355 0 min 2,0 UV-I 244 W/m 0,5 C -3,8 C 45,1 km/h (6 Bft)
11.05.2020 15:20 7,0 C 9,4 C 61 % 1010,3 hPa 0,0 l/m 29,2 km/h (5 Bft) N-NO 17 0 min 2,2 UV-I 279 W/m 0,0 C -3,4 C 45,1 km/h (6 Bft)
11.05.2020 15:22 7,1 C 10,0 C 63 % 1010,4 hPa 0,0 l/m 20,6 km/h (4 Bft) N 5 0 min 2,4 UV-I 374 W/m 0,5 C -0,7 C 33,8 km/h (5 Bft)
11.05.2020 15:24 7,3 C 10,6 C 63 % 1010,4 hPa 0,0 l/m 26,5 km/h (4 Bft) N-NW 336 0 min 2,7 UV-I 423 W/m 0,7 C -2,2 C 35,4 km/h (5 Bft)
11.05.2020 15:26 7,6 C 11,1 C 63 % 1010,4 hPa 0,0 l/m 23,9 km/h (4 Bft) N 9 0 min 3,4 UV-I 513 W/m 1,0 C -1,1 C 37,0 km/h (5 Bft)
11.05.2020 15:28 7,7 C 11,1 C 62 % 1010,5 hPa 0,0 l/m 30,9 km/h (5 Bft) N 350 2 min 3,1 UV-I 606 W/m 0,9 C -2,8 C 46,7 km/h (6 Bft)
11.05.2020 15:30 7,7 C 11,7 C 63 % 1010,6 hPa 0,0 l/m 22,8 km/h (4 Bft) N 355 0 min 2,9 UV-I 482 W/m 1,1 C -0,6 C 37,0 km/h (5 Bft)
11.05.2020 15:32 7,8 C 12,8 C 61 % 1010,5 hPa 0,0 l/m 29,2 km/h (5 Bft) N 5 0 min 4,8 UV-I 483 W/m 0,8 C -2,2 C 38,6 km/h (5 Bft)
11.05.2020 15:34 8,3 C 13,3 C 65 % 1010,4 hPa 0,0 l/m 20,2 km/h (4 Bft) N 355 0 min 4,9 UV-I 492 W/m 2,1 C 1,0 C 30,6 km/h (5 Bft)
11.05.2020 15:36 8,8 C 15,6 C 66 % 1010,5 hPa 0,0 l/m 15,5 km/h (3 Bft) N-NO 22 2 min 5,3 UV-I 660 W/m 2,8 C 3,5 C 22,5 km/h (4 Bft)
11.05.2020 15:38 9,3 C 17,2 C 65 % 1010,5 hPa 0,0 l/m 24,7 km/h (4 Bft) N-NW 348 2 min 5,1 UV-I 940 W/m 3,1 C 1,0 C 38,6 km/h (5 Bft)
11.05.2020 15:40 9,3 C 17,2 C 59 % 1010,5 hPa 0,0 l/m 31,4 km/h (5 Bft) N 355 2 min 5,2 UV-I 954 W/m 1,7 C -0,6 C 41,8 km/h (6 Bft)
11.05.2020 15:42 9,0 C 15,0 C 60 % 1010,5 hPa 0,0 l/m 29,2 km/h (5 Bft) N-NW 341 2 min 3,2 UV-I 727 W/m 1,7 C -0,6 C 48,3 km/h (6 Bft)
11.05.2020 15:44 8,6 C 12,8 C 59 % 1010,5 hPa 0,0 l/m 28,4 km/h (4 Bft) N 5 0 min 2,5 UV-I 352 W/m 1,0 C -0,9 C 40,2 km/h (6 Bft)
11.05.2020 15:46 8,3 C 12,2 C 62 % 1010,5 hPa 0,0 l/m 23,3 km/h (4 Bft) N 5 0 min 2,5 UV-I 366 W/m 1,5 C 0,0 C 30,6 km/h (5 Bft)
11.05.2020 15:48 8,2 C 12,2 C 62 % 1010,5 hPa 0,0 l/m 19,9 km/h (4 Bft) N 360 0 min 2,5 UV-I 376 W/m 1,4 C 1,0 C 38,6 km/h (5 Bft)
11.05.2020 15:50 8,0 C 11,7 C 61 % 1010,6 hPa 0,0 l/m 25,3 km/h (4 Bft) N-NW 342 0 min 2,3 UV-I 330 W/m 0,9 C -1,0 C 40,2 km/h (6 Bft)
11.05.2020 15:52 7,9 C 11,7 C 61 % 1010,7 hPa 0,0 l/m 29,4 km/h (5 Bft) N 5 0 min 2,8 UV-I 363 W/m 0,9 C -2,2 C 43,5 km/h (6 Bft)
11.05.2020 15:54 7,8 C 11,1 C 62 % 1010,8 hPa 0,0 l/m 25,8 km/h (4 Bft) N-NO 22 0 min 3,3 UV-I 336 W/m 1,0 C -1,4 C 46,7 km/h (6 Bft)
11.05.2020 15:56 8,0 C 12,2 C 62 % 1010,8 hPa 0,0 l/m 26,6 km/h (4 Bft) N 5 0 min 3,5 UV-I 360 W/m 1,2 C -1,3 C 49,9 km/h (6 Bft)
11.05.2020 15:58 7,8 C 11,7 C 59 % 1011,0 hPa 0,0 l/m 33,3 km/h (5 Bft) N 350 0 min 2,9 UV-I 256 W/m 0,3 C -3,2 C 49,9 km/h (6 Bft)
11.05.2020 16:00 7,8 C 12,8 C 59 % 1010,9 hPa 0,0 l/m 35,7 km/h (5 Bft) N 350 2 min 4,7 UV-I 770 W/m 0,3 C -3,6 C 53,1 km/h (7 Bft)
11.05.2020 16:02 7,8 C 12,8 C 59 % 1010,9 hPa 0,0 l/m 27,4 km/h (4 Bft) N-NO 16 0 min 3,7 UV-I 474 W/m 0,3 C -1,8 C 43,5 km/h (6 Bft)
11.05.2020 16:04 7,9 C 12,2 C 59 % 1011,0 hPa 0,0 l/m 27,6 km/h (4 Bft) N-NO 25 0 min 3,2 UV-I 285 W/m 0,4 C -1,7 C 41,8 km/h (6 Bft)
11.05.2020 16:06 8,1 C 12,8 C 59 % 1010,9 hPa 0,0 l/m 31,9 km/h (5 Bft) N-NO 13 2 min 4,5 UV-I 597 W/m 0,6 C -2,4 C 49,9 km/h (6 Bft)
11.05.2020 16:08 8,4 C 13,9 C 61 % 1010,8 hPa 0,0 l/m 30,0 km/h (5 Bft) N 360 2 min 3,7 UV-I 983 W/m 1,3 C -1,6 C 43,5 km/h (6 Bft)
11.05.2020 16:10 8,3 C 12,8 C 58 % 1010,9 hPa 0,0 l/m 31,5 km/h (5 Bft) N 355 2 min 2,9 UV-I 741 W/m 0,5 C -2,1 C 46,7 km/h (6 Bft)
11.05.2020 16:12 8,2 C 12,2 C 60 % 1011,0 hPa 0,0 l/m 28,0 km/h (4 Bft) N-NO 24 0 min 2,9 UV-I 331 W/m 0,9 C -1,4 C 43,5 km/h (6 Bft)
11.05.2020 16:14 8,2 C 12,2 C 60 % 1010,8 hPa 0,0 l/m 25,5 km/h (4 Bft) N 5 0 min 2,2 UV-I 329 W/m 0,9 C -0,7 C 32,2 km/h (5 Bft)
11.05.2020 16:16 8,1 C 11,7 C 60 % 1010,9 hPa 0,0 l/m 19,2 km/h (3 Bft) N 360 0 min 2,1 UV-I 305 W/m 0,8 C 1,1 C 33,8 km/h (5 Bft)
11.05.2020 16:18 8,1 C 11,1 C 60 % 1011,1 hPa 0,0 l/m 29,1 km/h (5 Bft) N-NO 30 0 min 1,8 UV-I 274 W/m 0,8 C -1,8 C 40,2 km/h (6 Bft)
11.05.2020 16:20 7,8 C 10,6 C 60 % 1011,0 hPa 0,0 l/m 29,0 km/h (5 Bft) N-NO 12 0 min 1,9 UV-I 251 W/m 0,5 C -2,2 C 41,8 km/h (6 Bft)
11.05.2020 16:22 7,6 C 9,4 C 58 % 1011,2 hPa 0,0 l/m 32,8 km/h (5 Bft) N 5 0 min 2,1 UV-I 247 W/m -0,1 C -3,3 C 43,5 km/h (6 Bft)
11.05.2020 16:24 7,4 C 10,0 C 59 % 1011,3 hPa 0,0 l/m 29,3 km/h (5 Bft) N-NW 336 0 min 3,0 UV-I 242 W/m -0,1 C -2,8 C 43,5 km/h (6 Bft)
11.05.2020 16:26 7,4 C 9,4 C 61 % 1011,3 hPa 0,0 l/m 23,4 km/h (4 Bft) N 11 0 min 2,0 UV-I 215 W/m 0,4 C -1,2 C 41,8 km/h (6 Bft)
11.05.2020 16:28 7,3 C 9,4 C 61 % 1011,4 hPa 0,0 l/m 26,2 km/h (4 Bft) N-NO 33 0 min 2,0 UV-I 186 W/m 0,3 C -2,2 C 43,5 km/h (6 Bft)
11.05.2020 16:30 7,2 C 8,9 C 62 % 1011,3 hPa 0,0 l/m 20,5 km/h (4 Bft) N-NW 342 0 min 2,0 UV-I 148 W/m 0,4 C -0,5 C 30,6 km/h (5 Bft)
11.05.2020 16:32 7,3 C 10,6 C 58 % 1011,3 hPa 0,0 l/m 34,9 km/h (5 Bft) N 5 0 min 3,9 UV-I 298 W/m -0,4 C -4,2 C 43,5 km/h (6 Bft)
11.05.2020 16:34 7,7 C 11,7 C 59 % 1011,3 hPa 0,0 l/m 31,5 km/h (5 Bft) N-NW 341 2 min 3,3 UV-I 759 W/m 0,2 C -2,9 C 48,3 km/h (6 Bft)
11.05.2020 16:36 8,1 C 13,3 C 57 % 1011,3 hPa 0,0 l/m 30,8 km/h (5 Bft) N-NO 22 2 min 3,9 UV-I 776 W/m 0,1 C -2,2 C 41,8 km/h (6 Bft)
11.05.2020 16:38 8,3 C 13,3 C 59 % 1011,2 hPa 0,0 l/m 18,8 km/h (3 Bft) NO 40 2 min 2,7 UV-I 677 W/m 0,8 C 1,5 C 32,2 km/h (5 Bft)
11.05.2020 16:40 8,7 C 13,3 C 59 % 1011,2 hPa 0,0 l/m 18,8 km/h (3 Bft) N 351 0 min 3,0 UV-I 524 W/m 1,1 C 2,0 C 37,0 km/h (5 Bft)
11.05.2020 16:42 8,7 C 13,3 C 57 % 1011,3 hPa 0,0 l/m 23,6 km/h (4 Bft) N 5 0 min 2,9 UV-I 498 W/m 0,7 C 0,5 C 41,8 km/h (6 Bft)
11.05.2020 16:44 8,6 C 12,8 C 57 % 1011,3 hPa 0,0 l/m 26,2 km/h (4 Bft) N 355 0 min 2,6 UV-I 488 W/m 0,6 C -0,4 C 45,1 km/h (6 Bft)
11.05.2020 16:46 8,7 C 13,9 C 57 % 1011,5 hPa 0,0 l/m 33,4 km/h (5 Bft) N 355 2 min 3,9 UV-I 868 W/m 0,7 C -1,9 C 43,5 km/h (6 Bft)
11.05.2020 16:48 8,9 C 14,4 C 59 % 1011,3 hPa 0,0 l/m 28,7 km/h (4 Bft) N-NO 21 2 min 3,8 UV-I 840 W/m 1,3 C -0,6 C 43,5 km/h (6 Bft)
11.05.2020 16:50 8,9 C 15,0 C 58 % 1011,5 hPa 0,0 l/m 29,6 km/h (5 Bft) N 11 2 min 3,5 UV-I 823 W/m 1,1 C -0,8 C 43,5 km/h (6 Bft)
11.05.2020 16:52 8,6 C 13,3 C 56 % 1011,5 hPa 0,0 l/m 28,4 km/h (4 Bft) N-NO 23 2 min 2,0 UV-I 823 W/m 0,3 C -0,9 C 41,8 km/h (6 Bft)
11.05.2020 16:54 8,3 C 13,3 C 59 % 1011,7 hPa 0,0 l/m 21,3 km/h (4 Bft) N 5 0 min 2,5 UV-I 302 W/m 0,8 C 0,7 C 30,6 km/h (5 Bft)
11.05.2020 16:56 8,1 C 12,2 C 57 % 1011,7 hPa 0,0 l/m 28,5 km/h (4 Bft) N-NW 346 0 min 1,8 UV-I 201 W/m 0,1 C -1,7 C 41,8 km/h (6 Bft)
11.05.2020 16:58 7,9 C 11,7 C 59 % 1011,6 hPa 0,0 l/m 26,1 km/h (4 Bft) N 5 0 min 2,4 UV-I 163 W/m 0,4 C -1,3 C 35,4 km/h (5 Bft)
11.05.2020 17:00 8,2 C 12,8 C 59 % 1011,5 hPa 0,0 l/m 32,8 km/h (5 Bft) N-NO 12 2 min 2,9 UV-I 707 W/m 0,7 C -2,5 C 59,5 km/h (7 Bft)
11.05.2020 17:02 8,4 C 13,3 C 59 % 1011,8 hPa 0,0 l/m 23,6 km/h (4 Bft) N-NO 15 2 min 3,3 UV-I 670 W/m 0,9 C 0,1 C 43,5 km/h (6 Bft)
11.05.2020 17:04 8,7 C 14,4 C 58 % 1011,7 hPa 0,0 l/m 25,2 km/h (4 Bft) N-NW 348 2 min 3,3 UV-I 667 W/m 0,9 C 0,0 C 43,5 km/h (6 Bft)
11.05.2020 17:06 8,7 C 13,9 C 56 % 1011,6 hPa 0,0 l/m 29,1 km/h (5 Bft) N-NW 331 2 min 3,2 UV-I 663 W/m 0,4 C -1,0 C 46,7 km/h (6 Bft)
11.05.2020 17:08 8,6 C 13,9 C 53 % 1011,8 hPa 0,0 l/m 31,6 km/h (5 Bft) N 5 2 min 3,2 UV-I 668 W/m -0,4 C -1,7 C 43,5 km/h (6 Bft)
11.05.2020 17:10 8,7 C 13,9 C 55 % 1011,9 hPa 0,0 l/m 23,3 km/h (4 Bft) O-NO 62 2 min 2,8 UV-I 703 W/m 0,2 C 0,6 C 37,0 km/h (5 Bft)
11.05.2020 17:12 8,6 C 13,3 C 54 % 1011,8 hPa 0,0 l/m 29,4 km/h (5 Bft) N 355 2 min 1,9 UV-I 713 W/m -0,2 C -1,2 C 43,5 km/h (6 Bft)
11.05.2020 17:14 8,3 C 11,7 C 54 % 1011,8 hPa 0,0 l/m 29,3 km/h (5 Bft) N 11 0 min 1,9 UV-I 376 W/m -0,5 C -1,6 C 40,2 km/h (6 Bft)
11.05.2020 17:16 8,0 C 10,6 C 55 % 1011,9 hPa 0,0 l/m 25,8 km/h (4 Bft) N 5 0 min 1,7 UV-I 218 W/m -0,5 C -1,1 C 41,8 km/h (6 Bft)
11.05.2020 17:18 7,7 C 10,0 C 55 % 1012,0 hPa 0,0 l/m 27,3 km/h (4 Bft) N-NO 17 0 min 1,5 UV-I 166 W/m -0,8 C -1,9 C 45,1 km/h (6 Bft)
11.05.2020 17:20 7,6 C 9,4 C 56 % 1011,9 hPa 0,0 l/m 29,7 km/h (5 Bft) N-NW 348 0 min 1,6 UV-I 202 W/m -0,6 C -2,6 C 45,1 km/h (6 Bft)
11.05.2020 17:22 7,5 C 9,4 C 57 % 1012,0 hPa 0,0 l/m 23,7 km/h (4 Bft) N 5 0 min 1,7 UV-I 203 W/m -0,5 C -1,2 C 40,2 km/h (6 Bft)
11.05.2020 17:24 7,8 C 11,1 C 59 % 1012,1 hPa 0,0 l/m 18,4 km/h (3 Bft) N-NW 346 0 min 2,0 UV-I 307 W/m 0,3 C 1,0 C 30,6 km/h (5 Bft)
11.05.2020 17:26 8,3 C 12,8 C 57 % 1012,1 hPa 0,0 l/m 20,8 km/h (4 Bft) N-NW 344 2 min 2,7 UV-I 741 W/m 0,3 C 0,8 C 27,4 km/h (4 Bft)
11.05.2020 17:28 8,4 C 12,2 C 53 % 1012,1 hPa 0,0 l/m 31,7 km/h (5 Bft) N-NW 340 0 min 2,3 UV-I 349 W/m -0,6 C -2,0 C 43,5 km/h (6 Bft)
11.05.2020 17:30 8,4 C 12,8 C 52 % 1012,1 hPa 0,0 l/m 38,2 km/h (5 Bft) N-NO 14 2 min 2,8 UV-I 664 W/m -0,9 C -3,2 C 49,9 km/h (6 Bft)
11.05.2020 17:32 8,4 C 13,3 C 53 % 1012,1 hPa 0,0 l/m 32,3 km/h (5 Bft) N 360 2 min 2,8 UV-I 647 W/m -0,6 C -2,1 C 45,1 km/h (6 Bft)
11.05.2020 17:34 8,5 C 13,3 C 52 % 1012,1 hPa 0,0 l/m 28,6 km/h (4 Bft) NO 38 2 min 2,8 UV-I 664 W/m -0,8 C -1,1 C 40,2 km/h (6 Bft)
11.05.2020 17:36 8,8 C 14,4 C 55 % 1012,2 hPa 0,0 l/m 25,4 km/h (4 Bft) N-NO 20 2 min 2,7 UV-I 677 W/m 0,3 C 0,1 C 35,4 km/h (5 Bft)
11.05.2020 17:38 8,9 C 14,4 C 56 % 1012,3 hPa 0,0 l/m 18,9 km/h (3 Bft) N-NO 22 2 min 2,5 UV-I 687 W/m 0,6 C 2,3 C 29,0 km/h (5 Bft)
11.05.2020 17:40 9,2 C 15,6 C 53 % 1012,3 hPa 0,0 l/m 22,8 km/h (4 Bft) N 9 2 min 2,6 UV-I 615 W/m 0,1 C 1,4 C 38,6 km/h (5 Bft)
11.05.2020 17:42 8,9 C 15,0 C 50 % 1012,3 hPa 0,0 l/m 28,1 km/h (4 Bft) N-NO 24 2 min 2,6 UV-I 593 W/m -0,9 C -0,5 C 40,2 km/h (6 Bft)
11.05.2020 17:44 8,8 C 15,0 C 51 % 1012,2 hPa 0,0 l/m 27,6 km/h (4 Bft) N 9 0 min 2,5 UV-I 586 W/m -0,8 C -0,5 C 35,4 km/h (5 Bft)
11.05.2020 17:46 8,8 C 14,4 C 51 % 1012,3 hPa 0,0 l/m 27,0 km/h (4 Bft) N 360 2 min 2,5 UV-I 590 W/m -0,8 C -0,3 C 40,2 km/h (6 Bft)
11.05.2020 17:48 8,9 C 15,0 C 53 % 1012,4 hPa 0,0 l/m 23,1 km/h (4 Bft) N 355 2 min 2,5 UV-I 599 W/m -0,1 C 0,9 C 38,6 km/h (5 Bft)
11.05.2020 17:50 8,9 C 15,0 C 51 % 1012,4 hPa 0,0 l/m 23,9 km/h (4 Bft) NW 324 0 min 2,4 UV-I 581 W/m -0,7 C 0,6 C 37,0 km/h (5 Bft)
11.05.2020 17:52 8,9 C 14,4 C 51 % 1012,5 hPa 0,0 l/m 19,5 km/h (3 Bft) N-NW 336 0 min 2,3 UV-I 549 W/m -0,7 C 2,0 C 30,6 km/h (5 Bft)
11.05.2020 17:54 8,8 C 14,4 C 50 % 1012,5 hPa 0,0 l/m 21,9 km/h (4 Bft) N-NW 337 0 min 2,2 UV-I 495 W/m -1,0 C 1,1 C 32,2 km/h (5 Bft)
11.05.2020 17:56 8,6 C 12,8 C 52 % 1012,5 hPa 0,0 l/m 26,0 km/h (4 Bft) N-NO 14 0 min 1,7 UV-I 218 W/m -0,7 C -0,3 C 41,8 km/h (6 Bft)
11.05.2020 17:58 8,3 C 12,8 C 52 % 1012,5 hPa 0,0 l/m 22,9 km/h (4 Bft) N 355 0 min 2,0 UV-I 359 W/m -1,0 C 0,1 C 38,6 km/h (5 Bft)
11.05.2020 18:00 8,1 C 11,1 C 53 % 1012,5 hPa 0,0 l/m 26,2 km/h (4 Bft) N 5 0 min 1,2 UV-I 227 W/m -0,9 C -1,1 C 40,2 km/h (6 Bft)
11.05.2020 18:02 7,8 C 9,4 C 53 % 1012,5 hPa 0,0 l/m 23,4 km/h (4 Bft) N 349 0 min 1,2 UV-I 84 W/m -1,2 C -0,7 C 33,8 km/h (5 Bft)
11.05.2020 18:04 7,7 C 10,0 C 53 % 1012,5 hPa 0,0 l/m 25,3 km/h (4 Bft) N 11 0 min 1,9 UV-I 164 W/m -1,3 C -1,4 C 37,0 km/h (5 Bft)
11.05.2020 18:06 7,8 C 11,1 C 54 % 1012,5 hPa 0,0 l/m 31,2 km/h (5 Bft) N 350 0 min 1,9 UV-I 457 W/m -0,9 C -2,7 C 48,3 km/h (6 Bft)
11.05.2020 18:08 7,9 C 12,2 C 51 % 1012,5 hPa 0,0 l/m 26,1 km/h (4 Bft) N-NW 346 0 min 1,9 UV-I 461 W/m -1,6 C -1,3 C 38,6 km/h (5 Bft)
11.05.2020 18:10 8,2 C 12,8 C 52 % 1012,5 hPa 0,0 l/m 24,5 km/h (4 Bft) N-NO 15 0 min 1,9 UV-I 475 W/m -1,1 C -0,5 C 38,6 km/h (5 Bft)
11.05.2020 18:12 8,3 C 12,8 C 53 % 1012,6 hPa 0,0 l/m 17,9 km/h (3 Bft) N-NW 329 0 min 1,9 UV-I 485 W/m -0,7 C 1,9 C 25,7 km/h (4 Bft)
11.05.2020 18:14 8,4 C 12,2 C 52 % 1012,7 hPa 0,0 l/m 30,7 km/h (5 Bft) N 360 0 min 1,7 UV-I 506 W/m -0,9 C -1,8 C 46,7 km/h (6 Bft)
11.05.2020 18:16 8,5 C 13,3 C 54 % 1012,6 hPa 0,0 l/m 23,4 km/h (4 Bft) N-NO 15 0 min 1,8 UV-I 512 W/m -0,3 C 0,3 C 38,6 km/h (5 Bft)
11.05.2020 18:18 8,6 C 13,3 C 52 % 1012,8 hPa 0,0 l/m 28,1 km/h (4 Bft) N 5 0 min 1,8 UV-I 496 W/m -0,7 C -0,9 C 41,8 km/h (6 Bft)
11.05.2020 18:20 8,3 C 12,2 C 52 % 1012,7 hPa 0,0 l/m 25,5 km/h (4 Bft) N 350 0 min 1,5 UV-I 494 W/m -1,0 C -0,6 C 41,8 km/h (6 Bft)
11.05.2020 18:22 8,1 C 10,6 C 55 % 1012,8 hPa 0,0 l/m 17,1 km/h (3 Bft) N-NO 13 0 min 1,1 UV-I 294 W/m -0,4 C 1,9 C 33,8 km/h (5 Bft)
11.05.2020 18:24 7,9 C 11,1 C 54 % 1012,8 hPa 0,0 l/m 22,2 km/h (4 Bft) N 9 0 min 1,4 UV-I 130 W/m -0,8 C -0,2 C 45,1 km/h (6 Bft)
11.05.2020 18:26 7,9 C 11,1 C 54 % 1012,9 hPa 0,0 l/m 26,1 km/h (4 Bft) N 5 0 min 1,5 UV-I 243 W/m -0,8 C -1,3 C 35,4 km/h (5 Bft)
11.05.2020 18:28 8,0 C 12,2 C 53 % 1012,9 hPa 0,0 l/m 25,6 km/h (4 Bft) N-NO 33 0 min 1,5 UV-I 399 W/m -1,0 C -1,0 C 40,2 km/h (6 Bft)
11.05.2020 18:30 8,0 C 12,8 C 54 % 1013,0 hPa 0,0 l/m 20,0 km/h (4 Bft) N-NW 348 0 min 1,5 UV-I 396 W/m -0,7 C 0,7 C 33,8 km/h (5 Bft)
11.05.2020 18:32 8,2 C 12,8 C 55 % 1013,1 hPa 0,0 l/m 13,3 km/h (3 Bft) N 355 0 min 1,5 UV-I 392 W/m -0,3 C 3,8 C 25,7 km/h (4 Bft)
11.05.2020 18:34 8,2 C 12,8 C 50 % 1013,0 hPa 0,0 l/m 29,7 km/h (5 Bft) N 360 0 min 1,4 UV-I 389 W/m -1,6 C -1,8 C 40,2 km/h (6 Bft)
11.05.2020 18:36 8,2 C 12,2 C 51 % 1013,0 hPa 0,0 l/m 19,7 km/h (3 Bft) N 351 0 min 1,4 UV-I 397 W/m -1,3 C 1,1 C 32,2 km/h (5 Bft)
11.05.2020 18:38 8,3 C 11,7 C 53 % 1013,0 hPa 0,0 l/m 17,6 km/h (3 Bft) N-NW 341 0 min 1,5 UV-I 428 W/m -0,7 C 2,0 C 24,1 km/h (4 Bft)
11.05.2020 18:40 8,3 C 11,7 C 48 % 1013,0 hPa 0,0 l/m 23,0 km/h (4 Bft) W-NW 295 0 min 1,5 UV-I 450 W/m -2,1 C 0,1 C 40,2 km/h (6 Bft)
11.05.2020 18:42 8,4 C 10,6 C 49 % 1013,1 hPa 0,0 l/m 27,0 km/h (4 Bft) N 360 0 min 1,4 UV-I 451 W/m -1,7 C -0,9 C 40,2 km/h (6 Bft)
11.05.2020 18:44 8,4 C 10,0 C 49 % 1013,0 hPa 0,0 l/m 26,4 km/h (4 Bft) N-NO 25 0 min 1,4 UV-I 449 W/m -1,7 C -0,7 C 33,8 km/h (5 Bft)
11.05.2020 18:46 8,4 C 10,0 C 49 % 1013,1 hPa 0,0 l/m 26,7 km/h (4 Bft) N-NW 333 0 min 1,4 UV-I 444 W/m -1,7 C -0,8 C 41,8 km/h (6 Bft)
11.05.2020 18:48 8,4 C 10,0 C 51 % 1013,2 hPa 0,0 l/m 22,6 km/h (4 Bft) N 360 0 min 1,3 UV-I 436 W/m -1,1 C 0,4 C 38,6 km/h (5 Bft)
11.05.2020 18:50 8,6 C 10,0 C 51 % 1013,2 hPa 0,0 l/m 16,5 km/h (3 Bft) N 5 0 min 1,3 UV-I 412 W/m -1,0 C 2,8 C 25,7 km/h (4 Bft)
11.05.2020 18:52 8,6 C 10,0 C 51 % 1013,4 hPa 0,0 l/m 20,4 km/h (4 Bft) N-NO 33 0 min 1,2 UV-I 384 W/m -1,0 C 1,3 C 30,6 km/h (5 Bft)
11.05.2020 18:54 8,6 C 10,0 C 48 % 1013,4 hPa 0,0 l/m 27,4 km/h (4 Bft) N 11 0 min 1,2 UV-I 362 W/m -1,8 C -0,7 C 38,6 km/h (5 Bft)
11.05.2020 18:56 8,4 C 9,4 C 50 % 1013,4 hPa 0,0 l/m 23,8 km/h (4 Bft) N-NO 13 0 min 1,1 UV-I 341 W/m -1,4 C 0,0 C 38,6 km/h (5 Bft)
11.05.2020 18:58 8,2 C 8,9 C 50 % 1013,3 hPa 0,0 l/m 24,2 km/h (4 Bft) N-NW 328 0 min 1,0 UV-I 330 W/m -1,6 C -0,4 C 37,0 km/h (5 Bft)
11.05.2020 19:00 7,8 C 8,9 C 50 % 1013,4 hPa 0,0 l/m 20,4 km/h (4 Bft) N 355 0 min 0,8 UV-I 156 W/m -2,0 C 0,3 C 33,8 km/h (5 Bft)
11.05.2020 19:02 7,6 C 7,8 C 51 % 1013,4 hPa 0,0 l/m 13,8 km/h (3 Bft) N-NO 30 0 min 0,7 UV-I 72 W/m -1,9 C 2,8 C 22,5 km/h (4 Bft)
11.05.2020 19:04 7,3 C 7,2 C 52 % 1013,4 hPa 0,0 l/m 16,2 km/h (3 Bft) N-NO 26 0 min 0,6 UV-I 58 W/m -1,9 C 1,3 C 25,7 km/h (4 Bft)
11.05.2020 19:06 7,2 C 7,2 C 51 % 1013,7 hPa 0,0 l/m 23,3 km/h (4 Bft) N 9 0 min 0,2 UV-I 58 W/m -2,2 C -1,4 C 35,4 km/h (5 Bft)
11.05.2020 19:08 7,2 C 6,7 C 51 % 1013,7 hPa 0,0 l/m 24,4 km/h (4 Bft) N 5 0 min 0,6 UV-I 70 W/m -2,2 C -1,8 C 37,0 km/h (5 Bft)
11.05.2020 19:10 7,2 C 6,7 C 50 % 1013,7 hPa 0,0 l/m 23,7 km/h (4 Bft) N 360 0 min 0,6 UV-I 102 W/m -2,5 C -1,6 C 32,2 km/h (5 Bft)
11.05.2020 19:12 7,2 C 7,2 C 51 % 1013,7 hPa 0,0 l/m 22,2 km/h (4 Bft) N-NW 346 0 min 0,6 UV-I 116 W/m -2,2 C -1,1 C 33,8 km/h (5 Bft)
11.05.2020 19:14 7,2 C 7,2 C 51 % 1013,7 hPa 0,0 l/m 20,7 km/h (4 Bft) N 355 0 min 0,6 UV-I 114 W/m -2,2 C -0,6 C 27,4 km/h (4 Bft)
11.05.2020 19:16 7,3 C 7,2 C 52 % 1013,7 hPa 0,0 l/m 22,1 km/h (4 Bft) N-NW 335 0 min 0,5 UV-I 112 W/m -1,9 C -0,9 C 33,8 km/h (5 Bft)
11.05.2020 19:18 7,3 C 7,8 C 52 % 1013,8 hPa 0,0 l/m 19,1 km/h (3 Bft) N 355 0 min 0,1 UV-I 112 W/m -1,9 C 0,1 C 27,4 km/h (4 Bft)
11.05.2020 19:20 7,3 C 7,8 C 53 % 1013,8 hPa 0,0 l/m 14,8 km/h (3 Bft) N 5 0 min 0,0 UV-I 115 W/m -1,6 C 2,0 C 24,1 km/h (4 Bft)
11.05.2020 19:22 7,3 C 7,8 C 52 % 1013,8 hPa 0,0 l/m 15,2 km/h (3 Bft) N-NO 14 0 min 0,0 UV-I 121 W/m -1,9 C 1,8 C 20,9 km/h (4 Bft)
11.05.2020 19:24 7,3 C 7,8 C 53 % 1013,8 hPa 0,0 l/m 13,7 km/h (3 Bft) N-NO 24 0 min 0,0 UV-I 96 W/m -1,6 C 2,5 C 19,3 km/h (3 Bft)
11.05.2020 19:26 7,4 C 8,3 C 53 % 1013,9 hPa 0,0 l/m 16,4 km/h (3 Bft) N 9 0 min 0,0 UV-I 180 W/m -1,5 C 1,4 C 22,5 km/h (4 Bft)
11.05.2020 19:28 7,6 C 8,3 C 52 % 1013,9 hPa 0,0 l/m 15,5 km/h (3 Bft) N 5 0 min 0,4 UV-I 205 W/m -1,6 C 2,0 C 25,7 km/h (4 Bft)
11.05.2020 19:30 7,7 C 8,3 C 54 % 1013,8 hPa 0,0 l/m 18,3 km/h (3 Bft) NO 34 0 min 0,0 UV-I 124 W/m -1,0 C 0,9 C 27,4 km/h (4 Bft)
11.05.2020 19:32 7,6 C 8,3 C 51 % 1013,8 hPa 0,0 l/m 25,7 km/h (4 Bft) N 11 0 min 0,2 UV-I 107 W/m -1,9 C -1,6 C 35,4 km/h (5 Bft)
11.05.2020 19:34 7,6 C 7,8 C 50 % 1014,0 hPa 0,0 l/m 24,6 km/h (4 Bft) N-NO 30 0 min 0,5 UV-I 214 W/m -2,1 C -1,3 C 41,8 km/h (6 Bft)
11.05.2020 19:36 7,5 C 7,8 C 51 % 1013,9 hPa 0,0 l/m 25,6 km/h (4 Bft) N-NO 19 0 min 0,5 UV-I 207 W/m -2,0 C -1,7 C 35,4 km/h (5 Bft)
11.05.2020 19:38 7,4 C 7,8 C 51 % 1014,0 hPa 0,0 l/m 21,0 km/h (4 Bft) N-NO 19 0 min 0,3 UV-I 158 W/m -2,1 C -0,4 C 32,2 km/h (5 Bft)
11.05.2020 19:40 7,3 C 7,2 C 51 % 1014,0 hPa 0,0 l/m 25,8 km/h (4 Bft) N-NO 26 0 min 0,0 UV-I 102 W/m -2,2 C -2,1 C 37,0 km/h (5 Bft)
11.05.2020 19:42 7,2 C 7,2 C 51 % 1014,0 hPa 0,0 l/m 24,3 km/h (4 Bft) N 360 0 min 0,0 UV-I 82 W/m -2,2 C -1,8 C 32,2 km/h (5 Bft)
11.05.2020 19:44 7,2 C 6,7 C 51 % 1014,1 hPa 0,0 l/m 22,6 km/h (4 Bft) NO 36 0 min 0,0 UV-I 74 W/m -2,2 C -1,2 C 32,2 km/h (5 Bft)
11.05.2020 19:46 7,1 C 6,7 C 53 % 1014,2 hPa 0,0 l/m 17,7 km/h (3 Bft) N 5 0 min 0,0 UV-I 62 W/m -1,8 C 0,4 C 27,4 km/h (4 Bft)
11.05.2020 19:48 6,9 C 6,7 C 52 % 1014,3 hPa 0,0 l/m 23,3 km/h (4 Bft) N 5 0 min 0,0 UV-I 59 W/m -2,3 C -1,8 C 35,4 km/h (5 Bft)
11.05.2020 19:50 6,9 C 6,7 C 51 % 1014,3 hPa 0,0 l/m 21,6 km/h (4 Bft) N 5 0 min 0,0 UV-I 69 W/m -2,5 C -1,3 C 32,2 km/h (5 Bft)
11.05.2020 19:52 6,9 C 6,7 C 52 % 1014,3 hPa 0,0 l/m 19,4 km/h (3 Bft) N 355 0 min 0,0 UV-I 80 W/m -2,3 C -0,5 C 33,8 km/h (5 Bft)
11.05.2020 19:54 6,9 C 6,7 C 52 % 1014,2 hPa 0,0 l/m 21,6 km/h (4 Bft) NO 34 0 min 0,0 UV-I 77 W/m -2,3 C -1,3 C 27,4 km/h (4 Bft)
11.05.2020 19:56 6,9 C 6,7 C 53 % 1014,4 hPa 0,0 l/m 15,9 km/h (3 Bft) N 351 0 min 0,0 UV-I 78 W/m -2,0 C 1,0 C 27,4 km/h (4 Bft)
11.05.2020 19:58 6,9 C 6,7 C 52 % 1014,4 hPa 0,0 l/m 17,5 km/h (3 Bft) N-NO 33 0 min 0,0 UV-I 78 W/m -2,3 C 0,3 C 30,6 km/h (5 Bft)
11.05.2020 20:00 7,0 C 6,7 C 53 % 1014,5 hPa 0,0 l/m 14,7 km/h (3 Bft) N-NW 343 0 min 0,0 UV-I 75 W/m -1,9 C 1,6 C 22,5 km/h (4 Bft)
11.05.2020 20:02 7,0 C 6,7 C 53 % 1014,5 hPa 0,0 l/m 16,9 km/h (3 Bft) N 360 0 min 0,0 UV-I 86 W/m -1,9 C 0,6 C 22,5 km/h (4 Bft)
11.05.2020 20:04 7,0 C 6,7 C 53 % 1014,5 hPa 0,0 l/m 17,3 km/h (3 Bft) N 360 0 min 0,0 UV-I 60 W/m -1,9 C 0,5 C 20,9 km/h (4 Bft)
11.05.2020 20:06 6,9 C 6,7 C 53 % 1014,5 hPa 0,0 l/m 20,6 km/h (4 Bft) N-NO 13 0 min 0,0 UV-I 50 W/m -2,0 C -0,9 C 29,0 km/h (5 Bft)
11.05.2020 20:08 7,0 C 6,7 C 53 % 1014,6 hPa 0,0 l/m 20,7 km/h (4 Bft) N 349 0 min 0,0 UV-I 50 W/m -1,9 C -0,8 C 27,4 km/h (4 Bft)
11.05.2020 20:10 6,9 C 6,1 C 54 % 1014,7 hPa 0,0 l/m 16,7 km/h (3 Bft) N 355 0 min 0,0 UV-I 46 W/m -1,8 C 0,6 C 27,4 km/h (4 Bft)
11.05.2020 20:12 6,8 C 6,1 C 54 % 1014,8 hPa 0,0 l/m 16,8 km/h (3 Bft) N 360 0 min 0,0 UV-I 47 W/m -1,8 C 0,4 C 25,7 km/h (4 Bft)
11.05.2020 20:14 6,7 C 6,1 C 54 % 1014,8 hPa 0,0 l/m 13,0 km/h (3 Bft) N-NO 25 0 min 0,0 UV-I 41 W/m -1,9 C 2,2 C 22,5 km/h (4 Bft)
11.05.2020 20:16 6,6 C 5,6 C 54 % 1014,7 hPa 0,0 l/m 15,5 km/h (3 Bft) N-NO 27 0 min 0,0 UV-I 31 W/m -2,0 C 0,8 C 27,4 km/h (4 Bft)
11.05.2020 20:18 6,4 C 5,6 C 54 % 1014,8 hPa 0,0 l/m 17,7 km/h (3 Bft) N 355 0 min 0,0 UV-I 28 W/m -2,2 C -0,4 C 25,7 km/h (4 Bft)
11.05.2020 20:20 6,3 C 5,6 C 55 % 1014,9 hPa 0,0 l/m 13,2 km/h (3 Bft) N 5 0 min 0,0 UV-I 25 W/m -2,1 C 1,6 C 22,5 km/h (4 Bft)
11.05.2020 20:22 6,3 C 5,0 C 55 % 1014,9 hPa 0,0 l/m 16,6 km/h (3 Bft) N 355 0 min 0,0 UV-I 24 W/m -2,1 C -0,1 C 20,9 km/h (4 Bft)
11.05.2020 20:24 6,3 C 5,0 C 55 % 1014,9 hPa 0,0 l/m 17,6 km/h (3 Bft) N-NO 13 0 min 0,0 UV-I 27 W/m -2,1 C -0,5 C 22,5 km/h (4 Bft)
11.05.2020 20:26 6,2 C 5,0 C 54 % 1014,9 hPa 0,0 l/m 18,3 km/h (3 Bft) N 5 0 min 0,0 UV-I 32 W/m -2,4 C -1,0 C 27,4 km/h (4 Bft)
11.05.2020 20:28 6,2 C 5,0 C 55 % 1015,0 hPa 0,0 l/m 16,6 km/h (3 Bft) N 5 0 min 0,0 UV-I 37 W/m -2,2 C -0,2 C 22,5 km/h (4 Bft)
11.05.2020 20:30 6,2 C 5,0 C 53 % 1015,1 hPa 0,0 l/m 24,8 km/h (4 Bft) N 355 0 min 0,0 UV-I 40 W/m -2,7 C -3,3 C 37,0 km/h (5 Bft)
11.05.2020 20:32 6,3 C 5,6 C 53 % 1015,2 hPa 0,0 l/m 23,0 km/h (4 Bft) N-NO 14 0 min 0,0 UV-I 40 W/m -2,6 C -2,6 C 33,8 km/h (5 Bft)
11.05.2020 20:34 6,3 C 5,6 C 55 % 1015,2 hPa 0,0 l/m 18,7 km/h (3 Bft) N 349 0 min 0,0 UV-I 37 W/m -2,1 C -1,0 C 24,1 km/h (4 Bft)
11.05.2020 20:36 6,3 C 5,6 C 54 % 1015,2 hPa 0,0 l/m 19,0 km/h (3 Bft) N 360 0 min 0,0 UV-I 33 W/m -2,3 C -1,1 C 27,4 km/h (4 Bft)
11.05.2020 20:38 6,2 C 5,0 C 54 % 1015,2 hPa 0,0 l/m 16,8 km/h (3 Bft) N 5 0 min 0,0 UV-I 30 W/m -2,4 C -0,3 C 25,7 km/h (4 Bft)
11.05.2020 20:40 6,2 C 5,0 C 54 % 1015,3 hPa 0,0 l/m 19,3 km/h (3 Bft) N-NO 22 0 min 0,0 UV-I 24 W/m -2,4 C -1,4 C 29,0 km/h (5 Bft)
11.05.2020 20:42 6,1 C 5,0 C 54 % 1015,2 hPa 0,0 l/m 20,3 km/h (4 Bft) N-NO 25 0 min 0,0 UV-I 19 W/m -2,5 C -1,9 C 33,8 km/h (5 Bft)
11.05.2020 20:44 6,1 C 5,0 C 54 % 1015,3 hPa 0,0 l/m 18,7 km/h (3 Bft) N 360 0 min 0,0 UV-I 17 W/m -2,5 C -1,2 C 25,7 km/h (4 Bft)
11.05.2020 20:46 6,1 C 4,4 C 54 % 1015,3 hPa 0,0 l/m 21,7 km/h (4 Bft) N 5 0 min 0,0 UV-I 15 W/m -2,5 C -2,4 C 29,0 km/h (5 Bft)
11.05.2020 20:48 6,0 C 4,4 C 54 % 1015,3 hPa 0,0 l/m 17,0 km/h (3 Bft) N-NW 337 0 min 0,0 UV-I 14 W/m -2,6 C -0,6 C 25,7 km/h (4 Bft)
11.05.2020 20:50 5,9 C 4,4 C 55 % 1015,4 hPa 0,0 l/m 14,3 km/h (3 Bft) N 349 0 min 0,0 UV-I 12 W/m -2,4 C 0,5 C 19,3 km/h (3 Bft)
11.05.2020 20:52 5,7 C 4,4 C 55 % 1015,4 hPa 0,0 l/m 14,8 km/h (3 Bft) N-NO 25 0 min 0,0 UV-I 12 W/m -2,6 C 0,0 C 25,7 km/h (4 Bft)
11.05.2020 20:54 5,7 C 3,9 C 54 % 1015,6 hPa 0,0 l/m 17,0 km/h (3 Bft) N-NO 24 0 min 0,0 UV-I 11 W/m -2,9 C -1,0 C 29,0 km/h (5 Bft)
11.05.2020 20:56 5,7 C 4,4 C 54 % 1015,6 hPa 0,0 l/m 20,8 km/h (4 Bft) N-NO 26 0 min 0,0 UV-I 11 W/m -2,9 C -2,6 C 27,4 km/h (4 Bft)
11.05.2020 20:58 5,6 C 3,9 C 55 % 1015,6 hPa 0,0 l/m 13,1 km/h (3 Bft) N 355 0 min 0,0 UV-I 11 W/m -2,7 C 0,8 C 22,5 km/h (4 Bft)
11.05.2020 21:00 5,6 C 3,9 C 55 % 1015,6 hPa 0,0 l/m 15,7 km/h (3 Bft) N-NW 344 0 min 0,0 UV-I 9 W/m -2,7 C -0,5 C 20,9 km/h (4 Bft)
11.05.2020 21:02 5,4 C 3,9 C 56 % 1015,6 hPa 0,0 l/m 13,2 km/h (3 Bft) N 360 0 min 0,0 UV-I 9 W/m -2,7 C 0,5 C 17,7 km/h (3 Bft)
11.05.2020 21:04 5,3 C 3,9 C 55 % 1015,7 hPa 0,0 l/m 13,3 km/h (3 Bft) N 360 0 min 0,0 UV-I 7 W/m -3,0 C 0,3 C 19,3 km/h (3 Bft)
11.05.2020 21:06 5,3 C 3,3 C 56 % 1015,7 hPa 0,0 l/m 12,3 km/h (3 Bft) N-NO 28 0 min 0,0 UV-I 7 W/m -2,8 C 0,9 C 19,3 km/h (3 Bft)
11.05.2020 21:08 5,2 C 3,3 C 56 % 1015,8 hPa 0,0 l/m 13,6 km/h (3 Bft) N 355 0 min 0,0 UV-I 6 W/m -2,8 C 0,1 C 17,7 km/h (3 Bft)
11.05.2020 21:10 5,1 C 3,3 C 56 % 1015,9 hPa 0,0 l/m 16,7 km/h (3 Bft) N 355 0 min 0,0 UV-I 5 W/m -2,9 C -1,6 C 29,0 km/h (5 Bft)
11.05.2020 21:12 5,2 C 3,3 C 56 % 1015,8 hPa 0,0 l/m 16,2 km/h (3 Bft) N 355 0 min 0,0 UV-I 0 W/m -2,8 C -1,3 C 20,9 km/h (4 Bft)
11.05.2020 21:14 5,2 C 3,3 C 56 % 1015,9 hPa 0,0 l/m 13,6 km/h (3 Bft) N 5 0 min 0,0 UV-I 0 W/m -2,8 C 0,1 C 19,3 km/h (3 Bft)
11.05.2020 21:16 5,1 C 3,3 C 56 % 1016,1 hPa 0,0 l/m 13,4 km/h (3 Bft) N 355 0 min 0,0 UV-I 0 W/m -2,9 C 0,1 C 19,3 km/h (3 Bft)
11.05.2020 21:18 5,1 C 3,3 C 56 % 1016,1 hPa 0,0 l/m 14,5 km/h (3 Bft) N-NW 348 0 min 0,0 UV-I 0 W/m -2,9 C -0,5 C 20,9 km/h (4 Bft)
11.05.2020 21:20 5,0 C 3,3 C 57 % 1016,2 hPa 0,0 l/m 14,2 km/h (3 Bft) N-NW 346 0 min 0,0 UV-I 0 W/m -2,8 C -0,5 C 19,3 km/h (3 Bft)
11.05.2020 21:22 5,0 C 3,3 C 56 % 1016,2 hPa 0,0 l/m 13,5 km/h (3 Bft) N-NW 348 0 min 0,0 UV-I 0 W/m -3,0 C -0,1 C 22,5 km/h (4 Bft)
11.05.2020 21:24 4,9 C 3,3 C 57 % 1016,2 hPa 0,0 l/m 12,6 km/h (3 Bft) N 5 0 min 0,0 UV-I 0 W/m -2,9 C 0,3 C 22,5 km/h (4 Bft)
11.05.2020 21:26 4,9 C 2,8 C 56 % 1016,2 hPa 0,0 l/m 16,0 km/h (3 Bft) N 360 0 min 0,0 UV-I 0 W/m -3,1 C -1,5 C 25,7 km/h (4 Bft)
11.05.2020 21:28 4,9 C 3,3 C 56 % 1016,2 hPa 0,0 l/m 14,0 km/h (3 Bft) N 355 0 min 0,0 UV-I 0 W/m -3,1 C -0,5 C 19,3 km/h (3 Bft)
11.05.2020 21:30 4,9 C 3,3 C 57 % 1016,1 hPa 0,0 l/m 11,2 km/h (2 Bft) N-NW 340 0 min 0,0 UV-I 0 W/m -2,9 C 1,1 C 16,1 km/h (3 Bft)
11.05.2020 21:32 4,8 C 2,8 C 57 % 1016,3 hPa 0,0 l/m 10,9 km/h (2 Bft) N 355 0 min 0,0 UV-I 0 W/m -3,0 C 1,2 C 14,5 km/h (3 Bft)
11.05.2020 21:34 4,7 C 2,8 C 57 % 1016,4 hPa 0,0 l/m 11,8 km/h (2 Bft) N 5 0 min 0,0 UV-I 0 W/m -3,1 C 0,5 C 17,7 km/h (3 Bft)
11.05.2020 21:36 4,7 C 2,8 C 58 % 1016,4 hPa 0,0 l/m 13,1 km/h (3 Bft) N 360 0 min 0,0 UV-I 0 W/m -2,8 C -0,2 C 20,9 km/h (4 Bft)
11.05.2020 21:38 4,7 C 2,8 C 57 % 1016,4 hPa 0,0 l/m 11,2 km/h (2 Bft) N-NO 18 0 min 0,0 UV-I 0 W/m -3,1 C 0,9 C 19,3 km/h (3 Bft)
11.05.2020 21:40 4,6 C 2,8 C 58 % 1016,5 hPa 0,0 l/m 8,9 km/h (2 Bft) N 355 0 min 0,0 UV-I 0 W/m -2,9 C 2,5 C 16,1 km/h (3 Bft)
11.05.2020 21:42 4,5 C 2,8 C 58 % 1016,5 hPa 0,0 l/m 12,8 km/h (3 Bft) N 5 0 min 0,0 UV-I 0 W/m -3,0 C -0,3 C 19,3 km/h (3 Bft)
11.05.2020 21:44 4,5 C 2,8 C 58 % 1016,6 hPa 0,0 l/m 11,0 km/h (2 Bft) N 355 0 min 0,0 UV-I 0 W/m -3,0 C 0,8 C 17,7 km/h (3 Bft)
11.05.2020 21:46 4,4 C 2,2 C 58 % 1016,6 hPa 0,0 l/m 11,9 km/h (2 Bft) N 5 0 min 0,0 UV-I 0 W/m -3,1 C 0,1 C 24,1 km/h (4 Bft)
11.05.2020 21:48 4,5 C 2,2 C 58 % 1016,7 hPa 0,0 l/m 11,7 km/h (2 Bft) N 350 0 min 0,0 UV-I 0 W/m -3,0 C 0,4 C 17,7 km/h (3 Bft)
11.05.2020 21:50 4,4 C 2,2 C 58 % 1016,7 hPa 0,0 l/m 12,2 km/h (2 Bft) N 360 0 min 0,0 UV-I 0 W/m -3,1 C -0,1 C 16,1 km/h (3 Bft)
11.05.2020 21:52 4,4 C 2,2 C 58 % 1016,8 hPa 0,0 l/m 8,0 km/h (2 Bft) N 5 0 min 0,0 UV-I 0 W/m -3,1 C 3,0 C 12,9 km/h (3 Bft)
11.05.2020 21:54 4,3 C 2,2 C 59 % 1016,8 hPa 0,0 l/m 9,3 km/h (2 Bft) N 9 0 min 0,0 UV-I 0 W/m -3,0 C 1,8 C 14,5 km/h (3 Bft)
11.05.2020 21:56 4,2 C 2,2 C 59 % 1016,8 hPa 0,0 l/m 9,4 km/h (2 Bft) N 350 0 min 0,0 UV-I 0 W/m -3,1 C 1,6 C 17,7 km/h (3 Bft)
11.05.2020 21:58 4,2 C 2,2 C 59 % 1017,0 hPa 0,0 l/m 9,0 km/h (2 Bft) N 5 0 min 0,0 UV-I 0 W/m -3,1 C 1,9 C 12,9 km/h (3 Bft)
11.05.2020 22:00 4,2 C 1,7 C 59 % 1017,0 hPa 0,0 l/m 9,2 km/h (2 Bft) N 9 0 min 0,0 UV-I 0 W/m -3,1 C 1,8 C 14,5 km/h (3 Bft)
11.05.2020 22:02 4,2 C 2,2 C 59 % 1017,0 hPa 0,0 l/m 9,8 km/h (2 Bft) N-NW 331 0 min 0,0 UV-I 0 W/m -3,1 C 1,3 C 14,5 km/h (3 Bft)
11.05.2020 22:04 4,1 C 1,7 C 59 % 1017,1 hPa 0,0 l/m 7,2 km/h (2 Bft) N 360 0 min 0,0 UV-I 0 W/m -3,2 C 3,4 C 12,9 km/h (3 Bft)
11.05.2020 22:06 4,1 C 1,7 C 59 % 1017,0 hPa 0,0 l/m 8,7 km/h (2 Bft) N 5 0 min 0,0 UV-I 0 W/m -3,2 C 2,1 C 14,5 km/h (3 Bft)
11.05.2020 22:08 4,0 C 1,7 C 60 % 1017,1 hPa 0,0 l/m 9,8 km/h (2 Bft) N 360 0 min 0,0 UV-I 0 W/m -3,0 C 1,1 C 16,1 km/h (3 Bft)
11.05.2020 22:10 3,9 C 1,7 C 60 % 1017,1 hPa 0,0 l/m 10,0 km/h (2 Bft) N 360 0 min 0,0 UV-I 0 W/m -3,1 C 0,9 C 14,5 km/h (3 Bft)
11.05.2020 22:12 3,9 C 1,1 C 61 % 1017,2 hPa 0,0 l/m 8,6 km/h (2 Bft) N 355 0 min 0,0 UV-I 0 W/m -2,9 C 1,9 C 14,5 km/h (3 Bft)
11.05.2020 22:14 3,9 C 1,1 C 61 % 1017,1 hPa 0,0 l/m 10,0 km/h (2 Bft) N-NW 346 0 min 0,0 UV-I 0 W/m -2,9 C 0,9 C 19,3 km/h (3 Bft)
11.05.2020 22:16 3,8 C 1,1 C 61 % 1017,2 hPa 0,0 l/m 9,5 km/h (2 Bft) N 355 0 min 0,0 UV-I 0 W/m -3,0 C 1,1 C 12,9 km/h (3 Bft)
11.05.2020 22:18 3,8 C 1,1 C 62 % 1017,2 hPa 0,0 l/m 8,5 km/h (2 Bft) N 5 0 min 0,0 UV-I 0 W/m -2,8 C 1,9 C 11,3 km/h (2 Bft)
11.05.2020 22:20 3,7 C 1,1 C 62 % 1017,2 hPa 0,0 l/m 8,6 km/h (2 Bft) N 10 0 min 0,0 UV-I 0 W/m -2,9 C 1,7 C 12,9 km/h (3 Bft)
11.05.2020 22:22 3,6 C 1,1 C 62 % 1017,3 hPa 0,0 l/m 10,0 km/h (2 Bft) N-NO 12 0 min 0,0 UV-I 0 W/m -3,0 C 0,5 C 17,7 km/h (3 Bft)
11.05.2020 22:24 3,7 C 1,1 C 61 % 1017,3 hPa 0,0 l/m 8,4 km/h (2 Bft) N 5 0 min 0,0 UV-I 0 W/m -3,1 C 1,9 C 12,9 km/h (3 Bft)
11.05.2020 22:26 3,7 C 1,1 C 62 % 1017,3 hPa 0,0 l/m 7,4 km/h (2 Bft) NW 319 0 min 0,0 UV-I 0 W/m -2,9 C 2,8 C 12,9 km/h (3 Bft)
11.05.2020 22:28 3,7 C 1,1 C 62 % 1017,4 hPa 0,0 l/m 8,0 km/h (2 Bft) N 355 0 min 0,0 UV-I 0 W/m -2,9 C 2,2 C 12,9 km/h (3 Bft)
11.05.2020 22:30 3,6 C 1,1 C 61 % 1017,4 hPa 0,0 l/m 11,5 km/h (2 Bft) N-NW 342 0 min 0,0 UV-I 0 W/m -3,2 C -0,5 C 16,1 km/h (3 Bft)
11.05.2020 22:32 3,6 C 1,1 C 62 % 1017,5 hPa 0,0 l/m 10,5 km/h (2 Bft) N 360 0 min 0,0 UV-I 0 W/m -3,0 C 0,2 C 14,5 km/h (3 Bft)
11.05.2020 22:34 3,6 C 1,1 C 62 % 1017,5 hPa 0,0 l/m 8,5 km/h (2 Bft) N 10 0 min 0,0 UV-I 0 W/m -3,0 C 1,7 C 16,1 km/h (3 Bft)
11.05.2020 22:36 3,5 C 1,1 C 62 % 1017,5 hPa 0,0 l/m 11,8 km/h (2 Bft) N 360 0 min 0,0 UV-I 0 W/m -3,1 C -0,8 C 17,7 km/h (3 Bft)
11.05.2020 22:38 3,6 C 1,1 C 61 % 1017,5 hPa 0,0 l/m 11,4 km/h (2 Bft) N 360 0 min 0,0 UV-I 0 W/m -3,2 C -0,5 C 20,9 km/h (4 Bft)
11.05.2020 22:40 3,6 C 1,7 C 62 % 1017,5 hPa 0,0 l/m 13,1 km/h (3 Bft) N 355 0 min 0,0 UV-I 0 W/m -3,0 C -1,5 C 17,7 km/h (3 Bft)
11.05.2020 22:42 3,6 C 1,7 C 62 % 1017,6 hPa 0,0 l/m 11,1 km/h (2 Bft) N 350 0 min 0,0 UV-I 0 W/m -3,0 C -0,3 C 17,7 km/h (3 Bft)
11.05.2020 22:44 3,5 C 1,7 C 62 % 1017,7 hPa 0,0 l/m 12,7 km/h (3 Bft) N 349 0 min 0,0 UV-I 0 W/m -3,1 C -1,4 C 16,1 km/h (3 Bft)
11.05.2020 22:46 3,5 C 1,7 C 61 % 1017,7 hPa 0,0 l/m 13,3 km/h (3 Bft) N 9 0 min 0,0 UV-I 0 W/m -3,3 C -1,8 C 19,3 km/h (3 Bft)
11.05.2020 22:48 3,6 C 1,7 C 61 % 1017,6 hPa 0,0 l/m 14,9 km/h (3 Bft) NW 321 0 min 0,0 UV-I 0 W/m -3,2 C -2,6 C 19,3 km/h (3 Bft)
11.05.2020 22:50 3,6 C 1,7 C 60 % 1017,6 hPa 0,0 l/m 15,4 km/h (3 Bft) N 350 0 min 0,0 UV-I 0 W/m -3,4 C -2,8 C 22,5 km/h (4 Bft)
11.05.2020 22:52 3,6 C 1,7 C 60 % 1017,8 hPa 0,0 l/m 15,5 km/h (3 Bft) N-NW 347 0 min 0,0 UV-I 0 W/m -3,4 C -2,9 C 22,5 km/h (4 Bft)
11.05.2020 22:54 3,6 C 1,7 C 60 % 1017,7 hPa 0,0 l/m 14,1 km/h (3 Bft) N 355 0 min 0,0 UV-I 0 W/m -3,4 C -2,1 C 19,3 km/h (3 Bft)
11.05.2020 22:56 3,6 C 1,7 C 60 % 1017,8 hPa 0,0 l/m 12,7 km/h (3 Bft) N 9 0 min 0,0 UV-I 0 W/m -3,4 C -1,3 C 19,3 km/h (3 Bft)
11.05.2020 22:58 3,5 C 1,7 C 60 % 1017,9 hPa 0,0 l/m 14,1 km/h (3 Bft) N 360 0 min 0,0 UV-I 0 W/m -3,5 C -2,2 C 17,7 km/h (3 Bft)
11.05.2020 23:00 3,4 C 1,7 C 60 % 1017,9 hPa 0,0 l/m 13,4 km/h (3 Bft) N-NW 344 0 min 0,0 UV-I 0 W/m -3,6 C -2,0 C 20,9 km/h (4 Bft)
11.05.2020 23:02 3,4 C 1,7 C 60 % 1017,9 hPa 0,0 l/m 14,7 km/h (3 Bft) N 355 0 min 0,0 UV-I 0 W/m -3,6 C -2,7 C 20,9 km/h (4 Bft)
11.05.2020 23:04 3,3 C 1,1 C 61 % 1017,9 hPa 0,0 l/m 14,3 km/h (3 Bft) N 360 0 min 0,0 UV-I 0 W/m -3,5 C -2,6 C 20,9 km/h (4 Bft)
11.05.2020 23:06 3,3 C 1,7 C 61 % 1017,8 hPa 0,0 l/m 14,2 km/h (3 Bft) N-NW 338 0 min 0,0 UV-I 0 W/m -3,5 C -2,5 C 20,9 km/h (4 Bft)
11.05.2020 23:08 3,3 C 1,7 C 61 % 1017,8 hPa 0,0 l/m 10,7 km/h (2 Bft) N 360 0 min 0,0 UV-I 0 W/m -3,5 C -0,3 C 14,5 km/h (3 Bft)
11.05.2020 23:10 3,2 C 1,1 C 61 % 1018,0 hPa 0,0 l/m 9,6 km/h (2 Bft) N 5 0 min 0,0 UV-I 0 W/m -3,6 C 0,4 C 14,5 km/h (3 Bft)
11.05.2020 23:12 3,2 C 1,1 C 61 % 1018,0 hPa 0,0 l/m 14,7 km/h (3 Bft) N-NO 22 0 min 0,0 UV-I 0 W/m -3,6 C -2,9 C 20,9 km/h (4 Bft)
11.05.2020 23:14 3,1 C 1,1 C 61 % 1018,0 hPa 0,0 l/m 12,3 km/h (3 Bft) N 349 0 min 0,0 UV-I 0 W/m -3,7 C -1,6 C 16,1 km/h (3 Bft)
11.05.2020 23:16 3,1 C 1,1 C 61 % 1018,0 hPa 0,0 l/m 14,3 km/h (3 Bft) N-NW 338 0 min 0,0 UV-I 0 W/m -3,7 C -2,8 C 17,7 km/h (3 Bft)
11.05.2020 23:18 3,1 C 1,1 C 61 % 1018,1 hPa 0,0 l/m 13,6 km/h (3 Bft) N 355 0 min 0,0 UV-I 0 W/m -3,7 C -2,4 C 19,3 km/h (3 Bft)
11.05.2020 23:20 3,1 C 1,1 C 61 % 1018,0 hPa 0,0 l/m 13,6 km/h (3 Bft) N 360 0 min 0,0 UV-I 0 W/m -3,7 C -2,4 C 17,7 km/h (3 Bft)
11.05.2020 23:22 3,1 C 1,1 C 62 % 1018,1 hPa 0,0 l/m 14,5 km/h (3 Bft) N-NW 346 0 min 0,0 UV-I 0 W/m -3,5 C -2,9 C 19,3 km/h (3 Bft)
11.05.2020 23:24 3,0 C 1,1 C 62 % 1018,1 hPa 0,0 l/m 14,6 km/h (3 Bft) N-NW 346 0 min 0,0 UV-I 0 W/m -3,6 C -3,1 C 19,3 km/h (3 Bft)
11.05.2020 23:26 3,1 C 1,1 C 61 % 1018,2 hPa 0,0 l/m 17,4 km/h (3 Bft) N-NO 18 0 min 0,0 UV-I 0 W/m -3,7 C -4,5 C 25,7 km/h (4 Bft)
11.05.2020 23:28 3,1 C 1,1 C 62 % 1018,2 hPa 0,0 l/m 14,5 km/h (3 Bft) N-NW 348 0 min 0,0 UV-I 0 W/m -3,5 C -2,9 C 22,5 km/h (4 Bft)
11.05.2020 23:30 3,1 C 1,1 C 61 % 1018,3 hPa 0,0 l/m 17,2 km/h (3 Bft) N 5 0 min 0,0 UV-I 0 W/m -3,7 C -4,4 C 24,1 km/h (4 Bft)
11.05.2020 23:32 3,1 C 1,7 C 61 % 1018,4 hPa 0,0 l/m 16,8 km/h (3 Bft) N-NO 15 0 min 0,0 UV-I 0 W/m -3,7 C -4,2 C 20,9 km/h (4 Bft)
11.05.2020 23:34 3,1 C 1,1 C 61 % 1018,3 hPa 0,0 l/m 13,3 km/h (3 Bft) N 5 0 min 0,0 UV-I 0 W/m -3,7 C -2,2 C 17,7 km/h (3 Bft)
11.05.2020 23:36 2,9 C 1,1 C 62 % 1018,4 hPa 0,0 l/m 14,5 km/h (3 Bft) N-NO 12 0 min 0,0 UV-I 0 W/m -3,6 C -3,2 C 20,9 km/h (4 Bft)
11.05.2020 23:38 2,9 C 1,1 C 62 % 1018,4 hPa 0,0 l/m 16,1 km/h (3 Bft) N 355 0 min 0,0 UV-I 0 W/m -3,6 C -4,1 C 19,3 km/h (3 Bft)
11.05.2020 23:40 2,9 C 1,1 C 62 % 1018,5 hPa 0,0 l/m 13,5 km/h (3 Bft) N 360 0 min 0,0 UV-I 0 W/m -3,6 C -2,6 C 19,3 km/h (3 Bft)
11.05.2020 23:42 2,8 C 1,1 C 62 % 1018,4 hPa 0,0 l/m 14,3 km/h (3 Bft) N 349 0 min 0,0 UV-I 0 W/m -3,7 C -3,2 C 20,9 km/h (4 Bft)
11.05.2020 23:44 2,8 C 1,1 C 62 % 1018,5 hPa 0,0 l/m 13,2 km/h (3 Bft) N-NW 332 0 min 0,0 UV-I 0 W/m -3,7 C -2,5 C 19,3 km/h (3 Bft)
11.05.2020 23:46 2,7 C 1,1 C 63 % 1018,6 hPa 0,0 l/m 12,9 km/h (3 Bft) N 360 0 min 0,0 UV-I 0 W/m -3,6 C -2,5 C 19,3 km/h (3 Bft)
11.05.2020 23:48 2,7 C 1,1 C 63 % 1018,7 hPa 0,0 l/m 14,5 km/h (3 Bft) N-NW 339 0 min 0,0 UV-I 0 W/m -3,6 C -3,4 C 22,5 km/h (4 Bft)
11.05.2020 23:50 2,7 C 1,1 C 63 % 1018,6 hPa 0,0 l/m 13,4 km/h (3 Bft) N-NW 347 0 min 0,0 UV-I 0 W/m -3,6 C -2,8 C 19,3 km/h (3 Bft)
11.05.2020 23:52 2,7 C 1,1 C 63 % 1018,7 hPa 0,0 l/m 14,7 km/h (3 Bft) N-NW 346 0 min 0,0 UV-I 0 W/m -3,6 C -3,5 C 20,9 km/h (4 Bft)
11.05.2020 23:54 2,7 C 0,6 C 63 % 1018,7 hPa 0,0 l/m 11,8 km/h (2 Bft) N 355 0 min 0,0 UV-I 0 W/m -3,6 C -1,8 C 24,1 km/h (4 Bft)
11.05.2020 23:56 2,7 C 0,6 C 63 % 1018,7 hPa 0,0 l/m 16,9 km/h (3 Bft) N-NW 345 0 min 0,0 UV-I 0 W/m -3,6 C -4,7 C 20,9 km/h (4 Bft)
11.05.2020 23:58 2,6 C 0,6 C 64 % 1018,8 hPa 0,0 l/m 12,6 km/h (3 Bft) N 355 0 min 0,0 UV-I 0 W/m -3,5 C -2,4 C 17,7 km/h (3 Bft)
11.05.2020 23:59 2,6 C 0,6 C 63 % 1018,7 hPa 0,0 l/m 16,1 km/h (3 Bft) N 360 0 min 0,0 UV-I 0 W/m -3,7 C -4,4 C 20,9 km/h (4 Bft)
_ Min-Zeit 08:32 23:54 18:40 03:14 - 22:04 - - - - - 23:42 07:50 22:18
Minimum _ 1,8 C 0,6 C 48 % 1007,0 hPa - 7,2 km/h (2 Bft) - - - - - -3,7 C -11,7 C 11,3 km/h (2 Bft)
_ Max-Zeit 15:38 15:38 01:43 23:58 05:23 12:52 - - 12:28 13:46 13:56 00:00 00:54 12:02
Maximum _ 9,3 C 17,2 C 95 % 1018,8 hPa 0,2 l/m 40,9 km/h
N (6 Bft)
- - 2 min 6,9 UV-I 1088 W/m 7,9 C 4,8 C 59,5 km/h
N (7 Bft)
Durchschnitt _ 5,1 C 6,0 C 76 % 1010,3 hPa #1,6 l/m 22,5 km/h (4 Bft) N - #1:50 h 2,3 UV-I 278 W/m 0,9 C -3,7 C 33,9 km/h (5 Bft)